     2.10           OBSERVATION DATA    G (GPS)             RINEX VERSION / TYPE
teqc 2002Mar14 SOPAC 20050725 21:24:48UTC                   PGM / RUN BY / DATE
Linux 2.0.36|Pentium II|gcc -static|Linux|486/DX+           COMMENT
BIT 2 OF LLI FLAGS DATA COLLECTED UNDER A/S CONDITION       COMMENT
HPGN CA 02 04                                               MARKER NAME
0204                                                        MARKER NUMBER
Ben Sanchez                                                 OBSERVER / AGENCY
0440100455 TRIMBLE 5700                                     REC # / TYPE / VERS
12214400 TRM41249.00 NONE                                   ANT # / TYPE
 -2480152.0000 -4053350.0000  4241932.0000                  APPROX POSITION XYZ
        1.8000        0.0000        0.0000                  ANTENNA: DELTA H/E/N
     1     1                                                WAVELENGTH FACT L1/2
     6    L1    L2    C1    P2    P1    D1                  # / TYPES OF OBSERV
    15.0000                                                 INTERVAL
Northern California Height Modernization 2004               COMMENT
                                                            COMMENT
SOPAC - Scripps Orbit and Permanent Array Center            COMMENT
IGPP - Institute of Geophysics and Planetary Physics        COMMENT
SIO - Scripps Institution of Oceanography                   COMMENT
UCSD - University of California, San Diego                  COMMENT
                                                            COMMENT
email: archive@gpsmail.ucsd.edu                             COMMENT
ftp://garner.ucsd.edu                                       COMMENT
http://sopac.ucsd.edu                                       COMMENT
                                                            COMMENT
                                                            COMMENT
Approximate Lat, Lon : 41.946, -121.461                     COMMENT
                                                            COMMENT
SNR is mapped to RINEX snr flag value [1-9]                 COMMENT
L1: 3 -> 1; 8 -> 5; 40 -> 9                                 COMMENT
L2: 1 -> 1; 5 -> 5; 60 -> 9                                 COMMENT
  2004     9     2    15    16   45.0000000     GPS         TIME OF FIRST OBS
                                                            END OF HEADER
 04  9  2 15 16 45.0000000  0  7G 1G11G14G15G19G22G25
   -315252.12559   -241398.28956  23569597.7894   23569595.0434

   -289881.83659   -210117.78157  22498734.6094   22498729.8014

    314246.05959    220597.18458  20718928.4694   20718924.0124

    672084.08659    474799.57457  22710795.7034   22710792.8954

    475282.10559    332103.51257  23227960.2274   23227955.1644

    448311.94559    312419.56357  22412216.0004   22412210.5434

   -410293.53959   -295714.06257  22886758.2734   22886754.8444

 04  9  2 15 17  0.0000000  0  7G 1G11G14G15G19G22G25
   -352937.52149   -270763.47346  23562426.3054   23562423.8324
      2512.3604
   -316324.34449   -230722.33647  22493702.5314   22493697.8714
      1762.8344
    342690.05149    242761.32448  20724341.1724   20724336.4774
     -1896.2664
    733227.65249    522443.88747  22722430.7504   22722427.7154
     -4076.2384
    518589.92249    365849.82847  23236201.8054   23236196.5314
     -2887.1884
    488845.16449    344003.87947  22419928.9304   22419923.8524
     -2702.2154
   -447885.66449   -325006.61747  22879604.6954   22879601.4804
      2506.1424
 04  9  2 15 17 15.0000000  0  7G 1G11G14G15G19G22G25
   -390626.58649   -300131.59846  23555254.4064   23555252.3524
      2512.6044
   -342730.41849   -251298.49647  22488677.8834   22488672.9024
      1760.4054
    371174.89149    264957.29748  20729761.4454   20729756.8954
     -1898.9894
    794380.63349    570095.51647  22734067.4774   22734064.8164
     -4076.8654
    561925.70749    399617.93847  23244448.4454   23244443.1294
     -2889.0524
    529363.48849    375576.57447  22427639.6254   22427634.0864
     -2701.2224
   -485475.68449   -354297.53547  22872451.4064   22872448.3984
      2506.0014
 04  9  2 15 17 30.0010000  0  7G 1G11G14G15G19G22G25
   -428320.50449   -329503.48446  23548081.1304   23548078.7314
      2512.9284
   -369100.25049   -271846.42247  22483659.7474   22483655.1034
      1757.9894
    399703.48449    287187.35948  20735190.6064   20735186.0094
     -1901.9064
    855548.07849    617758.43047  22745707.6224   22745704.5874
     -4077.8304
    605293.29349    433410.82847  23252700.6924   23252695.6064
     -2891.1724
    569870.70749    407140.62547  22435347.8024   22435342.2354
     -2700.4814
   -523064.47749   -383587.48447  22865298.2864   22865295.5444
      2505.9204
 04  9  2 15 17 45.0010000  0  7G 1G11G14G15G19G22G25
   -466011.36749   -358872.96946  23540908.7164   23540906.6494
      2512.7244
   -395427.51649   -292361.16847  22478649.7474   22478645.0214
      1755.1514
    428274.54349    309450.51248  20740627.5054   20740622.5794
     -1904.7374
    916724.22749    665428.11347  22757348.8104   22757345.7674
     -4078.4104
    648689.21149    467225.79747  23260958.6774   23260953.5634
     -2893.0614
    610364.10249    438693.90247  22443053.7634   22443048.2004
     -2699.5604
   -560644.01249   -412870.22747  22858147.3884   22858144.5324
      2505.3024
 04  9  2 15 18  0.0010000  0  7G 1G11G14G15G19G22G25
   -503699.83649   -388240.59046  23533736.7314   23533734.8844
      2512.5654
   -421711.68049   -312842.34847  22473648.4274   22473643.2784
      1752.2784
    456891.50449    331749.43448  20746072.7944   20746068.4464
     -1907.7974
    977914.66049    713108.94947  22768992.7714   22768990.4194
     -4079.3624
    692117.85949    501066.27047  23269223.0914   23269217.8214
     -2895.2434
    650848.25449    470239.97747  22450757.2314   22450752.1494
     -2698.9434
   -598214.73449   -442146.10247  22850997.8564   22850995.2554
      2504.7154
 04  9  2 15 18 15.0010000  0  7G 1G11G14G15G19G22G25
   -541384.60249   -417605.32847  23526566.2554   23526563.4704
      2512.3184
   -447951.59049   -333289.02047  22468655.0214   22468650.3724
      1749.3274
    485555.25049    354084.80948  20751527.6304   20751522.7744
     -1910.9164
   1039120.15649    760801.49647  22780640.1854   22780637.6064
     -4080.3664
    735579.92649    534932.78947  23277493.9744   23277488.2474
     -2897.4714
    691324.17649    501779.63347  22458459.5994   22458454.5914
     -2698.3954
   -635775.29749   -471414.05147  22843850.3724   22843847.6034
      2504.0384
 04  9  2 15 18 30.0010000  0  7G 1G11G14G15G19G22G25
   -579065.31249   -446966.89547  23519395.6854   23519393.5404
      2512.0474
   -474146.65649   -353700.77047  22463670.2394   22463665.6814
      1746.3384
    514265.77049    376456.62948  20756991.3024   20756986.3294
     -1914.0354
   1100340.70349    808505.77747  22792289.6924   22792287.9584
     -4081.3704
    779075.20749    568825.18447  23285770.3564   23285765.3884
     -2899.6854
    731792.01649    533312.99647  22466160.6064   22466154.9624
     -2697.8564
   -673325.09449   -500673.62547  22836704.8884   22836701.8024
      2503.3204
 04  9  2 15 18 45.0010000  0  7G 1G11G14G15G19G22G25
   -616739.05149   -476323.03547  23512226.6534   23512223.9624
      2511.5834
   -500293.82049   -374075.18447  22458694.7944   22458689.9704
      1743.1444
    543025.59049    398866.87548  20762463.7944   20762459.0794
     -1917.3214
   1161578.87549    856223.79747  22803943.4354   22803940.9934
     -4082.5454
    822606.14149    602745.36747  23294054.5914   23294048.7984
     -2902.0624
    772254.60249    564842.27347  22473859.8644   22473855.0244
     -2697.5064
   -710860.90249   -529922.28947  22829561.8024   22829558.9504
      2502.3874
 04  9  2 15 19  0.0010000  0  7G 1G11G14G15G19G22G25
   -654403.79349   -505672.17647  23505058.6854   23505057.0674
      2510.9834
   -526390.84449   -394410.53147  22453728.3414   22453723.5134
      1739.8024
    571836.35249    421316.81348  20767946.5214   20767941.7044
     -1920.7174
   1222836.14549    903956.69947  22815600.1614   22815598.1184
     -4083.8184
    866174.25049    636694.52347  23302345.1534   23302339.3684
     -2904.5414
    812713.80149    596368.89847  22481559.3174   22481554.1384
     -2697.2804
   -748380.57449   -559158.38347  22822421.8254   22822418.4114
      2501.3114
 04  9  2 15 19 15.0010000  0  7G 1G11G14G15G19G22G25
   -692058.71949   -535013.67647  23497893.6464   23497890.9854
      2510.3284
   -552436.84049   -414706.10947  22448772.0284   22448767.4234
      1736.4004
    600698.58649    443806.85248  20773438.8174   20773434.1884
     -1924.1494
   1284113.05949    951704.89547  22827260.7314   22827258.6424
     -4085.1284
    909779.86749    670672.89147  23310642.9584   23310637.2204
     -2907.0414
    853170.29349    627893.42247  22489258.1224   22489253.0134
     -2697.0994
   -785883.03549   -588381.07447  22815285.4814   22815282.3214
      2500.1644
 04  9  2 15 19 30.0010000  0  7G 1G11G14G15G19G22G25
   -729700.11749   -564344.62547  23490730.7554   23490728.2394
      2509.4274
   -578428.12149   -434959.05947  22443826.2784   22443821.4544
      1732.7524
    629615.45749    466339.47348  20778941.5754   20778937.0244
     -1927.7914
   1345412.82849    999470.91847  22838925.5834   22838923.6614
     -4086.6514
    953426.14149    704682.93847  23318948.4114   23318943.1264
     -2909.7524
    893627.51649    659418.50047  22496956.6064   22496951.0874
     -2697.1484
   -823364.39149   -617587.30947  22808153.2714   22808149.8374
      2498.7574
 04  9  2 15 19 45.0010000  0  7G 1G11G14G15G19G22G25
   -767329.33649   -593666.07447  23483570.2784   23483567.5564
      2508.6154
   -604365.77349   -455170.22347  22438890.0134   22438885.7394
      1729.1774
    658585.34849    488913.40248  20784454.0444   20784449.4814
     -1931.3264
   1406733.67249   1047253.35547  22850594.9814   22850592.8104
     -4088.0564
    997111.18849    738723.20747  23327261.1144   23327255.7944
     -2912.3364
    934083.99249    690943.00447  22504655.3804   22504650.3684
     -2697.0984
   -860825.83649   -646778.04347  22801024.6854   22801021.2004
      2497.4304
 04  9  2 15 20  0.0010000  0  7G 1G11G14G15G19G22G25
   -804945.51249   -622977.37947  23476412.5134   23476409.5214
      2507.7454
   -630248.71949   -475338.74247  22433964.7394   22433960.7204
      1725.5304
    687608.85949    511529.12148  20789977.1614   20789972.7904
     -1934.9014
   1468076.13749   1095052.63747  22862268.1384   22862265.2744
     -4089.4984
   1040835.48849    772794.04747  23335581.6694   23335576.4194
     -2914.9534
    974540.35549    722467.42247  22512353.7634   22512348.8724
     -2697.0914
   -898266.25449   -675952.37547  22793899.6534   22793896.1494
      2496.0284
 04  9  2 15 20 15.0010000  0  7G 1G11G14G15G19G22G25
   -842543.34049   -652274.37947  23469258.0284   23469255.0094
      2506.5224
   -656071.68749   -495460.54347  22429050.7634   22429046.3374
      1721.5314
    716690.77349    534190.34448  20795511.3104   20795507.0214
     -1938.7944
   1529445.00049   1142872.49247  22873946.1614   22873943.5954
     -4091.2584
   1084603.84049    806899.21147  23343910.4584   23343905.5444
     -2917.8904
   1015001.72749    753995.73447  22520053.4894   22520048.6534
     -2697.4254
   -935680.22349   -705106.09447  22786779.6464   22786776.9384
      2494.2654
 04  9  2 15 20 30.0010000  0  7G 1G11G14G15G19G22G25
   -880123.53149   -681557.64147  23462106.9274   23462103.5954
      2505.3464
   -681835.20349   -515536.00447  22424148.2714   22424143.5324
      1717.5684
    745830.03949    556896.25448  20801056.5214   20801051.8374
     -1942.6184
   1590839.22349   1190712.11347  22885628.7164   22885626.5244
     -4092.9484
   1128414.91449    841037.67647  23352247.8334   23352242.0874
     -2920.7384
   1055467.29749    785527.33647  22527753.9744   22527748.2164
     -2697.7054
   -973068.18449   -734239.55147  22779664.9194   22779662.4034
      2492.5314
 04  9  2 15 20 45.0010000  0  7G 1G11G14G15G19G22G25
   -917682.00849   -710823.96947  23454959.2714   23454956.5444
      2503.8984
   -707535.04349   -535561.86347  22419257.8724   22419253.2394
      1713.3234
    775030.41849    579649.79348  20806613.0054   20806608.4114
     -1946.6924
   1652262.59049   1238574.45347  22897317.2864   22897314.8844
     -4094.8914
   1172272.34849    875212.27047  23360593.3884   23360588.5174
     -2923.8294
   1095941.03549    817065.28947  22535455.7944   22535450.4424
     -2698.2494
  -1010425.85549   -763349.39147  22772556.1854   22772553.4464
      2490.5114
 04  9  2 15 21  0.0010000  0  7G 1G11G14G15G19G22G25
   -955219.90249   -740074.27747  23447816.4584   23447813.1144
      2502.5264
   -733172.27749   -555538.92647  22414379.1774   22414374.5364
      1709.1494
    804290.40249    602449.77048  20812181.0134   20812176.5444
     -1950.6664
   1713713.47349   1286458.22347  22909010.9974   22909008.9784
     -4096.7264
   1216174.49649    909421.70347  23368947.4274   23368942.7004
     -2926.8104
   1136421.48849    848608.47347  22543159.2714   22543153.6494
     -2698.6974
  -1047754.28149   -792436.46147  22765452.9664   22765450.0444
      2488.5624
 04  9  2 15 21 15.0010000  0  7G 1G11G14G15G19G22G25
   -992733.74249   -769305.85247  23440677.3024   23440674.4384
      2500.9234
   -758743.21949   -575464.33647  22409513.1854   22409508.3764
      1704.7294
    833613.01249    625298.53948  20817760.9744   20817756.3064
     -1954.8414
   1775194.85249   1334365.75847  22920710.7164   22920708.2594
     -4098.7594
   1260124.21949    943668.18447  23377311.4274   23377306.1184
     -2929.9824
   1176912.03949    880159.53147  22550864.0284   22550858.6104
     -2699.3704
  -1085049.69549   -821497.81647  22758356.2394   22758353.1814
      2486.3614
 04  9  2 15 21 30.0010000  0  7G 1G11G14G15G19G22G25
  -1030223.39549   -798518.53946  23433543.2864   23433540.6734
      2499.3104
   -784247.68449   -595337.94947  22404660.0994   22404655.4274
      1700.2984
    862998.10549    648196.00848  20823352.7084   20823348.0874
     -1959.0064
   1836706.51649   1382296.87947  22932416.0834   22932413.8214
     -4100.7784
   1304121.23449    977951.53547  23385683.8884   23385678.7784
     -2933.1344
   1217412.70749    911718.48047  22558570.8724   22558565.6924
     -2700.0454
  -1122311.85949   -850533.25047  22751265.5994   22751262.4274
      2484.1444
 04  9  2 15 21 45.0010000  0  7G 1G11G14G15G19G22G25
  -1067686.22749   -827710.37946  23426414.3964   23426411.2434
      2497.5224
   -809682.93449   -615157.62947  22399819.6224   22399814.7824
      1695.6834
    892447.88749    671143.88348  20828956.7944   20828952.0524
     -1963.3194
   1898250.79349   1430253.41447  22944127.1614   22944125.5014
     -4102.9524
   1348167.78949   1012273.50047  23394065.2864   23394060.4974
     -2936.4374
   1257925.97749    943287.23447  22566280.7944   22566275.4194
     -2700.8854
  -1159537.94949   -879540.57847  22744181.3804   22744178.4704
      2481.7394
 04  9  2 15 22  0.0010000  0  7G 1G11G14G15G19G22G25
  -1105122.78949   -856881.72346  23419290.4744   23419287.1264
      2495.7714
   -835049.42249   -634923.73047  22394992.5914   22394987.9074
      1691.0994
    921961.44549    694141.44948  20834573.1224   20834568.3024
     -1967.5714
   1959826.55549   1478234.48447  22955844.7864   22955842.7864
     -4105.0514
   1392262.74249   1046633.16847  23402456.4114   23402451.6424
     -2939.6644
   1298450.94949    974865.11747  22573992.2164   22573987.2314
     -2701.6654
  -1196728.32849   -908520.07847  22737103.8494   22737101.1924
      2479.3594
 04  9  2 15 22 15.0010000  0  7G 1G11G14G15G19G22G25
  -1142531.23849   -886031.16046  23412171.5134   23412168.4154
      2493.8974
   -860345.02349   -654634.58647  22390178.8884   22390174.1344
      1686.3734
    951540.32049    717189.91848  20840201.6144   20840197.4074
     -1971.9254
   2021435.27749   1526241.23847  22967568.8024   22967565.9704
     -4107.2484
   1436407.45749   1081031.60247  23410856.6854   23410851.9974
     -2942.9814
   1338989.47749   1006453.55947  22581706.4894   22581700.7124
     -2702.5684
  -1233880.77749   -937470.01647  22730034.4424   22730031.2864
      2476.8304
 04  9  2 15 22 30.0010000  0  7G 1G11G14G15G19G22G25
  -1179909.07449   -915156.73846  23405059.0444   23405054.8294
      2491.8564
   -885567.08249   -674288.14147  22385379.6534   22385374.8374
      1681.4714
    981186.55949    740290.87948  20845843.0994   20845838.8174
     -1976.4164
   2083079.03149   1574275.30147  22979299.1384   22979296.6344
     -4109.5844
   1480603.80149   1115470.26647  23419267.4894   23419261.5914
     -2946.4234
   1379543.89149   1038054.37947  22589423.9974   22589418.2124
     -2703.6284
  -1270992.76249   -966388.43447  22722972.1774   22722968.7044
      2474.1324
 04  9  2 15 22 45.0010000  0  7G 1G11G14G15G19G22G25
  -1217256.70349   -944258.80946  23397951.0524   23397948.2004
      2489.8424
   -910716.05149   -693884.75047  22380593.5914   22380588.8884
      1676.5984
   1010899.39849    763443.73048  20851497.3254   20851493.1104
     -1980.8564
   2144756.92249   1622335.96147  22991036.4114   22991033.8374
     -4111.8594
   1524850.93449   1149948.51647  23427687.4114   23427682.1184
     -2949.8094
   1420113.55949   1069667.09047  22597144.1694   22597138.8174
     -2704.6454
  -1308064.57849   -995275.54747  22715917.6774   22715914.2824
      2471.4544
 04  9  2 15 23  0.0010000  0  7G 1G11G14G15G19G22G25
  -1254572.10549   -973335.71946  23390850.8564   23390847.6924
      2487.6934
   -935789.60549   -713422.59047  22375822.4744   22375817.6104
      1671.5704
   1040680.51249    786649.78548  20857164.2244   20857159.5604
     -1985.4084
   2206470.63349   1670424.53547  23002779.9194   23002777.4544
     -4114.2474
   1569150.44549   1184467.59047  23436117.3334   23436112.1924
     -2953.3014
   1460700.37149   1101293.14547  22604867.3564   22604862.0284
     -2705.7874
  -1345093.89549  -1024129.53947  22708870.9424   22708867.8964
      2468.6214
 04  9  2 15 23 15.0010000  0  7G 1G11G14G15G19G22G25
  -1291854.62149  -1002387.02346  23383756.1534   23383753.5484
      2485.5014
   -960787.07449   -732901.14847  22371065.3724   22371060.7744
      1666.4984
   1070530.23449    809909.30148  20862844.7164   20862840.0324
     -1989.9824
   2268220.47349   1718541.24247  23014530.7314   23014528.3564
     -4116.6564
   1613502.31349   1219027.45747  23444557.0134   23444551.9544
     -2956.7914
   1501304.86349   1132932.97747  22612594.2714   22612589.0524
     -2706.9664
  -1382079.79749  -1052949.69947  22701832.4354   22701830.0874
      2465.7274
 04  9  2 15 23 30.0010000  0  7G 1G11G14G15G19G22G25
  -1329102.52049  -1031411.34046  23376667.6224   23376665.2864
      2483.1934
   -985706.53549   -752318.90647  22366323.6304   22366318.8104
      1661.2974
   1100449.87949    833223.30148  20868538.2554   20868533.7394
     -1994.6434
   2330007.78549   1766687.18047  23026288.3024   23026285.6614
     -4119.1544
   1657907.92249   1253629.19947  23453007.2944   23453002.0284
     -2960.3744
   1541928.52749   1164587.76647  22620324.7554   22620319.0524
     -2708.2444
  -1419020.46149  -1081734.62147  22694803.3884   22694800.0794
      2462.7114
 04  9  2 15 23 45.0010000  0  7G 1G11G14G15G19G22G25
  -1366316.88349  -1060409.52347  23369585.9584   23369584.0094
      2480.9584
  -1010548.99249   -771676.67247  22361596.3254   22361591.4814
      1656.1644
   1130438.02349    856590.68048  20874244.7394   20874240.0874
     -1999.2104
   2391831.09849   1814861.14547  23038053.2314   23038050.4154
     -4121.5544
   1702365.69949   1288271.59847  23461467.5524   23461461.8924
     -2963.8524
   1582570.25049   1196256.62147  22628058.4274   22628053.1614
     -2709.4484
  -1455916.71549  -1110484.91847  22687781.9664   22687779.0954
      2459.7504
 04  9  2 15 24  0.0010000  0  7G 1G11G14G15G19G22G25
  -1403496.18449  -1089380.37546  23362510.7244   23362509.0244
      2478.6204
  -1035312.70749   -790973.06647  22356883.9504   22356879.2084
      1650.9144
   1160495.87549    880012.36348  20879964.4974   20879960.1654
     -2003.8574
   2453691.46949   1863064.00047  23049824.2784   23049821.9544
     -4124.0254
   1746876.50049   1322955.29347  23469937.0994   23469931.6384
     -2967.3874
   1623231.26249   1227940.50047  22635796.0284   22635790.8174
     -2710.7344
  -1492766.94549  -1139199.35947  22680769.4584   22680766.6854
      2456.6824
 04  9  2 15 24 15.0010000  0  7G 1G11G14G15G19G22G25
  -1440640.14549  -1118323.71547  23355443.3724   23355440.8334
      2476.2644
  -1059997.37149   -810207.87947  22352186.5674   22352181.8844
      1645.6444
   1190623.24249    903488.22748  20885697.6064   20885693.1224
     -2008.4914
   2515588.77049   1911295.61747  23061603.5834   23061600.6654
     -4126.4874
   1791440.27349   1357680.30147  23478418.0284   23478412.0954
     -2970.9184
   1663911.73449   1259639.54747  22643537.4274   22643531.9424
     -2712.0324
  -1529570.59049  -1167877.49647  22673766.3414   22673762.8844
      2453.5764
 04  9  2 15 24 30.0010000  0  7G 1G11G14G15G19G22G25
  -1477746.17249  -1147237.48847  23348382.5834   23348379.9154
      2473.7354
  -1084600.24249   -829378.94947  22347504.6774   22347500.0604
      1640.1914
   1220822.34049    927019.98448  20891444.2004   20891439.8804
     -2013.2734
   2577525.23849   1959557.76247  23073389.2864   23073387.1814
     -4129.0984
   1836058.87149   1392448.00047  23486907.7634   23486903.0364
     -2974.5734
   1704614.17649   1291355.72347  22651282.8644   22651277.0564
     -2713.4964
  -1566324.94149  -1196517.23047  22666772.1384   22666768.9854
      2450.2904
 04  9  2 15 24 45.0010000  0  7G 1G11G14G15G19G22G25
  -1514815.60949  -1176122.73847  23341328.0214   23341325.8534
      2471.2964
  -1109122.62149   -848487.30947  22342837.7164   22342833.6654
      1634.8254
   1251091.48449    950606.32048  20897204.3884   20897199.9814
     -2017.9434
   2639498.99249   2007848.95747  23085182.4504   23085180.3724
     -4131.5844
   1880730.51649   1427257.04747  23495409.2944   23495403.3684
     -2978.1104
   1745336.91849   1323087.70347  22659032.2634   22659026.7864
     -2714.8494
  -1603031.03149  -1225119.35947  22659787.0054   22659784.1964
      2447.0734
 04  9  2 15 25  0.0010000  0  7G 1G11G14G15G19G22G25
  -1551846.59049  -1204978.03147  23334281.2944   23334278.7514
      2468.7324
  -1133562.48449   -867531.34847  22338187.5364   22338182.9784
      1629.3244
   1281432.11349    974248.35948  20902978.4194   20902973.5444
     -2022.7094
   2701511.46549   2056170.30547  23096983.5604   23096980.7284
     -4134.1654
   1925456.62149   1462108.52747  23503920.1064   23503915.2124
     -2981.7404
   1786081.67249   1354836.83247  22666785.6304   22666780.2824
     -2716.3174
  -1639686.92249  -1253682.36347  22652811.7004   22652808.7514
      2443.7264
 04  9  2 15 25 15.0010000  0  7G 1G11G14G15G19G22G25
  -1588838.98849  -1233803.26647  23327242.1924   23327239.5054
      2466.1604
  -1157919.46949   -886510.81247  22333552.4274   22333547.5754
      1623.7994
   1311844.13749    997946.02748  20908765.3644   20908760.9744
     -2027.4684
   2763562.51649   2104521.73447  23108791.2474   23108789.1184
     -4136.7374
   1970236.78549   1497002.14547  23512441.6224   23512436.4234
     -2985.3444
   1826848.50049   1386603.17247  22674543.4274   22674537.9424
     -2717.7894
  -1676292.18049  -1282205.92647  22645845.9424   22645842.8374
      2440.3514
 04  9  2 15 25 30.0010000  0  7G 1G11G14G15G19G22G25
  -1625791.79749  -1262597.65247  23320209.8564   23320207.4154
      2463.5214
  -1182192.52749   -905424.89147  22328933.5054   22328928.6144
      1618.2044
   1342328.18449   1021699.82848  20914566.3104   20914561.5564
     -2032.2704
   2825652.66849   2152903.62547  23120606.8414   23120604.8494
     -4139.3434
   2015071.65249   1531938.36747  23520973.4354   23520968.0094
     -2988.9914
   1867638.30949   1418387.42647  22682305.3564   22682299.7824
     -2719.3214
  -1712845.53949  -1310689.03947  22638889.8964   22638886.8334
      2436.8914
 04  9  2 15 25 45.0010000  0  7G 1G11G14G15G19G22G25
  -1662706.23849  -1291362.13347  23313185.3964   23313182.6574
      2460.9634
  -1206382.69149   -924274.36747  22324330.2554   22324325.5404
      1612.6784
   1372882.72349   1045508.54748  20920380.4584   20920376.2824
     -2036.9694
   2887780.37949   2201314.78947  23132429.5134   23132427.0174
     -4141.8474
   2059959.44549   1566915.84847  23529515.1774   23529509.8564
     -2992.5204
   1908449.64149   1450188.45747  22690071.3254   22690065.8454
     -2720.7554
  -1749347.94549  -1339132.45347  22631943.8564   22631941.1184
      2433.4944
 04  9  2 15 26  0.0010000  0  7G 1G11G14G15G19G22G25
  -1699580.94949  -1320095.66847  23306168.7314   23306165.9074
      2458.3144
  -1230488.49249   -943058.10947  22319743.0284   22319738.1104
      1607.0534
   1403508.61349   1069372.87148  20926208.5834   20926203.8604
     -2041.7264
   2949946.58649   2249755.93047  23144259.0134   23144256.9234
     -4144.4144
   2104900.89849   1601935.15247  23538066.9424   23538062.0484
     -2996.0974
   1949283.70749   1482007.19147  22697842.0524   22697836.2164
     -2722.2714
  -1785798.01249  -1367535.07847  22625007.7864   22625004.9154
      2430.0044
 04  9  2 15 26 15.0010000  0  7G 1G11G14G15G19G22G25
  -1736416.52049  -1348798.68747  23299158.9584   23299156.6774
      2455.7054
  -1254510.42649   -961776.50847  22315172.0364   22315167.1104
      1601.4624
   1434204.89149   1093292.03548  20932049.5994   20932045.2354
     -2046.4184
   3012150.30949   2298226.32447  23156095.8334   23156093.8064
     -4146.9154
   2149894.86349   1636995.35547  23546630.1924   23546624.1574
     -2999.5984
   1990139.85949   1513843.13747  22705616.5914   22705611.1384
     -2723.7434
  -1822196.13349  -1395897.23447  22618080.8334   22618078.3374
      2426.5414
 04  9  2 15 26 30.0010000  0  7G 1G11G14G15G19G22G25
  -1773210.95749  -1377469.65247  23292156.8494   23292154.6654
      2452.9634
  -1278446.40649   -980427.91847  22310616.8494   22310611.9234
      1595.7324
   1464973.21549   1117267.34048  20937905.0054   20937900.4894
     -2051.2224
   3074393.09449   2346727.14847  23167940.6774   23167938.5014
     -4149.5194
   2194943.02349   1672097.79347  23555202.3884   23555197.2714
     -3003.2114
   2031019.77349   1545697.59847  22713395.8804   22713390.2394
     -2725.3284
  -1858540.15249  -1424217.21947  22611165.3644   22611162.0054
      2422.9354
 04  9  2 15 26 45.0010000  0  7G 1G11G14G15G19G22G25
  -1809962.87549  -1406107.48847  23285163.2164   23285160.7984
      2450.1284
  -1302294.71549   -999011.02047  22306078.3964   22306073.8174
      1589.8874
   1495814.67249   1141299.63748  20943773.8494   20943769.5094
     -2056.0974
   3136675.88749   2395259.15247  23179792.8334   23179790.3924
     -4152.1864
   2240046.16849   1707243.06647  23563785.1064   23563779.8884
     -3006.8764
   2071924.71549   1577571.57047  22721179.8724   22721174.6384
     -2726.9964
  -1894828.42249  -1452493.76247  22604259.4504   22604256.8844
      2419.2184
 04  9  2 15 27  0.0010000  0  7G 1G11G14G15G19G22G25
  -1846671.86349  -1434711.89147  23278178.0214   23278175.1464
      2447.2664
  -1326054.90249  -1017525.45347  22301557.2554   22301552.7824
      1584.0134
   1526729.36349   1165388.99648  20949656.6144   20949652.2554
     -2060.9794
   3198998.75049   2443822.38347  23191652.3804   23191650.1614
     -4154.8584
   2285204.26649   1742431.16047  23572378.0994   23572372.9784
     -3010.5404
   2112855.07049   1609465.31647  22728968.8884   22728963.2204
     -2728.6904
  -1931060.17249  -1480726.26247  22597364.7784   22597362.0284
      2415.4504
 04  9  2 15 27 15.0010000  0  7G 1G11G14G15G19G22G25
  -1883336.11349  -1463281.41847  23271201.0284   23271198.4384
      2444.2834
  -1349725.05549  -1035969.73047  22297053.0994   22297048.3134
      1578.0104
   1557718.64849   1189536.48448  20955553.6224   20955549.0014
     -2065.9524
   3261363.07849   2492417.91847  23203519.6694   23203517.5564
     -4157.6224
   2330418.63749   1777663.11347  23580982.6064   23580977.5714
     -3014.2914
   2153812.41849   1641380.11347  22736762.3174   22736757.1344
     -2730.4904
  -1967233.53549  -1508913.27747  22590481.4744   22590478.0484
      2411.5584
 04  9  2 15 27 30.0010000  0  7G 1G11G14G15G19G22G25
  -1919955.90649  -1491816.30547  23264232.2314   23264229.9154
      2441.3204
  -1373305.23449  -1054343.89547  22292565.7394   22292560.9894
      1572.0124
   1588781.80549   1213741.52748  20961464.7554   20961460.2944
     -2070.8774
   3323768.19549   2541045.23047  23215395.3724   23215392.5244
     -4160.3414
   2375688.36749   1812938.19947  23589596.9814   23589591.5794
     -3017.9824
   2194796.34449   1673315.62947  22744561.7394   22744555.7984
     -2732.2624
  -2003348.68449  -1537054.93447  22583608.8964   22583605.3604
      2407.6774
 04  9  2 15 27 45.0010000  0  7G 1G11G14G15G19G22G25
  -1956533.09049  -1520318.00847  23257272.3334   23257269.3964
      2438.4794
  -1396797.27749  -1072649.38747  22288095.7164   22288090.8724
      1566.1364
   1619916.66849   1238002.45348  20967389.9894   20967385.1464
     -2075.6584
   3386211.85549   2589702.59047  23227277.5754   23227275.5674
     -4162.9114
   2421011.15249   1848254.63347  23598221.6144   23598216.7634
     -3021.5194
   2235804.74249   1705270.20747  22752365.2084   22752359.7354
     -2733.8934
  -2039407.23849  -1565152.49647  22576747.5834   22576743.8104
      2403.9044
 04  9  2 15 28  0.0010000  0  7G 1G11G14G15G19G22G25
  -1993064.27349  -1548783.86347  23250320.4974   23250317.4974
      2435.4124
  -1420197.75849  -1090883.52747  22283642.7314   22283637.8214
      1560.0324
   1651126.32449   1262321.66048  20973328.7084   20973323.9504
     -2080.6444
   3448697.03149   2638392.28947  23239169.1064   23239166.5174
     -4165.6784
   2466389.84049   1883614.60947  23606856.8104   23606851.8604
     -3025.2464
   2276840.89549   1737246.41447  22760173.7634   22760168.6304
     -2735.7434
  -2075405.50849  -1593203.09047  22569897.0754   22569893.8494
      2399.8854
 04  9  2 15 28 15.0010000  0  7G 1G11G14G15G19G22G25
  -2029549.50449  -1577213.90647  23243377.2084   23243374.5244
      2432.3494
  -1443506.57049  -1109046.23847  22279206.6924   22279202.8844
      1553.9214
   1682410.31349   1286698.78548  20979281.6854   20979277.1064
     -2085.5994
   3511223.16049   2687113.90647  23251067.3644   23251064.8604
     -4168.4094
   2511823.93049   1919017.77347  23615502.5054   23615497.4704
     -3028.9394
   2317904.53549   1769244.03947  22767988.5444   22767983.1144
     -2737.5764
  -2111343.42649  -1621206.62947  22563058.3644   22563055.2594
      2395.8614
 04  9  2 15 28 30.0010000  0  7G 1G11G14G15G19G22G25
  -2065986.96149  -1605606.72747  23236443.7944   23236441.3214
      2429.1644
  -1466721.70749  -1127135.95747  22274788.8724   22274784.8534
      1547.6764
   1713770.13749   1311135.00448  20985249.3414   20985244.5754
     -2090.6554
   3573791.73449   2735868.60947  23262973.4814   23262970.9624
     -4171.2384
   2557314.86749   1954465.22347  23624158.6614   23624154.4814
     -3032.7294
   2358997.50449   1801264.52047  22775807.7714   22775802.6884
     -2739.5314
  -2147218.98449  -1649161.59047  22556231.2004   22556228.2744
      2391.7044
 04  9  2 15 28 45.0010000  0  7G 1G11G14G15G19G22G25
  -2102376.90649  -1633962.52347  23229518.9194   23229516.0484
      2425.9964
  -1489843.33249  -1145152.80147  22270388.9034   22270384.7784
      1541.4424
   1745205.02349   1335629.71948  20991231.3564   20991226.8414
     -2095.6594
   3636402.05549   2784655.82447  23274887.7314   23274884.8684
     -4174.0214
   2602861.68049   1989956.20747  23632826.4424   23632821.9784
     -3036.4544
   2400119.30149   1833307.45347  22783632.9744   22783627.4464
     -2741.4534
  -2183032.37949  -1677068.10247  22549416.0524   22549413.0834
      2387.5604
 04  9  2 15 29  0.0010000  0  7G 1G11G14G15G19G22G25
  -2138719.66449  -1662281.54747  23222603.3804   23222600.2124
      2422.8514
  -1512871.62549  -1163096.92647  22266006.9814   22266002.8064
      1535.2204
   1776714.40649   1360182.47348  20997227.4424   20997223.1464
     -2100.6264
   3699053.50849   2833475.11347  23286810.2554   23286807.7434
     -4176.7644
   2648463.60249   2025490.14547  23641504.5834   23641499.2784
     -3040.1284
   2441269.52049   1865372.53947  22791463.6774   22791458.3494
     -2743.3484
  -2218783.70749  -1704926.25447  22542612.9664   22542610.0754
      2383.4224
 04  9  2 15 29 15.0010000  0  7G 1G11G14G15G19G22G25
  -2175015.19549  -1690563.77347  23215696.0994   23215693.3254
      2419.7024
  -1535806.48049  -1180968.24647  22261642.4814   22261638.3374
      1528.9904
   1808298.01649   1384793.06648  21003237.4274   21003232.7474
     -2105.5744
   3761745.68049   2882326.12147  23298739.5604   23298737.7124
     -4179.4784
   2694120.18449   2061066.67247  23650192.1224   23650187.5134
     -3043.7724
   2482447.89549   1897459.55947  22799299.5914   22799294.5054
     -2745.2254
  -2254472.57049  -1732735.72747  22535821.6534   22535818.7004
      2379.2584
 04  9  2 15 29 30.0010000  0  7G 1G11G14G15G19G22G25
  -2211261.23849  -1718807.43447  23208798.5524   23208795.8724
      2416.4034
  -1558645.35249  -1198764.76247  22257296.5444   22257292.7944
      1522.5914
   1839957.72749   1409462.96148  21009262.4584   21009257.6854
     -2110.6474
   3824480.37949   2931210.25047  23310677.8414   23310675.7594
     -4182.3134
   2739833.20749   2096687.17247  23658891.3254   23658886.4894
     -3047.5354
   2523656.71949   1929570.31347  22807141.4504   22807136.4354
     -2747.2554
  -2290096.58249  -1760494.68047  22529042.4974   22529039.1964
      2374.9344
 04  9  2 15 29 45.0010000  0  7G 1G11G14G15G19G22G25
  -2247459.13749  -1747013.57447  23201910.0604   23201907.7004
      2413.1934
  -1581389.58249  -1216487.54747  22252968.6384   22252964.1774
      1516.2824
   1871691.80149   1434190.80548  21015300.8414   21015296.2284
     -2115.6054
   3887255.88749   2980126.19147  23322623.4114   23322622.0134
     -4185.0344
   2785600.79349   2132350.19147  23667600.3024   23667595.6144
     -3051.1724
   2564894.35949   1961703.51647  22814988.9034   22814983.8534
     -2749.1764
  -2325656.90649  -1788204.00847  22522275.6614   22522271.9814
      2370.6884
 04  9  2 15 30  0.0010000  0  7G 1G11G14G15G19G22G25
  -2283607.96949  -1775181.49247  23195030.8964   23195028.5404
      2409.9224
  -1604038.02349  -1234135.68047  22248658.5214   22248654.1654
      1509.8964
   1903500.78949   1458977.03148  21021353.8804   21021349.3104
     -2120.5994
   3950072.74249   3029074.34447  23334577.0284   23334575.9384
     -4187.7904
   2831423.35249   2168056.03947  23676320.2314   23676315.7824
     -3054.8374
   2606161.69949   1993859.85947  22822841.7394   22822836.5134
     -2751.1564
  -2361152.34449  -1815862.76647  22515520.8964   22515517.6814
      2366.3634
 04  9  2 15 30 15.0010000  0  7G 1G11G14G15G19G22G25
  -2319708.17249  -1803311.49247  23188161.5754   23188158.8064
      2406.6804
  -1626591.03949  -1251709.46147  22244367.4034   22244362.4114
      1503.5344
   1935383.97749   1483821.06648  21027421.4194   21027416.6734
     -2125.5464
   4012930.06649   3078054.02347  23346538.4664   23346537.2434
     -4190.4884
   2877299.96949   2203804.02047  23685049.6924   23685045.8964
     -3058.4414
   2647458.15249   2026038.89147  22830700.4114   22830694.9974
     -2753.0974
  -2396583.09849  -1843471.12547  22508778.7004   22508775.7124
      2362.0504
 04  9  2 15 30 30.0010000  0  7G 1G11G14G15G19G22G25
  -2355758.43749  -1831402.59447  23181301.5284   23181299.1264
      2403.3514
  -1649047.18449  -1269207.75847  22240094.0834   22240089.5134
      1497.0764
   1967342.33649   1508723.66848  21033502.5674   21033498.1264
     -2130.5574
   4075828.76649   3127065.95347  23358507.9034   23358506.2554
     -4193.2474
   2923231.50849   2239594.78947  23693790.6144   23693786.0874
     -3062.1034
   2688784.90649   2058241.52747  22838564.3494   22838559.0754
     -2755.1174
  -2431947.82849  -1871028.03547  22502049.0754   22502045.6614
      2357.6494
 04  9  2 15 30 45.0010000  0  7G 1G11G14G15G19G22G25
  -2391759.72349  -1859455.51247  23174450.9194   23174448.4234
      2400.0864
  -1671407.07049  -1286631.04347  22235838.8254   22235834.3764
      1490.6594
   1999374.44949   1533683.75448  21039598.0444   21039593.8134
     -2135.4744
   4138767.53549   3176109.10247  23370484.9114   23370483.2314
     -4195.9184
   2969216.44549   2275427.17647  23702542.0284   23702537.2634
     -3065.6624
   2730140.78549   2090466.86747  22846434.2164   22846428.9744
     -2757.0594
  -2467247.16849  -1898534.00047  22495331.7944   22495328.4624
      2353.2894
 04  9  2 15 31  0.0010000  0  7G 1G11G14G15G19G22G25
  -2427711.40649  -1887469.80547  23167609.6464   23167606.7004
      2396.7794
  -1693670.24249  -1303978.97747  22231602.4034   22231597.9784
      1484.2114
   2031480.46549   1558701.41848  21045707.6534   21045703.2784
     -2140.4014
   4201746.57049   3225183.63347  23382469.2944   23382467.7514
     -4198.6024
   3015254.81349   2311301.19147  23711302.5834   23711297.5754
     -3069.2244
   2771526.28549   2122715.30147  22854310.0604   22854304.6574
     -2759.0334
  -2502480.45749  -1925988.49647  22488627.5444   22488623.8534
      2348.8864
 04  9  2 15 31 15.0010000  0  7G 1G11G14G15G19G22G25
  -2463613.43049  -1915445.40247  23160777.6924   23160774.8174
      2393.4684
  -1715836.59449  -1321251.45347  22227384.5284   22227379.8334
      1477.7574
   2063660.31349   1583776.62147  21051831.2714   21051826.6774
     -2145.3234
   4264765.45749   3274289.20747  23394461.5134   23394459.7824
     -4201.2594
   3061346.35249   2347216.64547  23720073.1774   23720068.5954
     -3072.7694
   2812941.30549   2154986.71147  22862190.5134   22862185.8924
     -2761.0014
  -2537647.19949  -1953391.13747  22481935.5994   22481931.9664
      2344.4494
 04  9  2 15 31 30.0010000  0  7G 1G11G14G15G19G22G25
  -2499464.90249  -1943381.60547  23153955.4744   23153952.7944
      2390.0984
  -1737904.85549  -1338447.50447  22223185.0444   22223180.4504
      1471.2174
   2095914.61749   1608909.83648  21057969.0214   21057964.5794
     -2150.2874
   4327824.78549   3323426.29747  23406461.4114   23406459.9354
     -4203.9554
   3107491.31649   2383173.73447  23728854.4114   23728849.7004
     -3076.3314
   2854386.52749   2187281.67647  22870077.5054   22870072.6424
     -2763.0154
  -2572746.29349  -1980741.05547  22475255.9194   22475252.9194
      2339.9404
 04  9  2 15 31 45.0010000  0  7G 1G11G14G15G19G22G25
  -2535264.62149  -1971277.47747  23147143.3414   23147140.1264
      2386.6484
  -1759873.96149  -1355566.28547  22219004.2634   22218999.5244
      1464.6074
   2128243.96149   1634101.52748  21064120.8964   21064116.7784
     -2155.2904
   4390925.21949   3372595.41447  23418468.9034   23418467.6224
     -4206.6964
   3153690.34449   2419172.94547  23737645.9504   23737641.4314
     -3079.9354
   2895863.01649   2219600.99647  22877970.1854   22877964.5994
     -2765.0994
  -2607776.53149  -2008037.31647  22468590.1064   22468586.6494
      2335.3494
 04  9  2 15 32  0.0010000  0  7G 1G11G14G15G19G22G25
  -2571014.05949  -1999134.17647  23140340.3884   23140337.3684
      2383.2964
  -1781745.11749  -1372608.75447  22214842.5604   22214837.7824
      1458.0774
   2160646.59849   1659350.32448  21070287.3884   21070282.9464
     -2160.1764
   4454064.98849   3421795.18047  23430483.9354   23430482.8024
     -4209.3184
   3199941.58249   2455212.83647  23746447.6694   23746442.6464
     -3083.4164
   2937369.30549   2251943.53547  22885869.0364   22885863.8374
     -2767.0864
  -2642739.18049  -2035280.92247  22461936.6384   22461933.6924
      2330.8434
 04  9  2 15 32 15.0010000  0  7G 1G11G14G15G19G22G25
  -2606714.41049  -2026952.64547  23133546.8254   23133543.5094
      2380.0234
  -1803519.30149  -1389575.64147  22210699.1224   22210694.2514
      1451.6124
   2193120.93049   1684654.99648  21076466.8494   21076462.6774
     -2164.9554
   4517242.48049   3471024.35247  23442506.0444   23442505.1064
     -4211.8334
   3246243.33249   2491292.09047  23755258.5134   23755253.5244
     -3086.7834
   2978903.92249   2284308.15247  22893772.3334   22893767.3334
     -2768.9744
  -2677635.23049  -2062472.62947  22455296.3254   22455292.8134
      2326.4034
 04  9  2 15 32 30.0010000  0  7G 1G11G14G15G19G22G25
  -2642363.52749  -2054731.16847  23126762.8724   23126759.7124
      2376.6084
  -1825194.28149  -1406465.23847  22206574.1694   22206569.8564
      1444.9994
   2225668.83649   1710016.99648  21082660.4114   21082656.1034
     -2169.8604
   4580459.45749   3520284.27747  23454536.4194   23454534.7864
     -4214.4654
   3292597.12549   2527411.89847  23764079.2634   23764074.2354
     -3090.2534
   3020468.92649   2316696.44147  22901681.9894   22901677.4274
     -2771.0004
  -2712462.24649  -2089610.53947  22448669.1144   22448665.3684
      2321.8014
 04  9  2 15 32 45.0010000  0  7G 1G11G14G15G19G22G25
  -2677960.81649  -2082469.30947  23119989.1854   23119985.7314
      2373.1534
  -1846769.34049  -1423276.96947  22202468.9114   22202464.3174
      1438.3374
   2258290.54349   1735436.50048  21088868.2784   21088863.9234
     -2174.7804
   4643716.22349   3569575.22347  23466573.3494   23466571.9194
     -4217.1184
   3339003.20349   2563572.45747  23772910.0284   23772905.1694
     -3093.7394
   3062064.78149   2349108.77047  22909597.3254   22909592.5564
     -2773.0574
  -2747219.32849  -2116693.96947  22442054.1534   22442051.3764
      2317.1394
 04  9  2 15 33  0.0010000  0  7G 1G11G14G15G19G22G25
  -2713507.43749  -2110167.96147  23113224.2784   23113221.3454
      2369.7754
  -1868245.58649  -1440011.71547  22198381.9504   22198377.2044
      1431.7504
   2290984.48849   1760912.28948  21095089.7314   21095085.6104
     -2179.5964
   4707011.10949   3618895.86747  23478618.5674   23478616.2674
     -4219.6594
   3385459.96149   2599772.49247  23781750.0994   23781745.6814
     -3097.1174
   3103690.15649   2381544.10547  22917518.3964   22917513.3764
     -2775.0254
  -2781907.53549  -2143723.72347  22435453.7394   22435450.3764
      2312.5474
 04  9  2 15 33 15.0010000  0  7G 1G11G14G15G19G22G25
  -2749002.28549  -2137826.27347  23106469.8254   23106467.4974
      2366.3234
  -1889621.75049  -1456668.46547  22194314.2314   22194309.5364
      1425.0784
   2323751.44949   1786444.98048  21101325.0674   21101320.6464
     -2184.4644
   4770344.77349   3668246.73447  23490670.3024   23490667.9894
     -4222.2444
   3431967.75849   2636012.30947  23790600.3804   23790596.0094
     -3100.5204
   3145345.93849   2414003.13747  22925445.6064   22925440.3104
     -2777.0524
  -2816525.63749  -2170698.84447  22428866.1064   22428863.0794
      2307.8734
 04  9  2 15 33 30.0010000  0  7G 1G11G14G15G19G22G25
  -2784444.99649  -2165443.93747  23099725.2634   23099723.0134
      2362.8474
  -1910897.34849  -1473246.85547  22190265.4114   22190261.1884
      1418.3734
   2356591.45749   1812034.59448  21107574.2864   21107569.9274
     -2189.3344
   4833717.26249   3717627.85546  23502729.7314   23502727.4074
     -4224.8334
   3478526.60249   2672291.89547  23799460.5054   23799455.9544
     -3103.9234
   3187032.42649   2446486.10247  22933378.1614   22933372.6574
     -2779.0994
  -2851073.07449  -2197618.90647  22422291.8174   22422288.6774
      2303.1634
 04  9  2 15 33 45.0010000  0  7G 1G11G14G15G19G22G25
  -2819834.52049  -2193020.17247  23092990.5754   23092988.3884
      2359.3024
  -1932071.20349  -1489745.96147  22186236.3174   22186231.5874
      1411.5904
   2389505.14549   1837681.60548  21113837.7244   21113833.0564
     -2194.2464
   4897129.12949   3767039.66846  23514796.5674   23514794.7944
     -4227.4584
   3525136.98449   2708611.64147  23808330.7004   23808325.2314
     -3107.3594
   3228750.53949   2478993.70747  22941316.4894   22941312.2244
     -2781.2084
  -2885548.64149  -2224482.96547  22415731.7474   22415728.4234
      2298.3714
 04  9  2 15 34  0.0010000  0  7G 1G11G14G15G19G22G25
  -2855172.73849  -2220556.42647  23086266.4114   23086263.6344
      2355.8814
  -1953145.12949  -1506167.20747  22182226.3024   22182221.7944
      1404.9284
   2422490.30949   1863384.32848  21120114.2784   21120109.9704
     -2199.0114
   4960578.18849   3816480.44947  23526870.6694   23526868.2084
     -4229.9374
   3571796.62949   2744969.77747  23817209.1144   23817204.2944
     -3110.6434
   3270498.21149   2511524.33647  22949261.2554   22949256.0954
     -2783.1784
  -2919953.87149  -2251292.21547  22409184.2634   22409181.4194
      2293.6824
 04  9  2 15 34 15.0010000  0  7G 1G11G14G15G19G22G25
  -2890458.95749  -2248052.15247  23079550.9814   23079549.2004
      2352.4154
  -1974118.36749  -1522509.98447  22178235.0914   22178230.7474
      1398.2164
   2455547.33649   1889143.03948  21126404.9354   21126400.5634
     -2203.8024
   5024064.61349   3865950.35946  23538951.5604   23538949.5404
     -4232.4284
   3618505.63349   2781366.37547  23826098.1534   23826092.5324
     -3113.9344
   3312276.05549   2544078.48047  22957211.6224   22957206.2474
     -2785.1904
  -2954288.04749  -2278046.09047  22402650.6614   22402647.7714
      2288.9454
 04  9  2 15 34 30.0010000  0  7G 1G11G14G15G19G22G25
  -2925692.60949  -2275506.94147  23072846.3494   23072843.9544
      2348.9104
  -1994990.02749  -1538773.61747  22174263.4424   22174258.8534
      1391.4444
   2488676.50849   1914957.97348  21132709.3414   21132704.8294
     -2208.6114
   5087588.64849   3915449.56346  23551040.1224   23551037.6344
     -4234.9364
   3665264.19549   2817801.59847  23834995.4354   23834990.4934
     -3117.2374
   3354084.47749   2576656.45747  22965166.9114   22965162.1184
     -2787.2284
  -2988550.30549  -2304743.93747  22396131.0364   22396127.9664
      2284.1514
 04  9  2 15 34 45.0010000  0  7G 1G11G14G15G19G22G25
  -2960869.83249  -2302917.73847  23066152.7634   23066150.2044
      2345.1484
  -2015756.31249  -1554955.14147  22170311.5914   22170307.2244
      1384.4194
   2521881.22349   1940831.76648  21139027.8254   21139023.5284
     -2213.6484
   5151153.70349   3964980.73846  23563136.2554   23563133.3134
     -4237.6704
   3712075.50049   2854277.91847  23843903.7554   23843898.1654
     -3120.7544
   3395927.09049   2609261.07447  22973129.7244   22973124.4424
     -2789.5084
  -3022736.60549  -2331382.59047  22389625.4814   22389622.1694
      2279.0874
 04  9  2 15 35  0.0010000  0  7G 1G11G14G15G19G22G25
  -2995992.21149  -2330285.82447  23059469.2864   23059466.5754
      2341.4924
  -2036418.54749  -1571055.58647  22166379.5834   22166374.9934
      1377.4824
   2555159.52349   1966762.90648  21145360.4814   21145356.1344
     -2218.5534
   5214757.89849   4014542.39847  23575239.8334   23575237.3884
     -4240.2804
   3758937.57049   2890793.80547  23852821.1464   23852815.7164
     -3124.1384
   3437802.20749   2641891.01647  22981098.4034   22981092.9894
     -2791.6744
  -3056848.28149  -2357963.10547  22383133.9894   22383130.7674
      2274.1124
 04  9  2 15 35 15.0010000  0  7G 1G11G14G15G19G22G25
  -3031059.25849  -2357610.77347  23052795.9504   23052793.2634
      2337.8034
  -2056976.26649  -1587074.59047  22162467.7474   22162463.1854
      1370.5154
   2588511.60249   1992751.53548  21151707.2164   21151703.0794
     -2223.4724
   5278401.32849   4064134.63746  23587350.4974   23587348.4274
     -4242.8954
   3805850.39849   2927349.21147  23861747.9354   23861742.9744
     -3127.5224
   3479710.25449   2674546.62547  22989073.3024   22989067.5564
     -2793.8704
  -3090884.65649  -2384484.93447  22376657.4974   22376654.3174
      2269.0924
 04  9  2 15 35 30.0010000  0  7G 1G11G14G15G19G22G25
  -3066067.99249  -2384890.28947  23046134.1534   23046131.0754
      2333.9164
  -2077426.23449  -1603009.62947  22158576.3254   22158571.7784
      1363.3314
   2621940.01649   2018799.63748  21158068.5754   21158064.2004
     -2228.5614
   5342086.45749   4113759.35546  23599469.4274   23599467.3964
     -4245.6754
   3852816.39149   2963946.05147  23870686.1464   23870680.4034
     -3131.0664
   3521654.05949   2707230.09047  22997054.5054   22997049.4934
     -2796.2544
  -3124842.59849  -2410945.65247  22370195.0914   22370192.2124
      2263.8634
 04  9  2 15 35 45.0010000  0  7G 1G11G14G15G19G22G25
  -3101020.27749  -2412125.82447  23039482.7314   23039480.0714
      2330.1524
  -2097770.12949  -1618862.01247  22154705.0214   22154700.1304
      1356.2604
   2655442.61749   2044905.55148  21164444.0364   21164439.6064
     -2233.5074
   5405811.16449   4163414.91847  23611595.6534   23611593.9464
     -4248.3144
   3899833.29349   3000582.56646  23879632.8334   23879627.3994
     -3134.4604
   3563631.60249   2739939.84047  23005042.5674   23005037.8454
     -2798.5034
  -3158723.72349  -2437346.51247  22363748.3024   22363744.8884
      2258.7424
 04  9  2 15 36  0.0010000  0  7G 1G11G14G15G19G22G25
  -3135916.44149  -2439317.63747  23032842.6694   23032839.0634
      2326.4114
  -2118008.18749  -1634631.93447  22150853.4034   22150849.0634
      1349.2044
   2689018.80949   2071068.80548  21170833.3334   21170828.6494
     -2238.4134
   5469574.62549   4213100.68446  23623730.4194   23623727.7044
     -4250.8974
   3946900.20349   3037258.04747  23888588.9034   23888583.8644
     -3137.7944
   3605642.42649   2772675.52047  23013037.4194   23013032.0954
     -2800.7224
  -3192528.12149  -2463687.58647  22357314.9744   22357311.7354
      2253.6274
 04  9  2 15 36 15.0010000  0  7G 1G11G14G15G19G22G25
  -3170755.56649  -2466465.00047  23026212.6144   23026209.0524
      2322.6084
  -2138139.46549  -1650318.64547  22147022.7784   22147018.2474
      1342.0854
   2722668.96149   2097289.69148  21177236.4744   21177231.9194
     -2243.3434
   5533377.39149   4262817.09847  23635870.8414   23635869.3684
     -4253.5184
   3994017.55149   3073972.84446  23897554.9114   23897550.0214
     -3141.1574
   3647687.30549   2805437.75047  23021037.8724   23021032.5014
     -2802.9924
  -3226254.84849  -2489968.12947  22350897.0834   22350893.9664
      2248.4484
 04  9  2 15 36 30.0010000  0  7G 1G11G14G15G19G22G25
  -3205537.12949  -2493567.51647  23019593.9974   23019590.5564
      2318.7714
  -2158163.20349  -1665921.55547  22143212.8174   22143207.8844
      1334.9164
   2756393.32049   2123568.41048  21183653.8644   21183649.6034
     -2248.2914
   5597219.55549   4312564.19147  23648018.9974   23648018.0604
     -4256.1444
   4041185.34949   3110726.98447  23906531.1774   23906525.6854
     -3144.5204
   3689766.67649   2838226.85547  23029045.2714   23029040.1064
     -2805.2914
  -3259903.14849  -2516187.55947  22344494.2474   22344490.5564
      2243.2204
 04  9  2 15 36 45.0010000  0  7G 1G11G14G15G19G22G25
  -3240260.18749  -2520624.44547  23012986.3414   23012983.1774
      2314.8714
  -2178078.43449  -1681439.91447  22139422.6854   22139418.4154
      1327.6824
   2790192.60949   2149905.50848  21190085.8884   21190081.5094
     -2253.2864
   5661101.77349   4362342.49247  23660176.5284   23660174.9664
     -4258.8154
   4088404.15649   3147520.79347  23915516.9664   23915511.3174
     -3147.9204
   3731881.32049   2871043.44147  23037059.5914   23037054.1534
     -2807.6434
  -3293471.85249  -2542344.97747  22338105.9114   22338103.1924
      2237.9144
 04  9  2 15 37  0.0010000  0  7G 1G11G14G15G19G22G25
  -3274925.30949  -2547636.23047  23006389.9034   23006386.8254
      2311.0084
  -2197885.55949  -1696874.03547  22135653.6304   22135649.4234
      1320.4754
   2824065.85549   2176300.23848  21196531.9584   21196527.4584
     -2258.2164
   5725022.93049   4412151.13347  23672340.1464   23672338.7674
     -4261.4104
   4135672.78949   3184353.47747  23924511.5914   23924506.7554
     -3151.2424
   3774030.51649   2903886.94947  23045080.2164   23045074.9974
     -2809.9464
  -3326961.19949  -2568440.55547  22331732.9664   22331729.9114
      2232.6234
 04  9  2 15 37 15.0010000  0  7G 1G11G14G15G19G22G25
  -3309532.74649  -2574603.04347  22999804.1304   22999801.3334
      2307.1634
  -2217584.78549  -1712224.08647  22131904.9974   22131900.4154
      1313.2824
   2858012.39849   2202752.07448  21202991.5364   21202987.2634
     -2263.1034
   5788982.44549   4461989.68447  23684511.1774   23684509.4584
     -4263.9684
   4182990.53549   3221224.41447  23933515.8254   23933510.4814
     -3154.5164
   3816213.84849   2936757.05147  23053107.8564   23053102.6694
     -2812.2224
  -3360371.30949  -2594474.39147  22325375.0994   22325372.3454
      2227.3414
 04  9  2 15 37 30.0010000  0  7G 1G11G14G15G19G22G25
  -3344080.16049  -2601523.09447  22993229.8174   22993227.0484
      2303.1614
  -2237173.57849  -1727488.08247  22128177.5914   22128172.9624
      1305.9204
   2892034.23849   2229262.59448  21209465.9664   21209461.4584
     -2268.1234
   5852982.28549   4511859.63747  23696689.1924   23696687.8804
     -4266.6564
   4230359.21549   3258135.04746  23942529.5054   23942524.3644
     -3157.9124
   3858433.60549   2969655.54347  23061141.7864   23061136.9034
     -2814.6514
  -3393699.74649  -2620444.57847  22319033.2244   22319030.2634
      2221.8964
 04  9  2 15 37 45.0010000  0  7G 1G11G14G15G19G22G25
  -3378568.69549  -2628397.27347  22986666.8804   22986664.5054
      2299.2364
  -2256653.00049  -1742666.84847  22124470.7004   22124465.9894
      1298.6284
   2926129.88749   2255830.62548  21215953.9584   21215949.2474
     -2273.0434
   5917021.00449   4561759.89547  23708876.0524   23708874.1614
     -4269.2484
   4277777.17649   3295084.07447  23951552.6384   23951547.7124
     -3161.1974
   3900688.44549   3002581.37947  23069182.0914   23069177.1064
     -2816.9894
  -3426947.45749  -2646351.87947  22312706.4814   22312703.5834
      2216.5144
 04  9  2 15 38  0.0010000  0  7G 1G11G14G15G19G22G25
  -3412997.42649  -2655224.85247  22980115.7474   22980113.3534
      2295.2494
  -2276021.95349  -1757759.54347  22120784.7554   22120780.2554
      1291.2644
   2960300.01649   2282456.68848  21222456.2714   21222451.7354
     -2278.0094
   5981099.06349   4611690.79347  23721069.5054   23721068.0994
     -4271.8714
   4325244.93449   3332071.90647  23960586.3254   23960580.7394
     -3164.5174
   3942979.20349   3035535.19547  23077230.2244   23077225.1964
     -2819.3844
  -3460113.28149  -2672195.35947  22306395.2244   22306392.0134
      2211.0554
 04  9  2 15 38 15.0010000  0  7G 1G11G14G15G19G22G25
  -3447367.02049  -2682006.33247  22973575.2004   22973572.6814
      2291.3064
  -2295280.97749  -1772766.57847  22117119.7244   22117115.1494
      1283.9354
   2994543.60549   2309140.00047  21228972.6534   21228968.0404
     -2282.9064
   6045215.34449   4661651.48447  23733271.0134   23733269.2394
     -4274.4194
   4372761.30549   3369097.61347  23969627.4194   23969623.1814
     -3167.7584
   3985305.03549   3068516.33647  23085284.9034   23085279.8024
     -2821.7224
  -3493197.58249  -2697975.32447  22300099.2244   22300096.2284
      2205.6204
 04  9  2 15 38 30.0010000  0  7G 1G11G14G15G19G22G25
  -3481677.87549  -2708742.05547  22967046.1144   22967044.0754
      2287.3904
  -2314430.36349  -1787688.17647  22113475.7474   22113471.5244
      1276.6264
   3028859.93049   2335879.98048  21235502.9274   21235498.3534
     -2287.7554
   6109369.06649   4711641.34846  23745478.9814   23745477.2944
     -4276.9154
   4420325.33249   3406160.46147  23978679.0134   23978674.6854
     -3170.9354
   4027665.50449   3101524.47747  23093345.1534   23093340.3294
     -2824.0314
  -3526200.64149  -2723691.97347  22293819.1854   22293816.1734
      2200.2044
 04  9  2 15 38 45.0010000  0  7G 1G11G14G15G19G22G25
  -3515930.72749  -2735432.57447  22960527.9274   22960525.4784
      2283.5234
  -2333470.73849  -1802524.82847  22109852.7474   22109848.1574
      1269.3584
   3063247.79349   2362675.70747  21242046.4114   21242042.3684
     -2292.5244
   6173559.10249   4761659.50846  23757693.8334   23757692.2244
     -4279.3364
   4467935.90249   3443259.58647  23987739.3494   23987734.3644
     -3174.0384
   4070059.65649   3134558.86747  23101412.5754   23101407.6064
     -2826.2774
  -3559122.88349  -2749345.65247  22287554.1774   22287550.9194
      2194.8164
 04  9  2 15 39  0.0010000  0  7G 1G11G14G15G19G22G25
  -3550124.50049  -2762077.06247  22954021.1064   22954017.9784
      2279.5854
  -2352400.93749  -1817275.63747  22106250.5054   22106246.1574
      1262.0134
   3097708.00049   2389527.80547  21248604.4504   21248600.0484
     -2297.3474
   6237786.19549   4811706.54346  23769915.7714   23769914.3994
     -4281.8064
   4515593.56349   3480395.38347  23996808.3024   23996803.0214
     -3177.1774
   4112488.35549   3167620.16847  23109486.6924   23109481.8564
     -2828.5804
  -3591963.18049  -2774935.48047  22281305.0134   22281301.8104
      2189.3534
 04  9  2 15 39 15.0010000  0  7G 1G11G14G15G19G22G25
  -3584259.18749  -2788675.49247  22947525.6614   22947523.1734
      2275.6464
  -2371220.81249  -1831940.48047  22102668.8884   22102664.4664
      1254.6584
   3132240.16449   2416435.97747  21255175.5054   21255171.2714
     -2302.1444
   6302049.91049   4861782.12146  23782144.7634   23782143.4424
     -4284.2484
   4563297.81649   3517567.48447  24005885.4814   24005881.1694
     -3180.2844
   4154951.62549   3200708.40247  23117567.1924   23117562.6384
     -2830.8854
  -3624721.32049  -2800461.28947  22275070.9194   22275067.9744
      2183.8764
 04  9  2 15 39 30.0010000  0  7G 1G11G14G15G19G22G25
  -3618336.16049  -2815228.96147  22941040.8104   22941038.1264
      2271.7984
  -2389931.62149  -1846520.32447  22099108.6224   22099104.1654
      1247.3874
   3166842.62949   2443398.92647  21261760.2714   21261755.7284
     -2306.8314
   6366348.53149   4911884.90246  23794380.3494   23794379.0874
     -4286.5754
   4611046.81649   3554774.46547  24014972.4424   24014967.9234
     -3183.2674
   4197448.02749   3233822.45747  23125654.0134   23125648.9194
     -2833.0934
  -3657398.48849  -2825924.01247  22268853.0834   22268849.6224
      2178.4784
 04  9  2 15 39 45.0010000  0  7G 1G11G14G15G19G22G25
  -3652353.08649  -2841735.62947  22934567.2004   22934565.0604
      2267.7954
  -2408530.98049  -1861013.33647  22095569.3884   22095564.5604
      1239.9574
   3201517.30149   2470418.14547  21268358.3254   21268353.9154
     -2311.6454
   6430683.78149   4962016.20747  23806623.8104   23806622.0714
     -4289.0174
   4658842.35249   3592017.70747  24024067.8174   24024063.0834
     -3186.3694
   4239979.59449   3266963.91047  23133747.4114   23133742.8534
     -2835.4384
  -3689992.20749  -2851321.69547  22262650.3964   22262647.4974
      2172.9154
 04  9  2 15 40  0.0010000  0  7G 1G11G14G15G19G22G25
  -3686311.30549  -2868196.56647  22928105.4894   22928102.9584
      2263.8814
  -2427019.96149  -1875420.33647  22092050.9814   22092046.1224
      1232.5994
   3236262.55149   2497492.35948  21274970.3334   21274966.0994
     -2316.3504
   6495054.20749   5012174.93447  23818873.1464   23818871.2284
     -4291.3624
   4706682.64549   3629295.82047  24033171.2164   24033166.9854
     -3189.3534
   4282544.94949   3300131.71147  23141847.8024   23141842.4814
     -2837.6904
  -3722503.35949  -2876655.04747  22256463.6774   22256460.6104
      2167.4104
 04  9  2 15 40 15.0010000  0  7G 1G11G14G15G19G22G25
  -3720209.84049  -2894610.98447  22921654.9114   22921652.6884
      2259.9024
  -2445397.43749  -1889740.45747  22088553.7004   22088549.1034
      1225.1654
   3271079.09849   2524622.12548  21281595.8724   21281591.1614
     -2321.1034
   6559460.39849   5062361.53146  23831129.1534   23831127.3964
     -4293.7464
   4754568.09849   3666609.12947  24042283.8724   24042279.1264
     -3192.3644
   4325144.94949   3333326.50047  23149954.1144   23149949.5954
     -2840.0004
  -3754930.96549  -2901923.28947  22250293.2554   22250289.7314
      2161.8404
 04  9  2 15 40 30.0010000  0  7G 1G11G14G15G19G22G25
  -3754049.39849  -2920979.44947  22915215.1694   22915212.8724
      2255.9714
  -2463664.21549  -1903974.31247  22085077.5914   22085073.1854
      1217.7854
   3305965.79349   2551806.55547  21288234.2474   21288229.9234
     -2325.7804
   6623901.13349   5112575.03547  23843392.0754   23843390.0994
     -4296.0494
   4802497.53949   3703956.71947  24051404.0914   24051399.8494
     -3195.2964
   4367778.68449   3366547.55547  23158067.2714   23158062.1344
     -2842.2494
  -3787275.63349  -2927126.91047  22244138.3174   22244134.9274
      2156.3114
 04  9  2 15 40 45.0010000  0  7G 1G11G14G15G19G22G25
  -3787830.50049  -2947302.37547  22908786.8804   22908784.2864
      2252.0734
  -2481820.67249  -1918122.19547  22081622.5444   22081618.0714
      1210.4304
   3340921.74649   2579044.94548  21294886.3024   21294881.6694
     -2330.3974
   6688375.51649   5162814.75047  23855660.9274   23855659.2864
     -4298.2924
   4850469.96949   3741337.78147  24060532.7554   24060528.7714
     -3198.1624
   4410445.45349   3399794.37947  23166186.2244   23166181.3174
     -2844.4514
  -3819537.54749  -2952266.05147  22237998.6304   22237995.5834
      2150.7944
 04  9  2 15 41  0.0010000  0  7G 1G11G14G15G19G22G25
  -3821550.84449  -2973577.96147  22902370.6304   22902367.8964
      2248.0234
  -2499864.15249  -1932182.05947  22078188.5604   22078184.4814
      1202.8994
   3375949.04749   2606338.94147  21301552.1224   21301547.0014
     -2335.1534
   6752885.41449   5213082.15647  23867936.4034   23867934.9354
     -4300.6604
   4898487.18449   3778753.74247  24069670.8644   24069666.2864
     -3201.1484
   4453147.43049   3433068.62147  23174312.7244   23174307.0284
     -2846.7984
  -3851714.28549  -2977338.81647  22231875.8414   22231872.5634
      2145.1164
 04  9  2 15 41 15.0010000  0  7G 1G11G14G15G19G22G25
  -3855210.43749  -2999806.20347  22895965.1854   22895962.5094
      2243.9734
  -2517794.69949  -1946153.90647  22074777.0604   22074772.3214
      1195.3704
   3411047.30149   2633688.22348  21308230.9194   21308226.3494
     -2339.8844
   6817430.53949   5263377.00447  23880219.0364   23880217.5794
     -4303.0084
   4946548.67649   3816204.21147  24078816.7554   24078811.8924
     -3204.0994
   4495884.56349   3466370.26647  23182444.9664   23182440.1574
     -2849.1424
  -3883805.63349  -3002345.04747  22225769.0134   22225765.6654
      2139.4234
 04  9  2 15 41 30.0010000  0  7G 1G11G14G15G19G22G25
  -3888810.07849  -3025987.73047  22889571.2474   22889568.6884
      2239.9764
  -2535613.03549  -1960038.32447  22071386.1384   22071381.5444
      1187.8894
   3446215.34449   2661091.88747  21314922.9974   21314918.7904
     -2344.5364
   6882009.62949   5313698.31346  23892508.1694   23892507.1384
     -4305.2734
   4994653.29749   3853688.29347  24087970.0994   24087965.9704
     -3206.9754
   4538655.87149   3499698.53147  23190584.2394   23190578.5054
     -2851.4214
  -3915812.17249  -3027285.19147  22219678.4034   22219675.2984
      2133.7694
 04  9  2 15 41 45.0010000  0  7G 1G11G14G15G19G22G25
  -3922349.06649  -3052121.98847  22883189.2314   22883186.4234
      2235.9334
  -2553318.37949  -1973834.69547  22068017.0754   22068012.2124
      1180.3564
   3481453.45749   2688550.14147  21321628.6464   21321624.3294
     -2349.2084
   6946623.04349   5364046.37946  23904803.9974   23904801.6494
     -4307.5614
   5042801.02749   3891205.98047  24097133.2314   24097128.2164
     -3209.8494
   4581461.93849   3533053.89547  23198729.4274   23198724.3174
     -2853.7384
  -3947733.02349  -3052158.57047  22213604.1384   22213600.4234
      2128.0574
 04  9  2 15 42  0.0010000  0  7G 1G11G14G15G19G22G25
  -3955827.77349  -3078209.28547  22876818.3104   22876815.7904
      2231.9144
  -2570910.87149  -1987543.13747  22064669.0914   22064664.3294
      1172.8334
   3516761.04349   2716062.53948  21328347.5364   21328342.8724
     -2353.8394
   7011270.02049   5414420.60546  23917105.6774   23917104.1464
     -4309.7984
   5090991.25849   3928756.77047  24106302.9974   24106298.5444
     -3212.6824
   4624302.27749   3566435.94947  23206882.2634   23206877.0214
     -2856.0234
  -3979568.42649  -3076965.36347  22207546.2004   22207542.8884
      2122.3604
 04  9  2 15 42 15.0010000  0  7G 1G11G14G15G19G22G25
  -3989245.03949  -3104248.69947  22870459.4114   22870456.5794
      2227.8184
  -2588389.31649  -2001162.71147  22061343.1854   22061338.3414
      1165.2304
   3552138.91449   2743629.70747  21335079.6464   21335075.4744
     -2358.5254
   7075951.34449   5464821.59846  23929414.1854   23929412.8174
     -4312.0884
   5139224.47749   3966341.05147  24115481.4504   24115477.2514
     -3215.5484
   4667177.89549   3599845.49647  23215041.1064   23215036.0524
     -2858.3744
  -4011316.91849  -3101704.43447  22201504.4274   22201501.0524
      2116.5664
 04  9  2 15 42 30.0010000  0  7G 1G11G14G15G19G22G25
  -4022601.91049  -3130241.05547  22864111.4424   22864109.0564
      2223.7914
  -2605754.60249  -2014694.10247  22058038.8414   22058033.7824
      1157.6864
   3587585.74249   2771250.60547  21341825.1924   21341820.3374
     -2363.1224
   7140665.56349   5515248.21546  23941728.7164   23941727.4194
     -4314.2814
   5187499.21149   4003957.69147  24124668.2554   24124663.4074
     -3218.3164
   4710087.72749   3633281.70747  23223206.4974   23223201.5714
     -2860.6554
  -4042979.39549  -3126376.47747  22195479.0674   22195475.7904
      2110.8324
 04  9  2 15 42 45.0010000  0  7G 1G11G14G15G19G22G25
  -4055895.62949  -3156184.19147  22857775.8644   22857773.5484
      2219.5814
  -2623003.75849  -2028135.00047  22054756.4894   22054751.5754
      1149.9444
   3623103.88749   2798927.07047  21348583.9194   21348579.3294
     -2367.8764
   7205415.01649   5565702.26246  23954050.0444   23954049.1854
     -4316.6304
   5235817.73849   4041608.46147  24133862.6304   24133858.1964
     -3221.2354
   4753034.35549   3666746.58647  23231378.8884   23231373.7634
     -2863.1094
  -4074552.91449  -3150979.20347  22189471.0914   22189467.6924
      2104.9014
 04  9  2 15 43  0.0010000  0  7G 1G11G14G15G19G22G25
  -4089127.35549  -3182079.03147  22851451.8174   22851449.5284
      2215.4484
  -2640137.89549  -2041486.27747  22051495.7864   22051491.1814
      1142.2764
   3658691.91049   2826657.98848  21355355.8174   21355351.5484
     -2372.5354
   7270198.13349   5616182.53946  23966378.2474   23966376.9974
     -4318.8744
   5284178.45749   4079292.09047  24143065.7864   24143060.8994
     -3224.0484
   4796016.49649   3700239.14547  23239558.2784   23239553.1694
     -2865.4764
  -4106038.36349  -3175513.29747  22183479.5604   22183476.6814
      2099.0304
 04  9  2 15 43 15.0010000  0  7G 1G11G14G15G19G22G25
  -4122297.07049  -3207925.54747  22845140.0134   22845137.5324
      2211.3144
  -2657156.97749  -2054747.89847  22048257.2314   22048252.4314
      1134.6054
   3694349.48449   2854443.10548  21362141.7394   21362136.8604
     -2377.1724
   7335014.65249   5666688.84846  23978712.3174   23978710.5674
     -4321.1014
   5332580.87149   4117008.20746  24152276.1534   24152271.5284
     -3226.8284
   4839034.08649   3733759.32847  23247743.9504   23247739.2674
     -2867.8394
  -4137435.55149  -3199978.61747  22177504.7164   22177501.9354
      2093.1464
 04  9  2 15 43 30.0010000  0  7G 1G11G14G15G19G22G25
  -4155406.14849  -3233724.81247  22838839.7864   22838837.0564
      2207.2724
  -2674062.18049  -2067920.78547  22045040.1694   22045035.5134
      1127.0144
   3730074.82049   2882281.02347  21368939.8414   21368935.1814
     -2381.6894
   7399862.71949   5717219.76646  23991052.1774   23991051.6184
     -4323.2044
   5381023.05549   4154755.33646  24161494.1144   24161490.0324
     -3229.4794
   4882085.53549   3767305.88747  23255936.5054   23255931.3844
     -2870.0974
  -4168745.80549  -3224376.19947  22171546.6064   22171543.6384
      2087.3504
 04  9  2 15 43 45.0010000  0  7G 1G11G14G15G19G22G25
  -4188452.49649  -3259475.20347  22832551.0834   22832548.6614
      2203.0904
  -2690851.35949  -2081003.26647  22041845.3644   22041840.6224
      1119.2794
   3765869.68049   2910173.10947  21375751.2314   21375746.8964
     -2386.3244
   7464744.06649   5767776.62546  24003398.9584   24003397.1654
     -4325.4234
   5429506.64149   4192534.73847  24170720.7634   24170715.7634
     -3232.2394
   4925172.85949   3800880.39847  23264135.6464   23264130.2984
     -2872.4884
  -4199966.60549  -3248704.07047  22165605.9354   22165602.4934
      2081.3874
 04  9  2 15 44  0.0010000  0  7G 1G11G14G15G19G22G25
  -4221437.01649  -3285177.40647  22826274.0674   22826271.6924
      2198.9684
  -2707525.31249  -2093995.96147  22038672.0524   22038667.8254
      1111.5974
   3801732.83649   2938118.42247  21382575.7554   21382571.3644
     -2390.8774
   7529657.43849   5818358.42646  24015751.5604   24015750.1494
     -4327.5584
   5478030.24649   4230345.30146  24179954.2084   24179949.4464
     -3234.9074
   4968294.96549   3834482.02047  23272341.2554   23272336.4504
     -2874.8074
  -4231098.83249  -3272962.93447  22159681.4744   22159677.9194
      2075.4824
 04  9  2 15 44 15.0010000  0  7G 1G11G14G15G19G22G25
  -4254360.47349  -3310832.03947  22820009.5754   22820006.5524
      2194.8974
  -2724084.68449  -2106899.37147  22035521.2164   22035516.7514
      1103.9584
   3837663.24649   2966116.12947  21389413.3644   21389409.0364
     -2395.3614
   7594601.60549   5868964.21546  24028110.0214   24028108.4704
     -4329.6114
   5526592.60549   4268186.06646  24189195.5754   24189190.2674
     -3237.4914
   5011451.10549   3868110.16447  23280553.8804   23280549.0674
     -2877.0764
  -4262142.92649  -3297153.11747  22153773.8174   22153770.1494
      2069.6064
 04  9  2 15 44 30.0010000  0  7G 1G11G14G15G19G22G25
  -4287221.57849  -3336438.09847  22813756.0524   22813753.2784
      2190.7404
  -2740527.94549  -2119712.30147  22032392.0604   22032387.6224
      1096.2174
   3873661.93849   2994167.05147  21396263.6464   21396259.1574
     -2399.9134
   7659577.55549   5919594.76646  24040474.4194   24040473.2594
     -4331.7304
   5575194.69549   4306057.80546  24198444.2314   24198439.4074
     -3240.1394
   5054642.32049   3901765.63747  23288773.1064   23288767.8254
     -2879.4144
  -4293097.44949  -3321273.51247  22147883.4034   22147879.7594
      2063.6354
 04  9  2 15 44 45.0010000  0  7G 1G11G14G15G19G22G25
  -4320022.42249  -3361997.19147  22807514.0214   22807511.5834
      2186.7234
  -2756857.09449  -2132436.30947  22029284.8104   22029280.4744
      1088.6104
   3909726.46149   3022269.26647  21403126.5834   21403121.9664
     -2404.3024
   7724582.78549   5970248.13746  24052844.7084   24052843.5634
     -4333.6824
   5623833.80149   4343958.37147  24207699.8804   24207695.0014
     -3242.6074
   5097866.50449   3935446.79347  23296998.1384   23296993.2984
     -2881.6124
  -4323964.33249  -3345325.60947  22142009.5214   22142006.1384
      2057.7924
 04  9  2 15 45  0.0010000  0  7G 1G11G14G15G19G22G25
  -4352761.49249  -3387508.14547  22801284.3494   22801281.5834
      2182.6054
  -2773070.60949  -2145070.22347  22026199.3254   22026194.9234
      1080.9014
   3945857.92249   3050423.64547  21410001.7634   21409997.5214
     -2408.7644
   7789618.45349   6020925.22746  24065220.9584   24065219.3604
     -4335.7114
   5672510.96949   4381888.59846  24216962.5754   24216958.0954
     -3245.1454
   5141125.00449   3969154.68047  23305230.1224   23305225.1854
     -2883.9004
  -4354741.92249  -3369308.13347  22136152.7084   22136148.9784
      2051.8394
 04  9  2 15 45 15.0010000  0  7G 1G11G14G15G19G22G25
  -4385438.59449  -3412970.80547  22795065.8724   22795063.2474
      2178.4734
  -2789168.31249  -2157613.89147  22023136.2084   22023131.6814
      1073.1804
   3982056.16849   3078630.05547  21416890.0284   21416885.7434
     -2413.2164
   7854684.27749   6071625.81346  24077602.4114   24077601.0994
     -4337.7224
   5721225.85549   4419848.21146  24226232.9974   24226228.0484
     -3247.6594
   5184417.79749   4002889.29347  23313468.6464   23313463.8104
     -2886.1864
  -4385429.90249  -3393220.82447  22130312.6534   22130309.5954
      2045.8654
 04  9  2 15 45 30.0010000  0  7G 1G11G14G15G19G22G25
  -4418054.74249  -3438385.97747  22788858.8564   22788856.5954
      2174.4104
  -2805150.88349  -2170067.84047  22020094.9894   22020090.2514
      1065.5054
   4018319.87949   3106887.48447  21423791.1534   21423786.6464
     -2417.5814
   7919778.89549   6122348.85246  24089989.7784   24089988.3374
     -4339.6414
   5769977.09049   4457836.15646  24235510.0134   24235504.9114
     -3250.0824
   5227743.84849   4036649.83647  23321713.6064   23321708.0484
     -2888.4034
  -4416028.94149  -3417064.21147  22124490.1304   22124486.7594
      2039.9364
 04  9  2 15 45 45.0010000  0  7G 1G11G14G15G19G22G25
  -4450608.41049  -3463752.45347  22782664.4664   22782662.0054
      2170.2454
  -2821016.71549  -2182430.83247  22017075.7474   22017071.0834
      1057.7224
   4054650.27049   3135196.87148  21430704.4194   21430700.1494
     -2422.0264
   7984903.41049   6173095.18046  24102382.2394   24102380.8994
     -4341.6344
   5818765.66049   4495853.21146  24244794.1614   24244788.7904
     -3252.5714
   5271104.57449   4070437.39847  23329964.1064   23329959.4234
     -2890.7154
  -4446537.30149  -3440836.94147  22118684.3884   22118681.2434
      2033.8914
 04  9  2 15 46  0.0010000  0  7G 1G11G14G15G19G22G25
  -4483100.26649  -3489070.76247  22776481.3104   22776479.1534
      2166.1244
  -2836766.49649  -2194703.38747  22014078.5834   22014074.0714
      1049.9854
   4091046.29349   3163557.39847  21437630.1464   21437626.1814
     -2426.4024
   8050056.80149   6223864.00446  24114780.6694   24114778.8884
     -4343.5594
   5867590.35249   4533898.39146  24254084.9814   24254080.4934
     -3254.9794
   5314499.15649   4104251.32847  23338222.1854   23338217.0564
     -2892.9724
  -4476955.52049  -3464539.43047  22112896.0524   22112893.0324
      2027.8814
 04  9  2 15 46 15.0010000  0  7G 1G11G14G15G19G22G25
  -4515530.35549  -3514340.95347  22770310.0604   22770307.9154
      2162.0064
  -2852399.96549  -2206885.31247  22011103.5914   22011099.2164
      1042.2314
   4127507.68049   3191968.86347  21444569.0284   21444564.4894
     -2430.7594
   8115238.69549   6274655.04346  24127184.6144   24127183.2284
     -4345.4604
   5916450.63749   4571971.30546  24263383.0054   24263378.2474
     -3257.3524
   5357927.41849   4138091.50447  23346486.2714   23346481.6384
     -2895.2174
  -4507283.42249  -3488171.54347  22107124.8884   22107121.6424
      2021.8604
 04  9  2 15 46 30.0010000  0  7G 1G11G14G15G19G22G25
  -4547898.32849  -3539562.72347  22764150.7394   22764148.2084
      2157.8654
  -2867916.68049  -2218976.25847  22008151.1534   22008146.4384
      1034.4484
   4164034.44549   3220431.26647  21451519.6694   21451515.4384
     -2435.1184
   8180449.11749   6325468.30546  24139594.1774   24139592.3604
     -4347.3614
   5965346.48849   4610071.92647  24272688.1924   24272682.7394
     -3259.7234
   5401389.64149   4171958.16047  23354757.7394   23354752.2944
     -2897.4824
  -4537520.47349  -3511732.85547  22101371.1064   22101368.1034
      2015.8034
 04  9  2 15 46 45.0010000  0  7G 1G11G14G15G19G22G25
  -4580204.36349  -3564736.24647  22758003.2554   22758000.7164
      2153.7364
  -2883316.74249  -2230976.32047  22005220.5914   22005215.5484
      1026.6714
   4200626.01649   3248944.16447  21458482.6924   21458478.5914
     -2439.4384
   8245687.39849   6376303.27346  24152008.9894   24152006.4664
     -4349.2194
   6014277.16049   4648199.69547  24281999.0134   24281994.4664
     -3262.0454
   5444885.39549   4205850.92647  23363033.9504   23363029.2904
     -2899.7174
  -4567666.66849  -3535223.37947  22095634.1534   22095631.4384
      2009.7464
 04  9  2 15 47  0.0010000  0  7G 1G11G14G15G19G22G25
  -4612447.50849  -3589860.75447  22751867.4584   22751864.7714
      2149.5434
  -2898599.06649  -2242884.62147  22002311.9744   22002307.3104
      1018.8224
   4237283.13749   3277508.14847  21465458.3414   21465454.3644
     -2443.8084
   8310954.25849   6427160.50046  24164428.4354   24164427.2244
     -4351.1244
   6063243.24649   4686355.05146  24291317.0364   24291313.0244
     -3264.4064
   5488415.74249   4239770.65247  23371317.7714   23371312.6464
     -2902.0234
  -4597720.82049  -3558642.18447  22089914.9354   22089912.0054
      2003.6104
 04  9  2 15 47 15.0010000  0  7G 1G11G14G15G19G22G25
  -4644628.98849  -3614937.23047  22745743.9584   22745740.8604
      2145.4324
  -2913764.96949  -2254702.21147  21999426.3024   21999421.6384
      1011.0604
   4274004.10949   3306121.88347  21472446.0364   21472442.1814
     -2448.0654
   8376247.88749   6478038.61346  24176853.1924   24176852.1464
     -4352.9094
   6112242.86749   4724536.53546  24300641.6614   24300637.3064
     -3266.6414
   5531979.10549   4273716.10547  23379607.5604   23379602.7044
     -2904.2244
  -4627684.05949  -3581990.14147  22084213.4424   22084209.8644
      1997.5494
 04  9  2 15 47 30.0010000  0  7G 1G11G14G15G19G22G25
  -4676749.88349  -3639966.49247  22739631.8644   22739628.5914
      2141.3934
  -2928815.34049  -2266429.77347  21996562.5524   21996557.7204
      1003.3584
   4310787.62949   3334784.35547  21479445.9744   21479441.8104
     -2452.2354
   8441567.07449   6528936.62946  24189282.6304   24189281.7864
     -4354.6124
   6161274.76649   4762743.17647  24309971.7714   24309967.7354
     -3268.7934
   5575574.36349   4307686.40647  23387903.7084   23387898.6424
     -2906.3514
  -4657557.24249  -3605267.94147  22078528.7784   22078525.1224
      1991.5464
 04  9  2 15 47 45.0010000  0  7G 1G11G14G15G19G22G25
  -4708806.30949  -3664945.52347  22733531.0284   22733527.7434
      2137.0954
  -2943746.07449  -2278064.11747  21993721.1854   21993716.4354
       995.3824
   4347637.26649   3363498.34447  21486457.6534   21486453.8804
     -2456.6424
   8506915.25049   6579857.21546  24201717.5524   24201717.2554
     -4356.5454
   6210342.16449   4800977.47747  24319309.0054   24319304.4854
     -3271.1604
   5619205.35949   4341684.56347  23396206.4274   23396201.4114
     -2908.7334
  -4687336.31649  -3628472.40647  22072861.9744   22072858.2434
      1985.2724
 04  9  2 15 48  0.0010000  0  7G 1G11G14G15G19G22G25
  -4740799.18749  -3689875.03547  22727442.5914   22727440.1884
      2132.8594
  -2958558.06649  -2289605.93047  21990902.7004   21990897.4354
       987.4664
   4384551.67649   3392262.81347  21493482.5284   21493478.6814
     -2460.9614
   8572290.92249   6630799.25446  24214158.6144   24214157.8134
     -4358.3784
   6259443.57449   4839238.28147  24328652.7784   24328648.2284
     -3273.4274
   5662870.98449   4375709.70347  23404515.6774   23404510.3844
     -2911.0424
  -4717021.99249  -3651604.08247  22067213.2714   22067209.6494
      1979.0454
 04  9  2 15 48 15.0010000  0  7G 1G11G14G15G19G22G25
  -4772729.76249  -3714756.00447  22721366.7864   22721363.6814
      2128.7054
  -2973252.50449  -2301056.14547  21988106.4584   21988101.6344
       979.6294
   4421529.37949   3421076.59447  21500519.2474   21500515.2084
     -2465.1804
   8637692.60949   6681761.55546  24226605.0444   24226603.4784
     -4360.1124
   6308577.23049   4877524.21147  24338002.8174   24337998.1924
     -3275.5774
   5706569.93849   4409760.82047  23412831.1064   23412825.8374
     -2913.2644
  -4746615.27349  -3674663.77347  22061581.2944   22061577.9934
      1972.8854
 04  9  2 15 48 30.0010000  0  7G 1G11G14G15G19G22G25
  -4804596.40649  -3739587.14147  22715302.8024   22715299.8134
      2124.4434
  -2987827.48049  -2312413.27047  21985332.9034   21985328.3214
       971.6654
   4458571.80149   3449940.80947  21507568.4114   21507564.0714
     -2469.4954
   8703121.63749   6732745.16046  24239055.0834   24239054.4354
     -4361.9354
   6357744.50049   4915836.34047  24347359.2004   24347354.5994
     -3277.8184
   5750303.73849   4443839.08247  23421153.5284   23421148.5174
     -2915.5874
  -4776114.25449  -3697649.95747  22055967.8174   22055964.9854
      1966.5994
 04  9  2 15 48 45.0010000  0  7G 1G11G14G15G19G22G25
  -4836401.56249  -3764370.38347  22709250.4354   22709248.0634
      2120.3444
  -3002285.44549  -2323679.22347  21982581.5674   21982577.2044
       963.8644
   4495676.04349   3478853.18847  21514629.0214   21514624.6964
     -2473.6164
   8768575.05149   6783747.77346  24251510.2944   24251509.9194
     -4363.5614
   6406942.38749   4954172.31347  24356721.0444   24356716.7244
     -3279.8594
   5794069.77049   4477942.46147  23429481.7864   23429476.8644
     -2917.7354
  -4805521.41049  -3720564.60947  22050371.7864   22050368.4934
      1960.4774
 04  9  2 15 49  0.0010000  0  7G 1G11G14G15G19G22G25
  -4868143.39149  -3789104.26247  22703210.3804   22703207.6104
      2116.1224
  -3016624.37949  -2334852.42647  21979852.6064   21979848.0054
       955.9294
   4532843.65649   3507814.95347  21521701.6854   21521697.7864
     -2477.8414
   8834054.31649   6834770.51246  24263970.8564   24263969.9234
     -4365.2844
   6456172.29349   4992533.24647  24366088.9354   24366084.9704
     -3281.9944
   5837869.69949   4512072.26247  23437816.4584   23437811.8374
     -2919.9954
  -4834834.46549  -3743405.93747  22044793.9424   22044790.6854
      1954.2044
 04  9  2 15 49 15.0010000  0  7G 1G11G14G15G19G22G25
  -4899821.44949  -3813788.44947  22697182.2004   22697179.2784
      2111.8714
  -3030843.83649  -2345932.52347  21977147.3494   21977142.6964
       947.9644
   4570074.73849   3536826.17647  21528786.9274   21528782.6224
     -2482.0724
   8899559.61349   6885813.52746  24276435.9664   24276435.2244
     -4367.0204
   6505434.05949   5030919.00047  24375463.0604   24375459.0754
     -3284.1184
   5881703.96549   4546228.80147  23446157.6774   23446153.3454
     -2922.2844
  -4864052.97349  -3766173.59047  22039233.8494   22039230.5994
      1947.9014
 04  9  2 15 49 30.0010000  0  7G 1G11G14G15G19G22G25
  -4931436.35949  -3838423.43047  22691165.8104   22691162.7124
      2107.6614
  -3044944.25449  -2356919.86347  21974463.7314   21974459.1654
       940.0284
   4607368.43849   3565886.19147  21535883.1464   21535878.8764
     -2486.2474
   8965089.84449   6936875.95746  24288906.4894   24288905.1774
     -4368.6824
   6554726.77049   5069328.85547  24384843.5834   24384839.3684
     -3286.1814
   5925571.80949   4580411.50847  23454505.7864   23454500.6854
     -2924.5234
  -4893177.39149  -3788867.93447  22033691.7394   22033688.5524
      1941.6284
 04  9  2 15 49 45.0010000  0  7G 1G11G14G15G19G22G25
  -4962987.96549  -3863009.08247  22685161.4744   22685159.2354
      2103.4404
  -3058925.36749  -2367814.23847  21971803.4274   21971798.7434
       932.0744
   4644724.52749   3594994.82047  21542992.4194   21542987.7044
     -2490.4064
   9030644.82849   6987957.68446  24301380.3254   24301379.4704
     -4370.3324
   6604049.99249   5107762.52047  24394229.1534   24394224.6814
     -3288.2154
   5969473.25849   4614620.40647  23462860.2004   23462854.9704
     -2926.7634
  -4922207.35249  -3811488.66447  22028167.3334   22028164.2824
      1935.3314
 04  9  2 15 50  0.0010000  0  7G 1G11G14G15G19G22G25
  -4994476.13349  -3887545.30147  22679169.6304   22679167.1694
      2099.2114
  -3072787.01649  -2378615.52747  21969165.3644   21969160.7634
       924.1104
   4682142.77049   3624151.87947  21550112.4034   21550108.2594
     -2494.5494
   9096224.31649   7039058.52346  24313860.7634   24313859.2984
     -4371.9664
   6653403.30549   5146219.59447  24403620.9504   24403616.6344
     -3290.2214
   6013408.34849   4648855.52047  23471221.0364   23471216.0484
     -2929.0064
  -4951142.51249  -3834035.52747  22022661.4354   22022657.8724
      1929.0114
 04  9  2 15 50 15.0010000  0  6G 1G11G14G19G22G25
  -5025899.92249  -3912031.36347  22673189.8414   22673187.4584
      2094.9194
  -3086528.16849  -2389322.91847  21966550.9664   21966545.9154
       916.0774
   4719623.82449   3653357.88747  21557244.8254   21557240.8454
     -2498.7374
   6702787.42249   5184700.69147  24413018.9194   24413014.1184
     -3292.2744
   6057377.85949   4683117.45347  23479587.7714   23479582.8604
     -2931.3014
  -4979981.64549  -3856507.56647  22017173.2714   22017170.1064
      1922.6094
 04  9  2 15 50 30.0010000  0  6G 1G11G14G19G22G25
  -5057260.91849  -3936468.48847  22667222.4114   22667219.5014
      2090.7334
  -3100150.31649  -2399937.58647  21963958.4504   21963953.7824
       908.1434
   4757165.73049   3682611.31348  21564389.0284   21564384.3924
     -2502.7944
   6752200.07049   5223204.02747  24422421.4814   24422417.6614
     -3294.1774
   6101380.08649   4717404.89147  23487961.4194   23487956.3334
     -2933.4824
  -5008726.22749  -3878905.92247  22011703.6384   22011700.2044
      1916.3054
 04  9  2 15 50 45.0010000  0  6G 1G11G14G19G22G25
  -5088558.27749  -3960856.03547  22661266.6304   22661263.6104
      2086.4914
  -3113652.39549  -2410458.68447  21961389.0604   21961384.5284
       900.1394
   4794769.09849   3711912.62147  21571544.5364   21571540.2514
     -2506.8914
   6801641.79749   5261730.00446  24431829.6854   24431825.5794
     -3296.1154
   6145415.79749   4751718.40647  23496340.2634   23496335.8534
     -2935.7144
  -5037375.17249  -3901229.76247  22006251.3644   22006248.1854
      1909.9304
 04  9  2 15 51  0.0010000  0  6G 1G11G14G19G22G25
  -5119789.89849  -3985192.35547  22655323.4194   22655320.4544
      2082.1084
  -3127032.34449  -2420884.62147  21958842.9814   21958838.4894
       891.9974
   4832435.71149   3741263.21547  21578712.4504   21578707.8924
     -2511.1084
   6851114.02049   5300279.77046  24441244.0134   24441240.2864
     -3298.1484
   6189487.07049   4786059.62947  23504726.7474   23504722.6464
     -2938.0854
  -5065926.28549  -3923477.36347  22000818.1774   22000814.9934
      1903.4084
 04  9  2 15 51 15.0010000  0  6G 1G11G14G19G22G25
  -5150956.21149  -4009477.78147  22649392.6224   22649390.1614
      2077.7544
  -3140290.42249  -2431215.59447  21956320.2714   21956315.2204
       883.8724
   4870164.82849   3770662.51647  21585891.6464   21585887.7204
     -2515.2744
   6900616.06649   5338852.73846  24450663.7084   24450659.9384
     -3300.1364
   6233593.28549   4820428.06347  23513120.2554   23513115.7084
     -2940.4144
  -5094379.87149  -3945648.96947  21995404.3494   21995400.8724
      1896.9064
 04  9  2 15 51 30.0010000  0  6G 1G11G14G19G22G25
  -5182056.70749  -4033711.92647  22643474.1854   22643471.4274
      2073.3664
  -3153425.98849  -2441451.10947  21953820.4274   21953816.0994
       875.7044
   4907956.67649   3800110.69947  21593083.8334   21593079.1654
     -2519.4574
   6950147.88349   5377448.90646  24460089.7004   24460085.0244
     -3302.1214
   6277734.83649   4854824.03947  23521520.5524   23521515.4584
     -2942.7704
  -5122735.21949  -3967744.03147  21990008.3724   21990004.8454
      1890.3574
 04  9  2 15 51 45.0010000  0  6G 1G11G14G19G22G25
  -5213092.41049  -4057895.58247  22637568.5524   22637565.5794
      2069.0474
  -3166439.95349  -2451591.86347  21951343.7864   21951339.1854
       867.5984
   4945809.84449   3829606.66847  21600286.8024   21600282.3294
     -2523.5454
   6999707.85249   5416067.06346  24469521.4034   24469516.1614
     -3303.9984
   6321910.53149   4889246.64847  23529926.9504   23529921.7714
     -2945.0464
  -5150992.98849  -3989763.06247  21984630.8804   21984627.2674
      1883.8514
 04  9  2 15 52  0.0010000  0  6G 1G11G14G19G22G25
  -5244059.42649  -4082025.71147  22631675.6854   22631673.0564
      2064.4684
  -3179328.44949  -2461634.85247  21948891.2714   21948886.7904
       859.2334
   4983728.01249   3859153.28147  21607502.5054   21607498.0674
     -2527.8784
   7049299.50449   5454709.86746  24478957.5674   24478952.9114
     -3306.1104
   6366124.18049   4923698.81347  23538340.1854   23538335.9274
     -2947.5774
  -5179149.08249  -4011702.85547  21979273.1774   21979269.1224
      1877.0734
 04  9  2 15 52 15.0010000  0  6G20G 1G11G14G22G25
    -92432.45759    -67464.48056  24511123.0444   24511118.4704

  -5274958.44949  -4106102.85947  22625795.6384   22625792.8374
      2059.9354
  -3192091.92249  -2471580.41447  21946462.3884   21946457.9584
       850.8984
   5021710.18849   3888749.76647  21614729.9664   21614726.0174
     -2532.1454
   6410375.05949   4958179.98047  23546760.8804   23546755.8254
     -2950.0594
  -5207204.11749  -4033563.91047  21973934.0444   21973930.6534
      1870.3364
 04  9  2 15 52 30.0010000  0  6G20G 1G11G14G22G25
   -131160.72349    -97642.37546  24503753.1534   24503749.0214
      2581.8844
  -5305793.44949  -4130130.12147  22619927.9114   22619925.0484
      2055.6674
  -3204734.37149  -2481431.68047  21944056.9584   21944052.2394
       842.8304
   5059752.02749   3918392.75047  21621968.9424   21621965.0284
     -2536.1234
   6454658.98049   4992686.89547  23555187.7784   23555183.0284
     -2952.2614
  -5235161.94149  -4055349.21147  21968613.9744   21968610.2984
      1863.8554
 04  9  2 15 52 45.0010000  0  6G20G 1G11G14G22G25
   -169888.34849   -127819.74246  24496383.4894   24496379.1774
      2581.8424
  -5336563.10949  -4154106.46147  22614073.1304   22614070.0674
      2051.3114
  -3217254.28549  -2491187.45347  21941674.3964   21941669.9424
       834.6614
   5097854.43449   3948082.92247  21629219.7864   21629215.8564
     -2540.1604
   6498977.11349   5027220.47347  23563621.6774   23563616.5714
     -2954.5424
  -5263021.04349  -4077057.59447  21963312.1224   21963309.1264
      1857.2734
 04  9  2 15 53  0.0010000  0  6G20G 1G11G14G22G25
   -208615.56249   -157996.80546  24489013.6694   24489009.5484
      2581.8144
  -5367267.81249  -4178032.19547  22608229.8724   22608227.1064
      2046.9804
  -3229652.02749  -2500848.04347  21939315.0674   21939310.7744
       826.5164
   5136016.84449   3977819.85547  21636481.8024   21636478.0094
     -2544.1614
   6543329.16049   5061780.49247  23572061.3024   23572056.4194
     -2956.8034
  -5290781.59849  -4098689.18047  21958029.9274   21958026.4424
      1850.7044
 04  9  2 15 53 15.0010000  0  6G20G 1G11G14G22G25
   -247342.80549   -188173.86746  24481644.5914   24481640.0564
      2581.8164
  -5397907.93049  -4201907.60247  22602399.1534   22602396.3684
      2042.6744
  -3241927.91849  -2510413.67247  21936979.1384   21936974.4894
       818.3934
   5174238.59449   4007603.02347  21643754.9584   21643751.2474
     -2548.1174
   6587714.55949   5096366.48447  23580507.6694   23580502.9154
     -2959.0274
  -5318443.81249  -4120244.14147  21952765.8334   21952762.7714
      1844.1484
 04  9  2 15 53 30.0010000  0  6G20G 1G11G14G22G25
   -286066.37549   -218348.09846  24474275.8564   24474271.4384
      2581.5714
  -5428479.80149  -4225729.82847  22596581.5444   22596578.9784
      2038.1254
  -3254078.09449  -2519881.35547  21934666.8804   21934662.1184
       810.0124
   5212522.94549   4037434.97747  21651040.4664   21651036.5054
     -2552.2904
   6632136.84849   5130981.23047  23588960.5444   23588956.6534
     -2961.4864
  -5346003.91849  -4141719.53147  21947521.0994   21947518.1654
      1837.3404
 04  9  2 15 53 45.0010000  0  6G20G 1G11G14G22G25
   -324786.85949   -248519.91446  24466907.1464   24466902.8534
      2581.3664
  -5458984.02349  -4249499.34047  22590776.9354   22590773.9074
      2033.6154
  -3266103.08649  -2529251.47747  21932378.7244   21932373.9894
       801.6664
   5250869.09849   4067315.07847  21658337.4974   21658333.6464
     -2556.4104
   6676595.39149   5165624.22747  23597420.6854   23597416.1464
     -2963.9034
  -5373462.07449  -4163115.47747  21942296.1854   21942292.8374
      1830.5444
 04  9  2 15 54  0.0010000  0  6G20G 1G11G14G22G25
   -363505.02349   -278689.89146  24459540.0994   24459535.6964
      2581.2114
  -5489421.44949  -4273216.80147  22584984.5524   22584981.6034
      2029.1624
  -3278003.60949  -2538524.62547  21930114.1064   21930109.3454
       793.3684
   5289275.81349   4097242.37547  21665646.1534   21665642.0484
     -2560.4484
   6721089.18049   5200294.68447  23605888.2714   23605883.6464
     -2966.2534
  -5400819.03949  -4184432.57847  21937090.3104   21937087.1574
      1823.7984
 04  9  2 15 54 15.0010000  0  6G20G 1G11G14G22G25
   -402219.94149   -308857.35246  24452172.4274   24452168.3724
      2580.9954
  -5519791.10249  -4296881.45347  22579205.5444   22579202.4814
      2024.6434
  -3289778.64149  -2547699.97747  21927873.6534   21927868.7314
       785.0024
   5327743.84849   4127217.44947  21672966.4194   21672962.3534
     -2564.5364
   6765619.08249   5234993.27747  23614361.8254   23614356.6144
     -2968.6604
  -5428073.72749  -4205669.98447  21931904.0134   21931900.4544
      1816.9794
 04  9  2 15 54 30.0010000  0  6G20G 1G11G14G22G25
   -440932.68449   -339023.10946  24444805.7634   24444801.0914
      2580.8494
  -5550094.14549  -4320494.19947  22573438.9194   22573435.9624
      2020.2034
  -3301429.25049  -2556778.37947  21925656.2714   21925651.5284
       776.7074
   5366271.73449   4157239.16847  21680297.9814   21680293.9234
     -2568.5264
   6810183.85549   5269719.05147  23622842.2244   23622836.8454
     -2970.9854
  -5455227.12549  -4226828.45747  21926736.9034   21926732.9464
      1810.2274
 04  9  2 15 54 45.0010000  0  6G20G 1G11G14G22G25
   -479641.56649   -369185.87946  24437439.4354   24437435.6424
      2580.5924
  -5580328.91449  -4344053.74247  22567685.2314   22567682.7824
      2015.6514
  -3312953.63349  -2565758.42247  21923463.2864   21923458.6854
       768.2924
   5404860.71149   4187308.49647  21687641.5054   21687637.0364
     -2572.5984
   6854784.94949   5304473.13747  23631329.3644   23631324.0954
     -2973.4064
  -5482277.35249  -4247906.55547  21921589.2244   21921585.5794
      1803.3484
 04  9  2 15 55  0.0010000  0  6G20G 1G11G14G22G25
   -518345.85949   -399345.06646  24430074.3644   24430070.5244
      2580.2864
  -5610494.71949  -4367559.54747  22561945.0284   22561942.5834
      2011.0544
  -3324350.98049  -2574639.47347  21921294.6854   21921290.0134
       759.8234
   5443511.30949   4217425.82047  21694996.1464   21694991.7984
     -2576.7074
   6899423.03949   5339256.02047  23639823.8024   23639819.3214
     -2975.8734
  -5509223.53949  -4268903.58247  21916461.7314   21916457.9974
      1796.4124
 04  9  2 15 55 15.0010000  0  6G20G 1G11G14G22G25
   -557046.73049   -429501.58246  24422709.6924   24422705.8254
      2580.0584
  -5640592.69549  -4391012.51247  22556217.4814   22556214.5754
      2006.5324
  -3335622.33649  -2583422.35247  21919149.6774   21919145.0714
       751.4244
   5482222.05149   4247590.02747  21702362.7554   21702358.2594
     -2580.7164
   6944096.75849   5374066.69547  23648325.2084   23648319.8414
     -2978.2484
  -5536066.68449  -4289820.31247  21911353.7944   21911350.3254
      1789.5434
 04  9  2 15 55 30.0010000  0  6G20G 1G11G14G22G25
   -595744.77349   -459655.88346  24415345.7244   24415342.4464
      2579.8704
  -5670623.46549  -4414413.10547  22550502.7944   22550500.3024
      2002.0514
  -3346768.38749  -2592107.59047  21917028.7944   21917024.2204
       743.0704
   5520992.00449   4277800.36347  21709740.2944   21709736.2124
     -2584.6644
   6988805.52749   5408904.68047  23656833.1224   23656827.7904
     -2980.5854
  -5562807.14549  -4310657.02747  21906264.8964   21906261.6574
      1782.6974
 04  9  2 15 55 45.0010000  0  6G20G 1G11G14G22G25
   -634438.30149   -489806.68746  24407982.6144   24407978.9854
      2579.5684
  -5700585.34849  -4437760.00847  22544801.4194   22544798.5444
      1997.4594
  -3357787.22749  -2600693.70347  21914932.2164   21914927.3374
       734.5894
   5559822.52049   4308057.89547  21717129.4114   21717125.2244
     -2588.7014
   7033550.83249   5443771.12947  23665348.2164   23665342.6924
     -2983.0204
  -5589443.00449  -4331412.23047  21901196.1774   21901193.0794
      1775.7244
 04  9  2 15 56  0.0010000  0  6G20G 1G11G14G22G25
   -673127.24249   -519953.91846  24400620.2164   24400616.5794
      2579.2634
  -5730478.36349  -4461053.26247  22539113.0674   22539110.0714
      1992.8684
  -3368678.68449  -2609180.56247  21912859.3804   21912854.5874
       726.0974
   5598713.37949   4338362.44547  21724530.0524   21724525.9074
     -2592.7244
   7078332.67649   5478666.04347  23673869.4664   23673864.3564
     -2985.4564
  -5615974.11749  -4352085.81247  21896147.6064   21896144.5914
      1768.7414
 04  9  2 15 56 15.0010000  0  6G20G 1G11G14G22G25
   -711811.88349   -550097.80146  24393258.9114   24393254.9154
      2578.9764
  -5760302.85249  -4484293.10947  22533437.8964   22533434.8604
      1988.2994
  -3379443.16449  -2617568.46947  21910811.0674   21910806.2864
       717.6324
   5637663.91849   4368713.50447  21731941.9974   21731937.9464
     -2596.7034
   7123150.53949   5513589.02347  23682397.8104   23682393.0674
     -2987.8584
  -5642400.80149  -4372678.01247  21891118.5994   21891115.7284
      1761.7794
 04  9  2 15 56 30.0010000  0  6G20G 1G11G14G22G25
   -750492.04349   -580238.18046  24385898.1384   24385894.1034
      2578.6774
  -5790058.82849  -4507479.58247  22527775.3024   22527772.4274
      1983.7324
  -3390080.43049  -2625857.25847  21908786.3494   21908782.0794
       709.1514
   5676673.81349   4399110.80947  21739365.2864   21739361.2674
     -2600.6604
   7168004.39149   5548540.03947  23690933.5524   23690928.9424
     -2990.2574
  -5668722.77349  -4393188.63347  21886109.7714   21886107.0134
      1754.7984
 04  9  2 15 56 45.0010000  0  6G20G 1G11G14G22G25
   -789166.30949   -610373.96546  24378538.0604   24378534.6574
      2578.2844
  -5819744.72749  -4530611.43747  22522125.9814   22522123.5954
      1979.0604
  -3400588.99249  -2634045.75847  21906787.3174   21906782.4154
       700.5714
   5715744.25449   4429555.28547  21746800.5834   21746796.2784
     -2604.6964
   7212895.67249   5583520.24647  23699476.2164   23699470.5954
     -2992.7524
  -5694938.29349  -4413616.29747  21881121.2714   21881118.2434
      1747.7014
 04  9  2 15 57  0.0010000  0  6G20G 1G11G14G22G25
   -827834.46949   -640504.96546  24371179.4814   24371176.8964
      2577.8774
  -5849360.38749  -4553688.55947  22516490.3254   22516487.6734
      1974.3774
  -3410968.57449  -2642133.74647  21904811.7634   21904807.0794
       691.9724
   5754875.12149   4460046.85547  21754247.1694   21754243.0564
     -2608.7244
   7257824.28549   5618529.55147  23708026.0284   23708020.3764
     -2995.2414
  -5721047.15649  -4433960.85947  21876152.5834   21876149.2284
      1740.5914
 04  9  2 15 57 15.0010000  0  6G20G 1G11G14G22G25
   -866498.02049   -670632.39546  24363822.7314   24363819.3764
      2577.5704
  -5878907.28949  -4576712.09847  22510867.5834   22510864.9664
      1969.7934
  -3421220.61349  -2650122.34847  21902860.8174   21902856.4974
       683.4694
   5794064.57849   4490584.08647  21761704.3104   21761700.4664
     -2612.6304
   7302788.76649   5653566.79347  23716582.4424   23716577.5914
     -2997.6324
  -5747050.62549  -4454223.29747  21871204.5524   21871200.7474
      1733.5654
 04  9  2 15 57 30.0010000  0  6G20G 1G11G14G22G25
   -905156.93749   -700756.23446  24356465.9664   24356462.6774
      2577.2614
  -5908385.42649  -4599682.06647  22505258.1144   22505255.4744
      1965.2094
  -3431344.95349  -2658011.45347  21900934.3414   21900929.6924
       674.9564
   5833312.48849   4521166.85947  21769172.8964   21769168.8804
     -2616.5274
   7347788.92649   5688631.82447  23725145.7394   23725140.9074
     -3000.0114
  -5772948.33249  -4474403.32847  21866276.4354   21866272.4784
      1726.5144
 04  9  2 15 57 45.0010000  0  6G20G 1G11G14G22G25
   -943811.01249   -730876.27346  24349110.6384   24349107.0444
      2576.9384
  -5937794.63349  -4622598.32047  22499661.7004   22499659.0874
      1960.6144
  -3441341.44149  -2665800.93447  21899032.1224   21899027.1344
       666.4334
   5872618.64549   4551795.01647  21776652.6384   21776648.6534
     -2620.4104
   7392824.86749   5723724.74647  23733715.5214   23733710.5874
     -3002.3964
  -5798740.08249  -4494500.78547  21861368.1854   21861364.4854
      1719.4504
 04  9  2 15 58  0.0010000  0  6G20G 1G11G14G22G25
   -982460.35949   -760992.63346  24341755.7394   24341752.1494
      2576.6234
  -5967135.16449  -4645461.05947  22494078.4194   22494075.7284
      1956.0354
  -3451210.05949  -2673490.76647  21897154.1924   21897149.2714
       657.9084
   5911982.47749   4582468.11747  21784143.4744   21784139.3884
     -2624.2554
   7437896.25849   5758845.26247  23742292.3174   23742287.7084
     -3004.7594
  -5824425.97749  -4514515.76647  21856480.1924   21856476.9974
      1712.3934
 04  9  2 15 58 15.0010000  0  6G20G 1G11G14G22G25
  -1021104.91849   -791105.25846  24334402.4584   24334398.6144
      2576.3044
  -5996406.98049  -4668270.25047  22488508.2244   22488505.5174
      1951.4544
  -3460950.81249  -2681080.96947  21895300.5604   21895295.8214
       649.3844
   5951403.88749   4613186.07847  21791645.2394   21791641.1734
     -2628.0944
   7483003.03149   5793993.37147  23750876.0524   23750871.4314
     -3007.1184
  -5850005.82849  -4534448.10547  21851612.8884   21851609.5874
      1705.3234
 04  9  2 15 58 30.0010000  0  6G20G 1G11G14G22G25
  -1059743.72749   -821213.43046  24327049.6854   24327045.8804
      2575.9214
  -6025609.20349  -4691025.21947  22482951.3104   22482948.7004
      1946.8154
  -3470562.57049  -2688570.65647  21893471.3104   21893467.0634
       640.7844
   5990883.37949   4643949.30947  21799157.6144   21799153.7204
     -2631.9664
   7528145.98849   5829169.68047  23759466.2004   23759461.6964
     -3009.5304
  -5875478.38349  -4554296.84047  21846765.3254   21846762.9274
      1698.1704
 04  9  2 15 58 45.0010000  0  6G20G 1G11G14G22G25
  -1098378.40249   -851318.37146  24319697.7784   24319693.8884
      2575.6454
  -6054743.45749  -4713727.23047  22477407.5364   22477404.4314
      1942.2844
  -3480047.13749  -2695961.23447  21891666.7394   21891662.0604
       632.3044
   6030418.91449   4674756.21547  21806681.3644   21806677.3884
     -2635.7024
   7573323.29749   5864372.74247  23768063.8884   23768058.6534
     -3011.8214
  -5900845.32449  -4574063.27747  21841938.7314   21841935.4974
      1691.1294
 04  9  2 15 59  0.0010000  0  6G20G 1G11G14G22G25
  -1137010.17249   -881421.03146  24312346.4194   24312343.0214
      2575.4514
  -6083810.88749  -4736377.16047  22471875.9584   22471872.5914
      1937.8294
  -3489405.54349  -2703253.50447  21889885.3884   21889881.3494
       623.8944
   6070009.19549   4705605.76247  21814214.8104   21814210.7984
     -2639.3524
   7618533.84849   5899601.71147  23776666.6464   23776662.1734
     -3014.0374
  -5926107.55549  -4593748.12947  21837131.2394   21837127.9074
      1684.1494
 04  9  2 15 59 15.0010000  0  6G20G 1G11G14G22G25
  -1175637.53949   -911520.27346  24304995.7244   24304992.3134
      2575.1584
  -6112810.21549  -4758974.03147  22466357.9814   22466354.4854
      1933.2894
  -3498636.35249  -2710446.34447  21888129.0054   21888124.7124
       615.3874
   6109655.16449   4736498.71547  21821759.5134   21821755.2314
     -2643.0654
   7663778.73849   5934857.44947  23785276.6064   23785271.9154
     -3016.3264
  -5951263.57049  -4613350.21147  21832344.2474   21832340.7004
      1677.0684
 04  9  2 15 59 30.0010000  0  6G20G 1G11G14G22G25
  -1214261.43449   -941616.81246  24297645.6464   24297641.7124
      2574.9264
  -6141742.32849  -4781518.52047  22460852.0054   22460848.8494
      1928.8084
  -3507740.28949  -2717540.33647  21886396.7864   21886392.1184
       606.9294
   6149355.60549   4767434.10547  21829314.1384   21829310.1264
     -2646.6964
   7709057.07449   5970139.26247  23793892.8964   23793887.8844
     -3018.5564
  -5976314.00449  -4632870.03147  21827577.2714   21827573.5714
      1670.0294
 04  9  2 15 59 45.0010000  0  6G20G 1G11G14G22G25
  -1252880.44149   -971709.50446  24290297.1304   24290292.8564
      2574.6014
  -6170605.89549  -4804009.59847  22455359.3804   22455356.5874
      1924.2384
  -3516716.01249  -2724534.41047  21884688.7714   21884684.3064
       598.3824
   6189111.68049   4798412.85247  21836879.5754   21836875.5754
     -2650.4054
   7754370.04349   6005448.02047  23802514.6924   23802511.0324
     -3020.8654
  -6001257.30149  -4652306.36347  21822830.7944   21822826.7554
      1662.8864
 04  9  2 16  0  0.0010000  0  6G20G 1G11G14G22G25
  -1291495.69949  -1001799.32846  24282948.6384   24282944.2084
      2574.3514
  -6199402.09849  -4826448.18047  22449879.7714   22449876.8214
      1919.7474
  -3525564.64149  -2731429.44947  21883004.8104   21883000.9034
       589.9094
   6228921.77749   4829433.68847  21844454.9894   21844451.1614
     -2654.0074
   7799716.40249   6040782.79747  23811145.0994   23811139.9664
     -3023.0914
  -6026094.49649  -4671660.02347  21818103.9504   21818100.4814
      1655.8134
 04  9  2 16  0 15.0010000  0  6G20G 1G11G14G22G25
  -1330106.57449  -1031885.72346  24275601.0524   24275596.8134
      2574.0584
  -6228130.30149  -4848833.77747  22444412.8104   22444410.0444
      1915.2144
  -3534285.37549  -2738224.83247  21881345.4194   21881341.0444
       581.3824
   6268786.28949   4860496.93047  21852041.0284   21852037.1534
     -2657.6344
   7845096.58249   6076143.96547  23819780.4034   23819775.4504
     -3025.3454
  -6050825.02349  -4690930.55147  21813398.0364   21813394.5094
      1648.7024
 04  9  2 16  0 30.0010000  0  6G20G 1G11G14G22G25
  -1368714.13349  -1061969.52746  24268254.8964   24268250.1384
      2573.8374
  -6256791.64149  -4871167.28147  22438958.6614   22438955.8684
      1910.7564
  -3542879.28549  -2744921.38747  21879709.7714   21879705.3414
       572.9274
   6308703.80949   4891601.47747  21859637.1924   21859632.9624
     -2661.1684
   7890509.45749   6111530.57047  23828421.0134   23828417.3564
     -3027.5254
  -6075449.81249  -4710118.68747  21808712.4744   21808708.5994
      1641.6534
 04  9  2 16  0 45.0010000  0  6G20G 1G11G14G22G25
  -1407318.67249  -1092051.02746  24260908.2164   24260903.3724
      2573.6364
  -6285386.53949  -4893449.00847  22433517.3964   22433514.7124
      1906.3274
  -3551346.77349  -2751519.43447  21878098.7714   21878094.1034
       564.4994
   6348673.65649   4922746.79747  21867243.2084   21867239.0174
     -2664.6574
   7935954.43049   6146942.21147  23837069.8804   23837065.1614
     -3029.6654
  -6099969.07049  -4729224.60947  21804046.3564   21804042.9974
      1634.6174
 04  9  2 16  1  0.0010000  0  6G20G 1G11G14G22G25
  -1445918.48849  -1122128.82046  24253563.5604   24253558.3644
      2573.3214
  -6313913.30949  -4915677.64847  22428088.7864   22428085.8294
      1901.7854
  -3559686.02749  -2758017.55947  21876511.7394   21876506.9624
       555.9504
   6388697.19949   4953933.95747  21874859.2004   21874855.3374
     -2668.2364
   7981433.09049   6182380.09847  23845723.7474   23845719.8684
     -3031.9114
  -6124380.91449  -4748246.82047  21799400.9894   21799397.9814
      1627.4564
 04  9  2 16  1 15.0010000  0  6G20G 1G11G14G22G25
  -1484514.23849  -1152203.45346  24246219.1224   24246214.3374
      2573.0504
  -6342372.62549  -4937853.72347  22422673.6774   22422670.1964
      1897.2884
  -3567897.72349  -2764416.29347  21874949.1854   21874944.5214
       547.4464
   6428773.63749   4985162.33647  21882485.7634   21882481.7474
     -2671.7624
   8026944.70749   6217843.65247  23854384.4034   23854380.4354
     -3034.1084
  -6148685.80549  -4767185.68747  21794776.0284   21794772.9974
      1620.3264
 04  9  2 16  1 30.0010000  0  6G20G 1G11G14G22G25
  -1523106.78549  -1182275.56246  24238874.7394   24238870.1964
      2572.8364
  -6370765.45749  -4959978.00047  22417270.3724   22417266.9154
      1892.8554
  -3575982.71949  -2770716.29347  21873410.6534   21873406.1654
       539.0004
   6468901.53149   5016430.81347  21890121.7084   21890117.5794
     -2675.1934
   8072488.22349   6253332.07047  23863051.2164   23863047.3414
     -3036.2344
  -6172884.45349  -4786041.77047  21790170.9114   21790167.8844
      1613.2434
 04  9  2 16  1 45.0010000  0  6G20G 1G11G14G22G25
  -1561694.56649  -1212343.97346  24231531.6694   24231527.5214
      2572.5194
  -6399090.37149  -4982049.35247  22411880.0754   22411877.5014
      1888.3284
  -3583939.53149  -2776916.41047  21871896.6774   21871892.2904
       530.4544
   6509082.10249   5047740.33247  21897767.7864   21897763.6814
     -2678.7054
   8118064.97349   6288846.40647  23871723.9664   23871719.4424
     -3038.4504
  -6196975.34449  -4804813.88747  21785586.4274   21785582.9814
      1606.0594
 04  9  2 16  2  0.0010000  0  6G20G 1G11G14G22G25
  -1600278.07449  -1242409.07046  24224189.3804   24224185.2244
      2572.2344
  -6427347.80949  -5004068.12947  22406502.8564   22406500.0014
      1883.8294
  -3591768.44549  -2783016.87547  21870407.0054   21870402.2864
       521.9284
   6549314.64149   5079090.34447  21905424.1464   21905419.9664
     -2682.1694
   8163674.33649   6324386.12547  23880404.1854   23880399.0134
     -3040.6244
  -6220958.76649  -4823502.26647  21781022.4034   21781019.0674
      1598.8954
 04  9  2 16  2 15.0010000  0  6G20G 1G11G14G22G25
  -1638857.32049  -1272470.78146  24216847.3494   24216844.0214
      2571.9504
  -6455537.81649  -5026034.35547  22401138.2244   22401135.8024
      1879.3344
  -3599469.55149  -2789017.74247  21868941.4274   21868936.5284
       513.4074
   6589598.84049   5110480.62147  21913089.7784   21913085.7124
     -2685.6134
   8209316.26249   6359951.24647  23889089.3724   23889084.8214
     -3042.7954
  -6244834.66849  -4842106.86347  21776479.1854   21776475.4074
      1591.7274
 04  9  2 16  2 30.0010000  0  6G20G 1G11G14G22G25
  -1677432.00049  -1302528.98446  24209506.8884   24209503.1964
      2571.6454
  -6483660.22349  -5047947.89847  22395786.4814   22395784.6494
      1874.8274
  -3607042.36349  -2794918.63747  21867500.2004   21867495.4424
       504.8544
   6629934.52749   5141911.00847  21920765.3884   21920760.9704
     -2689.0464
   8254990.84049   6395541.77347  23897780.3644   23897776.2244
     -3044.9724
  -6268602.60249  -4860627.33247  21771956.2394   21771952.7044
      1584.5294
 04  9  2 16  2 45.0010000  0  6G20G 1G11G14G22G25
  -1716000.96149  -1332582.69146  24202167.6304   24202163.8564
      2571.2644
  -6511713.88349  -5069807.87947  22390448.3564   22390445.7744
      1870.2444
  -3614485.89849  -2800718.80147  21866083.8964   21866079.0634
       496.2364
   6670322.59849   5173382.21547  21928450.8644   21928446.9194
     -2692.5384
   8300699.06649   6431158.53547  23906478.5364   23906473.4854
     -3047.2154
  -6292261.43049  -4879062.78147  21767454.0524   21767450.6144
      1577.2554
 04  9  2 16  3  0.0010000  0  6G20G 1G11G14G22G25
  -1754563.96549  -1362631.80146  24194829.4664   24194825.4154
      2570.8674
  -6539698.66849  -5091614.19147  22385122.8494   22385120.1224
      1865.6524
  -3621799.78949  -2806417.94147  21864692.0754   21864687.3334
       487.5934
   6710763.00849   5204894.20347  21936146.8174   21936142.4624
     -2696.0274
   8346441.10549   6466801.67247  23915182.7944   23915178.7314
     -3049.4694
  -6315810.63749  -4897412.81647  21762972.6924   21762969.5634
      1569.9474
 04  9  2 16  3 15.0010000  0  6G20G 1G11G14G22G25
  -1793120.25849  -1392675.65646  24187493.2554   24187488.7944
      2570.4204
  -6567613.85249  -5113366.27747  22379811.5364   22379808.2944
      1861.0124
  -3628983.29749  -2812015.48447  21863324.9664   21863320.4354
       478.9014
   6751256.02349   5236447.20347  21943852.1854   21943847.8254
     -2699.5344
   8392217.46149   6502471.50447  23923893.5994   23923889.3454
     -3051.7574
  -6339249.28549  -4915676.69147  21758512.8414   21758509.4424
      1562.5774
 04  9  2 16  3 30.0010000  0  6G20G 1G11G14G22G25
  -1831670.39149  -1422714.71946  24180156.5524   24180153.2474
      2570.0094
  -6595460.01649  -5135064.58247  22374512.2084   22374509.0134
      1856.4114
  -3636036.92649  -2817511.82847  21861982.4194   21861978.3564
       470.2424
   6791800.88349   5268040.59047  21951567.7394   21951563.2354
     -2702.9914
   8438027.46549   6538167.57847  23932612.0284   23932606.8604
     -3054.0004
  -6362577.89149  -4933854.82047  21754073.4424   21754070.2864
      1555.2404
 04  9  2 16  3 45.0010000  0  6G20G 1G11G14G22G25
  -1870215.38349  -1452749.80546  24172822.4744   24172818.7244
      2569.6664
  -6623238.34449  -5156710.02347  22369226.3724   22369223.3884
      1851.8894
  -3642961.79349  -2822907.83247  21860664.9504   21860660.3924
       461.6584
   6832396.15649   5299673.25447  21959292.6384   21959288.5214
     -2706.3524
   8483869.84049   6573888.91047  23941335.2084   23941330.8104
     -3056.1584
  -6385797.48449  -4951947.99647  21749655.0604   21749651.7004
      1547.9734
 04  9  2 16  4  0.0010000  0  6G20G 1G11G14G22G25
  -1908756.59449  -1482781.92646  24165488.2864   24165483.8024
      2569.4144
  -6650950.23849  -5178303.69547  22363952.9814   22363949.7744
      1847.4604
  -3649759.27049  -2828204.57447  21859371.4114   21859367.0094
       453.1654
   6873040.11349   5331343.85947  21967026.9274   21967023.1344
     -2709.5974
   8529743.14149   6609634.28547  23950064.5054   23950060.0874
     -3058.2204
  -6408909.26649  -4969957.17247  21745256.9974   21745253.7124
      1540.7854
 04  9  2 16  4 15.0010000  0  6G20G 1G11G14G22G25
  -1947290.67249  -1512808.49246  24158154.8804   24158151.3534
      2568.9394
  -6678592.43449  -5199843.06247  22358692.7084   22358689.9504
      1842.8134
  -3656426.03549  -2833399.46547  21858102.7944   21858098.2244
       444.4514
   6913735.78149   5363054.75047  21974771.3494   21974767.0324
     -2713.0454
   8575650.60249   6645406.28947  23958800.6304   23958796.1814
     -3060.4974
  -6431909.78149  -4987879.64847  21740880.0444   21740876.6854
      1533.3684
 04  9  2 16  4 30.0010000  0  6G20G 1G11G14G22G25
  -1985817.96149  -1542829.71146  24150823.2314   24150819.6534
      2568.4864
  -6706165.32049  -5221328.42647  22353445.3644   22353442.4784
      1838.1924
  -3662962.23849  -2838492.61347  21856859.0054   21856854.3564
       435.7474
   6954482.62949   5394805.53147  21982524.9504   21982521.0284
     -2716.4574
   8621591.63749   6681204.45747  23967542.3804   23967537.4424
     -3062.7364
  -6454799.35949  -5005715.68447  21736524.4034   21736521.1034
      1525.9724
 04  9  2 16  4 45.0010000  0  6G20G 1G11G14G22G25
  -2024338.01649  -1572845.31646  24143491.9424   24143489.5954
      2568.0044
  -6733668.44949  -5242759.42247  22348211.6774   22348208.7314
      1833.5424
  -3669367.50849  -2843483.74247  21855640.1924   21855635.6924
       427.0184
   6995280.64149   5426596.17647  21990288.7784   21990284.3964
     -2719.8674
   8667566.72749   6717029.17647  23976291.0754   23976286.8764
     -3065.0064
  -6477577.35949  -5023464.77347  21732189.9274   21732186.2554
      1518.5334
 04  9  2 16  5  0.0010000  0  6G20G 1G11G14G22G25
  -2062851.75449  -1602855.97346  24136163.3494   24136160.5604
      2567.5834
  -6761102.73449  -5264136.78147  22342991.0834   22342988.3374
      1828.9524
  -3675642.70749  -2848373.50847  21854445.8964   21854441.7474
       418.3474
   7036128.66449   5458425.79347  21998061.8644   21998057.2904
     -2723.2024
   8713574.74249   6752879.54347  23985046.8174   23985042.4744
     -3067.2014
  -6500244.47749  -5041127.46547  21727876.3104   21727872.8064
      1511.1414
 04  9  2 16  5 15.0010000  0  6G20G 1G11G14G22G25
  -2101356.79349  -1632859.89546  24128837.3644   24128833.6884
      2567.0034
  -6788465.87949  -5285458.70747  22337784.2714   22337781.1224
      1824.2104
  -3681785.58649  -2853160.17647  21853277.1694   21853272.6184
       409.5254
   7077028.63749   5490295.88747  22005844.8104   22005840.5794
     -2726.6654
   8759617.93049   6788757.32047  23993807.9354   23993803.6534
     -3069.5464
  -6522798.34849  -5058701.89847  21723584.5914   21723581.2314
      1503.5914
 04  9  2 16  5 30.0010000  0  6G20G 1G11G14G22G25
  -2139852.41449  -1662856.46147  24121511.1304   24121507.8334
      2566.3754
  -6815757.40649  -5306724.83247  22332591.0754   22332587.6734
      1819.4354
  -3687795.44949  -2857843.19547  21852133.1614   21852129.2394
       400.6584
   7117980.88749   5522206.70747  22013637.7394   22013633.0094
     -2730.1504
   8805696.65649   6824662.79747  24002577.1224   24002571.8454
     -3071.9154
  -6545238.14149  -5076187.44547  21719314.5054   21719311.0444
      1495.9864
 04  9  2 16  5 45.0010000  0  6G20G 1G11G14G22G25
  -2178339.02049  -1692846.02047  24114188.5284   24114184.7044
      2565.7744
  -6842977.72349  -5327935.45747  22327411.0284   22327408.1854
      1814.6884
  -3693672.68049  -2862422.85947  21851015.1694   21851010.6774
       391.8154
   7158984.80949   5554157.80547  22021440.3494   22021436.4424
     -2733.5954
   8851810.41049   6860595.58247  24011352.3804   24011347.5284
     -3074.2504
  -6567564.18449  -5093584.35547  21715065.9814   21715062.3254
      1488.4034
 04  9  2 16  6  0.0010000  0  6G20G 1G11G14G22G25
  -2216816.32849  -1722828.34446  24106865.8724   24106861.9114
      2565.1544
  -6870126.54349  -5349090.37147  22322244.6614   22322242.1574
      1809.9214
  -3699416.95349  -2866898.93047  21849921.7394   21849917.7434
       382.9524
   7200040.32049   5586149.09847  22029253.0284   22029248.8924
     -2737.0344
   8897959.43849   6896555.83647  24020133.6304   24020130.0914
     -3076.6024
  -6589776.19949  -5110892.41847  21710839.2394   21710835.6104
      1480.8014
 04  9  2 16  6 15.0010000  0  6G20G 1G11G14G22G25
  -2255283.79349  -1752802.99246  24099545.9814   24099541.3924
      2564.4984
  -6897203.41449  -5370189.23047  22317092.3884   22317089.3104
      1805.1254
  -3705027.66449  -2871270.91847  21848854.2244   21848849.5364
       374.0474
   7241147.57049   5618180.70747  22037075.6304   22037071.2904
     -2740.4834
   8944143.98849   6932543.73447  24028922.4274   24028917.8604
     -3078.9704
  -6611873.45349  -5128111.05547  21706633.9274   21706631.0014
      1473.1504
 04  9  2 16  6 30.0010000  0  6G20G 1G11G14G22G25
  -2293740.89149  -1782769.57846  24092227.8804   24092223.3994
      2563.8074
  -6924207.81649  -5391231.60547  22311953.3724   22311950.5564
      1800.2934
  -3710504.21949  -2875538.37147  21847812.1224   21847807.5444
       365.1044
   7282306.94549   5650252.93847  22044908.1694   22044903.6224
     -2743.9584
   8990364.56349   6968559.76647  24037718.3414   24037712.7204
     -3081.3724
  -6633855.23449  -5145239.71147  21702451.1774   21702447.7394
      1465.4524
 04  9  2 16  6 45.0010000  0  6G20G 1G11G14G22G25
  -2332185.68049  -1812726.54346  24084911.0754   24084907.4114
      2562.9864
  -6951138.05949  -5412216.19947  22306828.4274   22306825.9664
      1795.3494
  -3715844.92649  -2879699.96547  21846795.8644   21846791.5054
       356.0474
   7323519.85249   5682366.87547  22052750.3414   22052746.4154
     -2747.5274
   9036622.78549   7004605.11747  24046520.6144   24046516.4744
     -3083.8824
  -6655719.80149  -5162277.03147  21698290.3494   21698287.1034
      1457.6384
 04  9  2 16  7  0.0010000  0  6G20G 1G11G14G22G25
  -2370620.16849  -1842675.48046  24077597.3414   24077594.1064
      2562.2994
  -6977996.18049  -5433144.59447  22301717.8334   22301714.7904
      1790.5414
  -3721051.71949  -2883757.21547  21845804.9744   21845800.8134
       347.1204
   7364783.94549   5714520.69547  22060602.6774   22060598.6224
     -2750.9404
   9082916.56349   7040678.11347  24055330.3104   24055325.6614
     -3086.2524
  -6677468.95349  -5179224.41847  21694151.7394   21694148.1964
      1449.9434
 04  9  2 16  7 15.0010000  0  6G20G 1G11G14G22G25
  -2409043.35549  -1872615.61346  24070285.9894   24070282.5834
      2561.5464
  -7004781.34449  -5454016.13747  22296620.5914   22296618.2004
      1785.6784
  -3726123.70349  -2887709.41847  21844840.0054   21844835.3764
       338.1324
   7406099.79749   5746714.85247  22068464.8644   22068460.5834
     -2754.3904
   9129246.53549   7076779.39547  24064147.0134   24064141.3764
     -3088.6654
  -6699101.73049  -5196081.11747  21690035.3414   21690031.8994
      1442.1854
 04  9  2 16  7 30.0010000  0  6G20G 1G11G14G22G25
  -2447454.73849  -1902546.55146  24062976.1614   24062972.7634
      2560.7594
  -7031492.91449  -5474830.33647  22291537.6774   22291534.9194
      1780.7714
  -3731060.16049  -2891556.01647  21843900.4114   21843895.9314
       329.0974
   7447467.80949   5778949.65247  22076336.7394   22076332.8104
     -2757.8674
   9175613.25449   7112909.31347  24072970.0674   24072964.8374
     -3091.1154
  -6720617.25049  -5212846.45347  21685941.0134   21685937.6264
      1434.3684
 04  9  2 16  7 45.0010000  0  6G20G 1G11G14G22G25
  -2485851.80949  -1932466.32447  24055670.3644   24055666.1614
      2559.8054
  -7058128.61349  -5495585.42247  22286469.2004   22286466.1424
      1775.7134
  -3735858.84049  -2895295.25447  21842987.2394   21842982.9504
       319.9124
   7488889.93449   5811226.61347  22084219.4814   22084215.3884
     -2761.4754
   9222019.06649   7149069.63347  24081800.4034   24081796.4934
     -3093.7214
  -6742013.07449  -5229518.52047  21681869.3964   21681865.7044
      1426.3884
 04  9  2 16  8  0.0010000  0  6G20G 1G11G14G22G25
  -2524236.59049  -1962376.54347  24048365.7474   24048362.3134
      2558.9854
  -7084690.41849  -5516282.92647  22281414.6064   22281411.4894
      1770.7874
  -3740521.66049  -2898928.62947  21842100.1064   21842095.7124
       310.8554
   7530363.92649   5843543.99647  22092111.4504   22092107.3334
     -2764.9334
   9268461.70749   7185258.65247  24090638.6854   24090634.6814
     -3096.1764
  -6763291.15249  -5246098.83247  21677820.5914   21677816.8174
      1418.5394
 04  9  2 16  8 15.0010000  0  6G20G 1G11G14G22G25
  -2562608.55149  -1992276.77047  24041063.8024   24041060.6064
      2558.1314
  -7111177.96549  -5536922.56247  22276374.2084   22276371.1534
      1765.8364
  -3745048.03949  -2902455.68047  21841238.8024   21841234.1964
       301.7594
   7571889.94149   5875901.91847  22100013.6854   22100009.3884
     -2768.4014
   9314941.52349   7221476.67647  24099483.0364   24099478.1574
     -3098.6544
  -6784450.77749  -5262586.84848  21673793.9974   21673790.3844
      1410.6424
 04  9  2 16  8 30.0010000  0  6G20G 1G11G14G22G25
  -2600966.69149  -2022166.20347  24033764.0674   24033760.6494
      2557.2094
  -7137590.37149  -5557503.64847  22271348.2634   22271345.0284
      1760.8274
  -3749437.08649  -2905875.72747  21840403.5674   21840399.0524
       292.6034
   7613468.68049   5908300.92247  22107925.8174   22107921.7554
     -2771.9164
   9361459.46149   7257724.41447  24108335.2714   24108329.3294
     -3101.1964
  -6805490.98049  -5278981.80547  21669790.1694   21669786.4314
      1402.6804
 04  9  2 16  8 45.0010000  0  6G20G 1G11G14G22G25
  -2639312.81249  -2052046.30146  24026467.2554   24026463.8334
      2556.4084
  -7163929.50449  -5578027.64547  22266336.1694   22266332.8684
      1755.9424
  -3753690.53949  -2909190.11347  21839593.9744   21839589.8024
       283.5644
   7655097.95749   5940739.30947  22115847.6144   22115843.7714
     -2775.2854
   9408013.49649   7294000.25447  24117194.7784   24117190.0284
     -3103.6024
  -6826413.63349  -5295285.16447  21665808.2944   21665804.9704
      1394.8434
 04  9  2 16  9  0.0010000  0  6G20G 1G11G14G22G25
  -2677645.01649  -2081915.54346  24019173.1854   24019169.1884
      2555.4804
  -7190193.41849  -5598493.02047  22261338.0834   22261335.4704
      1750.9284
  -3757806.60549  -2912397.44547  21838810.8884   21838806.2244
       274.4044
   7696779.39149   5973218.33247  22123779.1064   22123775.3604
     -2778.7624
   9454605.44549   7330305.63747  24126060.3724   24126056.0484
     -3106.1304
  -6847216.57849  -5311495.25047  21661849.7864   21661846.2044
      1386.8634
 04  9  2 16  9 15.0010000  0  6G20G 1G11G14G22G25
  -2715963.82849  -2111774.33646  24011881.0674   24011876.7044
      2554.5884
  -7216382.81649  -5618900.32047  22256354.3104   22256351.5524
      1745.9604
  -3761786.01649  -2915498.28547  21838053.4664   21838049.1574
       265.2944
   7738512.02749   6005737.25447  22131720.7634   22131716.9584
     -2782.1764
   9501234.44549   7366639.88346  24134932.9034   24134928.4664
     -3108.6004
  -6867900.32049  -5327612.44148  21657913.8174   21657910.4624
      1378.9164
 04  9  2 16  9 30.0010000  0  6G20G 1G11G14G22G25
  -2754269.61349  -2141622.99246  24004591.9584   24004586.7784
      2553.7194
  -7242498.15249  -5639249.92647  22251384.3254   22251381.8494
      1741.0224
  -3765629.12949  -2918492.93047  21837322.0284   21837317.7474
       256.2084
   7780295.12549   6038295.50047  22139672.2084   22139668.1424
     -2785.5404
   9547899.91449   7403002.58247  24143813.7314   24143808.4034
     -3111.0314
  -6888465.10249  -5343636.94148  21654000.2244   21653997.2004
      1370.9854
 04  9  2 16  9 45.0010000  0  6G20G 1G11G14G22G25
  -2792562.80149  -2171461.84446  23997304.7004   23997300.1574
      2552.8794
  -7268539.97749  -5659542.23847  22246428.7084   22246426.1304
      1736.1224
  -3769336.32049  -2921381.66047  21836616.6854   21836612.1034
       247.1464
   7822128.02049   6070892.53147  22147632.5134   22147628.2944
     -2788.8604
   9594601.33249   7439393.27347  24152700.7394   24152696.6694
     -3113.4284
  -6908911.36349  -5359569.08247  21650109.7474   21650106.4074
      1363.0844
 04  9  2 16 10  0.0010000  0  6G20G 1G11G14G22G25
  -2830842.57049  -2201290.26646  23990020.8644   23990016.1964
      2551.9854
  -7294507.44549  -5679776.60947  22241487.3964   22241484.7634
      1731.1654
  -3772906.74649  -2924163.81247  21835937.5834   21835933.1384
       238.0284
   7864011.17249   6103528.74647  22155602.6144   22155598.3334
     -2792.2104
   9641339.55549   7475812.60947  24161594.8964   24161590.8104
     -3115.8824
  -6929238.03149  -5375408.03147  21646241.7004   21646238.2394
      1355.1114
 04  9  2 16 10 15.0010000  0  6G20G 1G11G14G22G25
  -2869108.22349  -2231107.63747  23982739.0754   23982735.0484
      2551.0434
  -7320400.03949  -5699952.65647  22236560.3724   22236557.6064
      1726.1734
  -3776339.81649  -2926838.94147  21835283.8494   21835279.5014
       228.8714
   7905944.94549   6136204.40247  22163581.9664   22163578.1464
     -2795.5854
   9688114.91049   7512260.90647  24170496.3724   24170491.5754
     -3118.3574
  -6949444.52349  -5391153.34847  21642396.5754   21642393.2864
      1347.0994
 04  9  2 16 10 30.0010000  0  6G20G 1G11G14G22G25
  -2907362.55549  -2260916.21547  23975459.5754   23975455.5564
      2550.2894
  -7346220.57049  -5720072.53947  22231646.9194   22231643.9664
      1721.3694
  -3779638.32449  -2929409.21547  21834656.0994   21834651.9384
       219.9014
   7947926.20749   6168917.05547  22171571.1144   22171567.2594
     -2798.7514
   9734924.43849   7548735.87147  24179403.5444   24179399.1614
     -3120.6354
  -6969533.58249  -5406807.15648  21638573.5524   21638570.0994
      1339.2714
 04  9  2 16 10 45.0010000  0  6G20G 1G11G14G22G25
  -2945605.49649  -2290715.89146  23968181.8564   23968178.4114
      2549.5294
  -7371969.10249  -5740136.32047  22226747.3104   22226744.2124
      1716.5694
  -3782802.13749  -2931874.52747  21834054.3254   21834050.0134
       210.9214
   7989954.68449   6201666.50047  22179569.1224   22179565.1964
     -2801.8984
   9781768.09849   7585237.38347  24188316.9814   24188313.1734
     -3122.9114
  -6989504.88749  -5422369.19947  21634773.2864   21634769.9424
      1331.4204
 04  9  2 16 11  0.0010000  0  6G20G 1G11G14G22G25
  -2983835.83649  -2320505.75447  23960906.5524   23960903.3494
      2548.6894
  -7397644.52049  -5760143.13747  22221861.3024   22221858.4314
      1711.6954
  -3785830.05549  -2934233.95347  21833478.6064   21833473.7784
       201.8614
   8032031.26249   6234453.43047  22187575.5754   22187571.6814
     -2805.1054
   9828646.90649   7621766.26647  24197238.6534   24197234.3064
     -3125.2544
  -7009357.39149  -5437838.68447  21630995.3494   21630992.0794
      1323.5004
 04  9  2 16 11 15.0010000  0  6G20G 1G11G14G22G25
  -3022054.89149  -2350286.78946  23953633.6224   23953630.4584
      2547.9374
  -7423248.22749  -5780094.06647  22216989.0524   22216985.9074
      1706.9144
  -3788723.59049  -2936488.66047  21832927.3494   21832923.1614
       192.9024
   8074154.36749   6267276.61747  22195591.4584   22195587.7244
     -2808.2074
   9875559.32849   7658321.36346  24206165.1924   24206161.2204
     -3127.4954
  -7029092.23449  -5453216.46948  21627240.0834   21627236.6964
      1315.6564
 04  9  2 16 11 30.0010000  0  6G20G 1G11G14G22G25
  -3060260.93049  -2380057.69546  23946363.2554   23946359.8964
      2547.0694
  -7448778.61349  -5799987.86347  22212130.8024   22212127.8174
      1702.0264
  -3791480.96949  -2938637.27747  21832402.7634   21832398.4074
       183.8254
   8116325.23849   6300137.02047  22203616.5994   22203612.5524
     -2811.3914
   9922507.04349   7694903.98046  24215098.6614   24215094.4034
     -3129.8484
  -7048707.61349  -5468501.17648  21623507.6774   21623503.9384
      1307.6924
 04  9  2 16 11 45.0010000  0  6G20G 1G11G14G22G25
  -3098456.59849  -2409820.57046  23939094.6384   23939091.0444
      2546.3784
  -7474238.45349  -5819826.69147  22207285.8564   22207282.7554
      1697.3234
  -3794105.13749  -2940682.08647  21831903.6614   21831899.3174
       174.9454
   8158540.87149   6333032.30147  22211650.1384   22211645.9744
     -2814.3764
   9969487.07449   7731511.75447  24224039.2314   24224034.9464
     -3132.0024
  -7068206.30549  -5483694.94548  21619796.8414   21619793.5874
      1299.9134
 04  9  2 16 12  0.0010000  0  6G20G 1G11G14G22G25
  -3136641.14149  -2439574.74646  23931829.0834   23931825.1654
      2545.6364
  -7499627.09049  -5839610.03547  22202454.9894   22202451.6854
      1692.5764
  -3796595.15249  -2942622.36347  21831429.5834   21831425.4234
       166.0014
   8200801.75449   6365962.83647  22219692.2004   22219687.9354
     -2817.3924
  10016499.95349   7768145.12947  24232986.1694   24232981.9784
     -3134.1924
  -7087587.41849  -5498797.10548  21616108.2554   21616105.1614
      1292.0744
 04  9  2 16 12 15.0010000  0  6G20G 1G11G14G22G25
  -3174813.56649  -2469319.50446  23924565.2554   23924561.3844
      2544.8284
  -7524943.53949  -5859337.12547  22197637.3334   22197634.0714
      1687.7634
  -3798949.99249  -2944457.30947  21830981.2634   21830976.9114
       156.9894
   8243108.53949   6398929.14547  22227742.8104   22227738.7984
     -2820.4524
  10063546.62149   7804804.84047  24241937.9894   24241934.5634
     -3136.4454
  -7106849.80549  -5513806.74648  21612443.0364   21612439.7084
      1284.1594
 04  9  2 16 12 30.0010000  0  6G20G 1G11G14G22G25
  -3212975.94549  -2499056.44947  23917302.8564   23917298.9314
      2544.1594
  -7550190.12949  -5879009.78547  22192832.6384   22192830.0364
      1683.1064
  -3801171.97749  -2946188.73847  21830558.7084   21830554.2204
       148.1324
   8285458.75049   6431929.29347  22235801.7634   22235797.4584
     -2823.3474
  10110624.78949   7841489.08647  24250896.4974   24250892.7044
     -3138.5454
  -7125995.60949  -5528725.54748  21608799.7314   21608796.4584
      1276.3874
 04  9  2 16 12 45.0010000  0  6G20G 1G11G14G22G25
  -3251129.12949  -2528786.21947  23910042.8334   23910038.7474
      2543.5464
  -7575367.69949  -5898628.65647  22188041.5054   22188038.8254
      1678.5054
  -3803262.03549  -2947817.36347  21830161.0754   21830156.6144
       139.3374
   8327851.21149   6464962.35547  22243868.6464   22243864.7984
     -2826.1644
  10157733.39849   7878197.07047  24259861.4974   24259857.0134
     -3140.5744
  -7145025.60549  -5543554.10548  21605178.4274   21605175.3334
      1268.6664
 04  9  2 16 13  0.0010000  0  6G20G 1G11G14G22G25
  -3289272.34049  -2558508.19147  23902784.6774   23902780.7824
      2542.8814
  -7600475.47349  -5918193.14847  22183263.9114   22183260.5834
      1673.8524
  -3805219.21549  -2949342.44547  21829788.3644   21829784.2984
       130.4794
   8370286.39549   6498028.71547  22251943.8884   22251939.8684
     -2829.0124
  10204873.11349   7914929.29347  24268831.7784   24268827.9194
     -3142.6484
  -7163938.90249  -5558291.72748  21601579.5914   21601576.3804
      1260.8864
 04  9  2 16 13 15.0020000  0  6G20G 1G11G14G22G25
  -3327407.85949  -2588224.16046  23895526.9794   23895523.9044
      2542.3684
  -7625515.16449  -5937704.59047  22178499.1584   22178495.7524
      1669.3134
  -3807043.64849  -2950764.08647  21829441.3694   21829436.6974
       121.6294
   8412767.01249   6531130.48447  22260027.5724   22260023.6974
     -2832.0414
  10252047.14149   7951688.23047  24277808.1744   24277804.6434
     -3144.9354
  -7182736.51249  -5572939.20348  21598002.4864   21597999.0534
      1253.1744
 04  9  2 16 13 30.0020000  0  6G20G 1G11G14G22G25
  -3365530.89549  -2617930.38347  23888272.5024   23888269.5024
      2541.5364
  -7650483.63749  -5957160.53547  22173747.5964   22173744.7294
      1664.5654
  -3808735.26649  -2952082.23447  21829119.3224   21829115.0644
       112.7744
   8455286.81349   6564262.77347  22268119.3694   22268115.0254
     -2834.6534
  10299248.82849   7988468.70747  24286791.0414   24286786.7714
     -3146.7794
  -7201416.06249  -5587494.68748  21594448.0104   21594444.5064
      1245.3034
 04  9  2 16 13 45.0020000  0  6G20G 1G11G14G22G25
  -3403643.36749  -2647628.38347  23881019.7604   23881016.5104
      2540.8324
  -7675382.12949  -5976561.95347  22169009.4864   22169006.4084
      1659.8994
  -3810293.85549  -2953296.72747  21828822.6824   21828818.6464
       103.9064
   8497848.94149   6597428.04347  22276218.4714   22276214.1234
     -2837.4754
  10346481.46549   8025273.33647  24295779.5414   24295775.1044
     -3148.8424
  -7219978.33249  -5601958.78948  21590915.4944   21590912.1704
      1237.4854
 04  9  2 16 14  0.0020000  0  6G20G 1G11G14G22G25
  -3441747.21549  -2677319.67247  23873769.2684   23873765.8854
      2540.2574
  -7700212.60249  -5995910.36347  22164284.5644   22164280.9514
      1655.3654
  -3811721.28149  -2954409.01647  21828551.3614   21828547.0144
        95.1624
   8540451.13749   6630624.55547  22284325.0964   22284321.4634
     -2840.1464
  10393743.13749   8062100.57047  24304771.9944   24304768.4634
     -3150.7784
  -7238425.13349  -5616332.90247  21587404.9864   21587401.5964
      1229.7874
 04  9  2 16 14 15.0020000  0  6G20G 1G11G14G22G25
  -3479843.91049  -2707005.39546  23866519.8544   23866516.1824
      2539.7804
  -7724976.68049  -6015207.03947  22159571.8544   22159568.8264
      1650.9394
  -3813019.17249  -2955420.36347  21828304.4474   21828300.2484
        86.5264
   8583091.42649   6663850.73047  22292439.1194   22292435.2054
     -2842.6864
  10441032.07849   8098949.03947  24313772.2054   24313767.7054
     -3152.5964
  -7256757.84849  -5630618.12947  21583916.2914   21583913.0374
      1222.1814
 04  9  2 16 14 30.0020000  0  6G20G 1G11G14G22G25
  -3517929.66049  -2736682.61746  23859272.6744   23859267.5764
      2539.0504
  -7749670.68049  -6034449.11347  22154872.4474   22154869.6464
      1646.2674
  -3814183.77749  -2956327.85547  21828082.6664   21828078.5064
        77.6404
   8625773.36749   6697109.37147  22300561.4084   22300557.5684
     -2845.4634
  10488351.89849   8135821.60547  24322776.9554   24322772.0254
     -3154.6554
  -7274972.60949  -5644811.43447  21580450.3544   21580446.8934
      1214.3174
 04  9  2 16 14 45.0020000  0  6G20G 1G11G14G22G25
  -3556006.49649  -2766352.89846  23852026.8384   23852021.4394
      2538.4564
  -7774296.78149  -6053638.27347  22150186.6744   22150183.7404
      1641.7404
  -3815217.15649  -2957133.09047  21827885.7684   21827881.9204
        68.8924
   8668494.57849   6730398.60247  22308691.0574   22308686.9514
     -2848.0814
  10535700.41449   8172716.52747  24331786.3304   24331782.1154
     -3156.5684
  -7293071.50449  -5658914.46148  21577006.2294   21577002.8114
      1206.5934
 04  9  2 16 15  0.0020000  0  6G20G 1G11G14G22G25
  -3594073.91849  -2796015.84446  23844782.5724   23844777.2054
      2537.8284
  -7798854.51649  -6072774.16047  22145513.4714   22145510.4204
      1637.1824
  -3816118.77049  -2957835.65247  21827714.7604   21827710.1074
        60.1084
   8711255.23449   6763718.57447  22316828.0024   22316824.3654
     -2850.7104
  10583078.05949   8209634.13747  24340802.1434   24340797.7644
     -3158.5104
  -7311054.01649  -5672926.80548  21573584.4004   21573580.5844
      1198.8344
 04  9  2 16 15 15.0020000  0  6G20G 1G11G14G22G25
  -3632131.36349  -2825671.00046  23837540.0254   23837535.5184
      2537.1634
  -7823343.44949  -6091856.44147  22140853.1744   22140850.4714
      1632.5964
  -3816888.27049  -2958435.27347  21827568.1664   21827563.6074
        51.3004
   8754055.52349   6797069.43847  22324972.7294   22324968.9434
     -2853.3534
  10630485.05549   8246574.61347  24349823.9244   24349819.5924
     -3160.4664
  -7328919.54349  -5686847.98448  21570184.8934   21570181.2324
      1191.0354
 04  9  2 16 15 30.0020000  0  6G20G 1G11G14G22G25
  -3670179.85549  -2855319.14846  23830299.7754   23830295.4434
      2536.5664
  -7847764.71549  -6110885.98847  22136206.2604   22136203.2914
      1628.0844
  -3817526.64549  -2958932.71147  21827446.5254   21827442.2254
        42.5584
   8796894.06649   6830450.10247  22333124.7994   22333120.8734
     -2855.9034
  10677920.26649   8283537.07847  24358850.3144   24358846.1824
     -3162.3474
  -7346669.05949  -5700678.76248  21566807.2294   21566803.9364
      1183.3014
 04  9  2 16 15 45.0020000  0  6G20G 1G11G14G22G25
  -3708219.17649  -2884960.17247  23823061.2134   23823056.8264
      2535.9554
  -7872118.17649  -6129862.70747  22131571.7294   22131569.0724
      1623.5644
  -3818033.85549  -2959327.93747  21827350.3074   21827345.8814
        33.8144
   8839770.79749   6863860.52747  22341284.1354   22341279.7684
     -2858.4494
  10725383.83649   8320521.65247  24367882.2134   24367878.0454
     -3164.2384
  -7364302.17249  -5714418.84448  21563451.4324   21563448.1394
      1175.5414
 04  9  2 16 16  0.0020000  0  6G20G 1G11G14G22G25
  -3746249.93049  -2914594.49647  23815823.8074   23815820.9364
      2535.3844
  -7896404.54349  -6148787.14147  22126950.4864   22126947.4084
      1619.0914
  -3818410.51649  -2959621.44947  21827278.8074   21827274.1234
        25.1114
   8882684.72749   6897299.94147  22349450.3694   22349446.3544
     -2860.9294
  10772874.94949   8357527.69147  24376919.5574   24376915.3304
     -3166.0744
  -7381819.54349  -5728068.73048  21560118.1824   21560114.4084
      1167.8254
 04  9  2 16 16 15.0020000  0  6G20G 1G11G14G22G25
  -3784271.27749  -2944221.50846  23808588.9714   23808585.0454
      2534.7574
  -7920623.10549  -6167658.74247  22122341.3774   22122338.5254
      1614.5714
  -3818655.85549  -2959812.62147  21827231.8224   21827227.3934
        16.3564
   8925636.42649   6930768.77347  22357623.6114   22357619.7134
     -2863.4474
  10820394.16849   8394555.62147  24385962.1744   24385957.8464
     -3167.9484
  -7399220.45749  -5741627.87948  21556806.7914   21556803.5644
      1160.0614
 04  9  2 16 16 30.0020000  0  6G20G 1G11G14G22G25
  -3822284.50449  -2973842.18047  23801355.1664   23801351.4514
      2534.2154
  -7944775.37949  -6186478.68047  22117745.3854   22117742.5684
      1610.1524
  -3818771.22749  -2959902.53547  21827210.2994   21827205.5144
         7.6914
   8968624.12949   6964265.67647  22365804.2364   22365799.7714
     -2865.8474
  10867939.93049   8431604.21547  24395009.8144   24395005.8034
     -3169.7174
  -7416506.17649  -5755097.25847  21553517.3694   21553514.1114
      1152.3814
 04  9  2 16 16 45.0020000  0  6G20G 1G11G14G22G25
  -3860286.96149  -3003454.49647  23794123.6744   23794119.2994
      2533.4974
  -7968858.71549  -6205244.91447  22113162.6584   22113159.7094
      1605.5564
  -3818754.23449  -2959889.30147  21827212.9004   21827208.9794
        -1.1334
   9011650.18449   6997792.45747  22373991.3464   22373987.6974
     -2868.4044
  10915514.71949   8468675.42247  24404062.4164   24404058.8854
     -3171.6534
  -7433674.00049  -5768474.77348  21550250.5414   21550246.7794
      1144.5224
 04  9  2 16 17  0.0020000  0  6G20G 1G11G14G22G25
  -3898280.98449  -3033060.21547  23786894.3144   23786889.5294
      2532.9354
  -7992875.52749  -6223959.30547  22108592.6584   22108589.5764
      1601.1214
  -3818607.19549  -2959774.73047  21827241.1434   21827236.6864
        -9.8034
   9054711.96549   7031347.07047  22382185.7994   22382182.0924
     -2870.7854
  10963116.04349   8505767.32447  24413121.3144   24413116.9754
     -3173.4224
  -7450726.11749  -5781762.12948  21547005.7364   21547002.0964
      1136.8084
 04  9  2 16 17 15.0020000  0  6G20G 1G11G14G22G25
  -3936265.96149  -3062658.90246  23779665.2364   23779660.9044
      2532.3324
  -8016825.36749  -6242621.50847  22104034.9324   22104032.4004
      1596.6564
  -3818329.55549  -2959558.39147  21827294.0494   21827289.5964
       -18.5094
   9097809.71549   7064929.71947  22390387.1744   22390383.4084
     -2873.1834
  11010744.40649   8542880.30547  24422185.3144   24422180.4044
     -3175.2244
  -7467661.98449  -5794958.90248  21543782.6974   21543779.0964
      1129.0584
 04  9  2 16 17 30.0020000  0  6G20G 1G11G14G22G25
  -3974240.71149  -3092249.60546  23772438.2604   23772433.9794
      2531.6504
  -8040707.24649  -6261230.75847  22099490.3854   22099487.6704
      1592.1254
  -3817920.34449  -2959239.53547  21827371.6744   21827367.2294
       -27.2814
   9140944.17249   7098540.96547  22398595.4324   22398591.4674
     -2875.6304
  11058400.70349   8580015.06346  24431253.7754   24431249.1894
     -3177.0864
  -7484480.48049  -5808064.21948  21540582.3934   21540578.4824
      1121.2334
 04  9  2 16 17 45.0020000  0  6G20G 1G11G14G22G25
  -4012205.56649  -3121832.60546  23765213.7834   23765210.4394
      2530.9904
  -8064521.53149  -6279787.33247  22094958.6434   22094956.1894
      1587.6194
  -3817379.80949  -2958818.34047  21827475.0104   21827470.5684
       -36.0364
   9184114.78549   7132180.38347  22406810.6354   22406806.8384
     -2878.0414
  11106084.46549   8617171.20747  24440327.1584   24440322.9044
     -3178.9174
  -7501181.81249  -5821078.23448  21537403.9394   21537400.1504
      1113.4224
 04  9  2 16 18  0.0020000  0  6G20G 1G11G14G22G25
  -4050160.27349  -3151407.69946  23757991.8544   23757987.8504
      2530.3144
  -8088268.08249  -6298291.12547  22090440.1274   22090437.4394
      1583.1034
  -3816707.87949  -2958294.76647  21827603.1504   21827598.2564
       -44.7954
   9227321.47749   7165847.92647  22415032.3774   22415028.8464
     -2880.4464
  11153795.76249   8654348.80546  24449406.8224   24449402.1624
     -3180.7534
  -7517765.60549  -5834000.66048  21534248.2754   21534244.7294
      1105.5864
 04  9  2 16 18 15.0020000  0  6G20G 1G11G14G22G25
  -4088107.69949  -3180977.11347  23750770.8464   23750767.4514
      2529.8284
  -8111949.85949  -6316744.44147  22085933.1274   22085930.3814
      1578.7854
  -3815907.46149  -2957671.06647  21827754.7054   21827750.3964
       -53.3614
   9270561.04349   7199541.07847  22423260.7214   22423257.1934
     -2882.6384
  11201531.50849   8691545.45746  24458490.0804   24458485.8814
     -3182.3834
  -7534234.80549  -5846833.78948  21531114.5104   21531110.9554
      1097.9474
 04  9  2 16 18 30.0020000  0  6G20G 1G11G14G22G25
  -4126045.34849  -3210538.89547  23743552.2604   23743547.8114
      2529.1774
  -8135564.56249  -6335145.50847  22081439.5884   22081436.4864
      1574.3144
  -3814976.23849  -2956945.44947  21827932.0334   21827927.5804
       -62.0824
   9313835.53549   7233261.44947  22431495.4394   22431492.1234
     -2884.9664
  11249293.93049   8728762.92246  24467578.5964   24467574.8184
     -3184.1614
  -7550586.93449  -5859575.70348  21528002.9394   21527999.2874
      1090.1424
 04  9  2 16 18 45.0020000  0  6G20G 1G11G14G22G25
  -4163973.32849  -3240093.16847  23736334.1114   23736330.0214
      2528.5324
  -8159112.41049  -6353494.47347  22076958.4794   22076955.4514
      1569.8574
  -3813914.39549  -2956118.03947  21828134.0804   21828129.7254
       -70.7904
   9357144.51249   7267008.68447  22439736.6044   22439733.5184
     -2887.2654
  11297082.74649   8766000.91446  24476672.0804   24476668.6154
     -3185.9214
  -7566822.19149  -5872226.54748  21524913.2834   21524910.0214
      1082.3514
 04  9  2 16 19  0.0020000  0  6G20G 1G11G14G22G25
  -4201891.36749  -3269639.67647  23729118.5724   23729114.6504
      2527.8694
  -8182593.19149  -6371791.18447  22072490.3774   22072487.3774
      1565.3854
  -3812721.60949  -2955188.60247  21828361.1114   21828356.8654
       -79.5194
   9400488.01249   7300782.82447  22447984.8694   22447981.1744
     -2889.5674
  11344898.15249   8803259.62146  24485771.4794   24485767.3184
     -3187.6944
  -7582940.10249  -5884785.95348  21521846.0494   21521842.7954
      1074.5274
 04  9  2 16 19 15.0020000  0  6G20G 1G11G14G22G25
  -4239797.97349  -3299177.27747  23721904.6974   23721900.8774
      2527.1074
  -8206005.51649  -6390034.55147  22068035.0644   22068031.9984
      1560.8224
  -3811396.60249  -2954156.13347  21828613.1664   21828608.6864
       -88.3344
   9443867.14849   7334584.73847  22456239.8304   22456235.7954
     -2891.9424
  11392741.35249   8840540.02346  24494876.3464   24494871.8224
     -3189.5474
  -7598939.23049  -5897252.79748  21518801.4864   21518797.9824
      1066.6094
 04  9  2 16 19 30.0020000  0  6G20G 1G11G14G22G25
  -4277695.27749  -3328707.62547  23714693.0884   23714689.4634
      2526.4874
  -8229351.69549  -6408226.36747  22063592.1434   22063589.3854
      1556.4124
  -3809941.63749  -2953022.40647  21828889.9164   21828885.9434
       -96.9984
   9487279.53149   7368412.54747  22464501.1824   22464497.0964
     -2894.1594
  11440610.06349   8877840.28946  24503985.8854   24503980.8654
     -3191.2474
  -7614821.67249  -5909628.71548  21515779.1824   21515775.9474
      1058.8294
 04  9  2 16 19 45.0020000  0  6G20G 1G11G14G22G25
  -4315584.05949  -3358231.34047  23707483.1504   23707479.1744
      2525.9194
  -8252632.58649  -6426367.32047  22059162.1194   22059159.0534
      1552.0594
  -3808357.55949  -2951788.06647  21829191.4634   21829186.9984
      -105.6054
   9530724.00449   7402265.36747  22472768.3694   22472764.0534
     -2896.2984
  11488503.38749   8915159.73046  24513098.9864   24513095.3814
     -3192.8884
  -7630588.19949  -5921914.31248  21512778.9554   21512775.2834
      1051.1024
 04  9  2 16 20  0.0020000  0  6G20G 1G11G14G22G25
  -4353463.11349  -3387747.50047  23700275.2524   23700271.1464
      2525.2704
  -8275847.25449  -6444456.66447  22054744.6744   22054741.8544
      1547.6454
  -3806643.25849  -2950452.24647  21829517.9324   21829513.4474
      -114.2874
   9574201.26649   7436143.73047  22481041.7134   22481037.4794
     -2898.4844
  11536422.12549   8952498.98046  24522218.2754   24522214.1434
     -3194.5834
  -7646237.78949  -5934108.79348  21509801.0804   21509797.1744
      1043.3064
 04  9  2 16 20 15.0020000  0  6G20G 1G11G14G22G25
  -4391331.83249  -3417255.59047  23693069.3304   23693065.0884
      2524.5814
  -8298995.18749  -6462494.00847  22050339.5884   22050337.3814
      1543.1964
  -3804798.36749  -2949014.67647  21829868.7604   21829864.5414
      -122.9934
   9617711.59449   7470047.86747  22489321.5184   22489317.5144
     -2900.6894
  11584366.74649   8989858.38346  24531341.7994   24531337.7524
     -3196.3084
  -7661769.75849  -5946211.61748  21506845.2994   21506841.6974
      1035.4654
 04  9  2 16 20 30.0020000  0  6G20G 1G11G14G22G25
  -4429191.23849  -3446756.44147  23685864.6894   23685860.7994
      2523.9604
  -8322077.44549  -6480480.16847  22045947.2364   22045944.2954
      1538.8174
  -3802823.86349  -2947476.10947  21830244.4864   21830240.1274
      -131.6344
   9661253.72749   7503976.78947  22497606.9474   22497603.2214
     -2902.8094
  11632336.10549   9027237.06346  24540469.7294   24540465.7874
     -3197.9574
  -7677185.17649  -5958223.61748  21503911.7054   21503908.3654
      1027.6954
 04  9  2 16 20 45.0020000  0  6G20G 1G11G14G22G25
  -4467041.27349  -3476249.95747  23678662.3774   23678658.2054
      2523.3364
  -8345094.08649  -6498415.20747  22041567.2834   22041564.5614
      1534.4434
  -3800719.92249  -2945836.67247  21830644.8934   21830640.7484
      -140.2634
   9704827.39149   7537930.27747  22505898.9794   22505895.2014
     -2904.9114
  11680330.05149   9064634.93046  24549602.7684   24549598.4164
     -3199.5964
  -7692483.87149  -5970144.67248  21501000.6744   21500997.1314
      1019.9134
 04  9  2 16 21  0.0020000  0  6G20G 1G11G14G22G25
  -4504881.36349  -3505735.75447  23671461.2994   23671457.3734
      2522.6734
  -8368044.74249  -6516298.82047  22037199.7914   22037197.2684
      1530.0444
  -3798486.11749  -2944096.05947  21831070.1354   21831065.8544
      -148.9204
   9748432.62149   7571908.36347  22514196.7754   22514193.1824
     -2907.0154
  11728348.87549   9102052.14846  24558740.3854   24558736.2094
     -3201.2554
  -7707665.43049  -5981974.45348  21498111.7214   21498108.0184
      1012.1044
 04  9  2 16 21 15.0020000  0  6G20G 1G11G14G22G25
  -4542710.44549  -3535212.93047  23664263.0334   23664259.4244
      2521.9394
  -8390928.41049  -6534130.24647  22032845.0414   22032842.5024
      1525.5784
  -3796121.48049  -2942253.48847  21831520.3384   21831515.6824
      -157.6424
   9792070.25049   7605911.69547  22522500.6504   22522496.8614
     -2909.1754
  11776393.35549   9139489.35546  24567883.1894   24567879.0374
     -3202.9654
  -7722728.78549  -5993712.13348  21495245.3694   21495241.6894
      1004.2244
 04  9  2 16 21 30.0020000  0  6G20G 1G11G14G22G25
  -4580531.31649  -3564683.71947  23657065.3544   23657061.7604
      2521.3914
  -8413747.89549  -6551911.65247  22028502.8464   22028500.3184
      1521.2994
  -3793628.54349  -2940310.94947  21831994.6504   21831990.0494
      -166.1964
   9835737.26249   7639937.92247  22530809.9864   22530806.5534
     -2911.1344
  11824460.69949   9176944.40246  24577029.8614   24577025.9324
     -3204.4904
  -7737676.50049  -6005359.69548  21492400.7914   21492396.9904
       996.5144
 04  9  2 16 21 45.0020000  0  6G20G 1G11G14G22G25
  -4618343.71149  -3594147.89547  23649870.0414   23649866.3264
      2520.8264
  -8436503.25049  -6569643.09047  22024172.9244   22024169.9284
      1517.0244
  -3791007.59049  -2938268.65247  21832493.3614   21832488.6744
      -174.7304
   9879433.42249   7673986.86347  22539125.3074   22539121.3694
     -2913.0774
  11872550.86749   9214417.24646  24586181.2134   24586177.2834
     -3206.0114
  -7752508.62949  -6016917.19148  21489578.1894   21489574.7214
       988.8094
 04  9  2 16 22  0.0020000  0  6G20G 1G11G14G22G25
  -4656146.84849  -3623604.87547  23642676.3224   23642672.5644
      2520.2094
  -8459193.81249  -6587324.04747  22019854.9714   22019852.3544
      1512.7044
  -3788257.84849  -2936125.99647  21833016.2054   21833012.4004
      -183.3164
   9923159.10949   7708058.80947  22547446.1664   22547442.1864
     -2915.0464
  11920664.41449   9251908.27746  24595337.3614   24595332.9634
     -3207.5704
  -7767224.25849  -6028383.89848  21486778.0724   21486774.4244
       981.0424
 04  9  2 16 22 15.0020000  0  6G20G 1G11G14G22G25
  -4693941.87549  -3653055.54347  23635484.2754   23635480.2564
      2519.6684
  -8481820.84049  -6604955.48047  22015549.2834   22015546.3544
      1508.4684
  -3785380.61749  -2933884.00847  21833563.7214   21833559.6974
      -191.8154
   9966912.97349   7742152.71147  22555772.1744   22555768.1194
     -2916.9244
  11968800.02349   9289416.51246  24604496.9794   24604492.6544
     -3209.0414
  -7781824.57449  -6039760.77048  21483999.5884   21483995.8854
       973.3544
 04  9  2 16 22 30.0020000  0  6G20G 1G11G14G22G25
  -4731728.62949  -3682499.76647  23628293.5724   23628289.7484
      2519.1174
  -8504384.30549  -6622537.39847  22011255.4864   22011252.4824
      1504.2314
  -3782375.82449  -2931542.61747  21834135.5254   21834131.2444
      -200.3204
  10010694.85549   7776268.43847  22564103.6194   22564099.6704
     -2918.7924
  12016957.58649   9326941.84046  24613660.6434   24613656.3184
     -3210.5044
  -7796309.36749  -6051047.62148  21481242.8774   21481239.3614
       965.6534
 04  9  2 16 22 45.0020000  0  6G20G 1G11G14G22G25
  -4769505.23849  -3711936.08647  23621105.2684   23621101.2484
      2518.4414
  -8526882.55549  -6640068.49647  22006974.1824   22006971.4754
      1499.8834
  -3779241.58649  -2929100.35947  21834731.9554   21834727.6744
      -208.9494
  10054506.22749   7810407.16047  22572440.6974   22572437.1074
     -2920.7584
  12065138.84449   9364485.63346  24622829.4394   24622825.4984
     -3212.0844
  -7810676.80949  -6062243.02348  21478509.1664   21478505.6824
       957.8294
 04  9  2 16 23  0.0020000  0  6G20G 1G11G14G22G25
  -4807271.09049  -3741364.03147  23613918.2754   23613914.3464
      2517.7234
  -8549314.95349  -6657548.28147  22002705.2054   22002702.7254
      1495.4934
  -3775977.59049  -2926556.98847  21835353.5724   21835348.9434
      -217.6004
  10098347.48049   7844569.14847  22580783.0804   22580779.5764
     -2922.7504
  12113344.25049   9402048.25446  24632002.9244   24631999.0644
     -3213.6944
  -7824926.28549  -6073346.50048  21475797.1504   21475793.7754
       949.9654
 04  9  2 16 23 15.0020000  0  6G20G 1G11G14G22G25
  -4845026.38349  -3770783.73447  23606733.8694   23606729.5884
      2517.0204
  -8571681.87549  -6674977.04747  21998449.0804   21998446.1784
      1491.1284
  -3772584.13349  -2923912.74647  21835999.1114   21835994.5374
      -226.2304
  10142217.88749   7878753.87547  22589131.8464   22589127.9674
     -2924.6944
  12161573.42249   9439629.38747  24641180.4634   24641176.3694
     -3215.2784
  -7839058.01249  -6084358.23048  21473108.1434   21473104.9904
       942.1154
 04  9  2 16 23 30.0020000  0  6G20G 1G11G14G22G25
  -4882772.38349  -3800196.19147  23599550.8694   23599547.2914
      2516.4004
  -8593984.80149  -6692355.93747  21994205.3384   21994202.0614
      1486.8624
  -3769062.63349  -2921168.73047  21836669.3614   21836664.7254
      -234.7674
  10186115.94549   7912960.13747  22597485.3854   22597481.0884
     -2926.5374
  12209824.76249   9477227.81646  24650362.4394   24650358.5574
     -3216.7564
  -7853073.39849  -6095279.30548  21470441.2994   21470438.0214
       934.3594
 04  9  2 16 23 45.0020000  0  6G20G 1G11G14G22G25
  -4920507.93449  -3829600.50847  23592369.5964   23592366.5644
      2515.7034
  -8616222.58249  -6709684.07047  21989973.2214   21989970.2364
      1482.5194
  -3765412.04349  -2918324.11347  21837364.1354   21837359.6194
      -243.3734
  10230042.41849   7947188.53947  22605844.2134   22605840.1894
     -2928.4324
  12258099.31649   9514844.31646  24659549.0574   24659545.2684
     -3218.3044
  -7866971.21549  -6106108.76248  21467796.8144   21467793.3694
       926.5214
 04  9  2 16 24  0.0020000  0  6G20G 1G11G14G22G25
  -4958233.13349  -3858996.75447  23585190.9864   23585187.2444
      2515.0134
  -8638395.57849  -6726961.72347  21985754.0644   21985750.7914
      1478.2004
  -3761632.60549  -2915379.10547  21838083.2524   21838078.7404
      -251.9624
  10273996.85949   7981438.74647  22614208.7524   22614204.6504
     -2930.2964
  12306396.65649   9552478.55946  24668739.4634   24668735.4244
     -3219.8234
  -7880751.63749  -6116846.75448  21465174.1744   21465170.5294
       918.6954
 04  9  2 16 24 15.0020000  0  6G20G 1G11G14G22G25
  -4995945.14849  -3888382.71547  23578015.0724   23578010.8934
      2514.1344
  -8660501.14549  -6744186.83247  21981547.7364   21981544.4984
      1473.7044
  -3757721.66049  -2912331.62147  21838827.5414   21838822.9394
      -260.7304
  10317981.75049   8015712.67247  22622578.4794   22622574.5644
     -2932.3264
  12354719.43049   9590132.62546  24677934.7914   24677931.3224
     -3221.5184
  -7894411.93749  -6127491.14148  21462574.5254   21462571.0184
       910.6874
 04  9  2 16 24 30.0020000  0  6G20G 1G11G14G22G25
  -5033644.77749  -3917759.04747  23570841.1664   23570836.5844
      2513.3094
  -8682540.13349  -6761360.07047  21977353.5254   21977350.5574
      1469.2664
  -3753680.07049  -2909182.33247  21839596.4244   21839592.1824
      -269.4394
  10361996.05549   8050009.51247  22630954.1824   22630950.9324
     -2934.2874
  12403066.70749   9627805.80147  24687135.5644   24687131.3694
     -3223.1524
  -7907952.76649  -6138042.42648  21459997.9794   21459994.3814
       902.7224
 04  9  2 16 24 45.0020000  0  6G20G 1G11G14G22G25
  -5071331.28149  -3947125.14847  23563669.6044   23563665.2364
      2512.4344
  -8704511.91049  -6778480.92647  21973172.2754   21973169.5144
      1464.7854
  -3749507.19949  -2905930.74647  21840390.4324   21840386.1934
      -278.1914
  10406040.15649   8084329.57847  22639335.5024   22639331.4124
     -2936.2734
  12451438.93049   9665498.42247  24696340.6584   24696336.8224
     -3224.8154
  -7921373.55949  -6148500.18448  21457444.1974   21457440.5534
       894.7204
 04  9  2 16 25  0.0020000  0  6G20G 1G11G14G22G25
  -5109006.20749  -3976482.23447  23556500.0254   23556495.9514
      2511.6624
  -8726418.19949  -6795550.76647  21969003.8074   21969000.6584
      1460.4194
  -3745204.84449  -2902578.27347  21841209.4394   21841204.7754
      -286.8244
  10450112.07849   8118671.32047  22647722.1744   22647718.5334
     -2938.1284
  12499834.43049   9703209.16447  24705549.9864   24705545.5374
     -3226.3674
  -7934675.83249  -6158865.58248  21454912.6584   21454909.3304
       886.8184
 04  9  2 16 25 15.0020000  0  6G20G 1G11G14G22G25
  -5146668.01649  -4005829.09447  23549333.4864   23549329.0024
      2510.7874
  -8748257.62149  -6812568.48847  21964847.7364   21964845.0254
      1455.9614
  -3740771.69549  -2899123.88747  21842052.7364   21842048.8074
      -295.5434
  10494212.90649   8153035.59047  22656114.2524   22656110.5884
     -2940.0554
  12548254.44949   9740939.01246  24714763.6974   24714759.9554
     -3228.0014
  -7947858.01249  -6169137.40248  21452404.4794   21452400.4634
       878.8124
 04  9  2 16 25 30.0020000  0  6G20G 1G11G14G22G25
  -5184317.35949  -4035166.24647  23542169.0494   23542165.3574
      2509.9564
  -8770031.03549  -6829534.77347  21960704.4944   21960701.4824
      1451.5614
  -3736208.56249  -2895568.19947  21842921.3144   21842916.9864
      -304.2094
  10538341.73049   8187421.67247  22664511.8694   22664508.1314
     -2941.9224
  12596698.15249   9778687.28547  24723982.6744   24723978.7174
     -3229.5804
  -7960920.75849  -6179316.16848  21449918.7294   21449914.9204
       870.8504
 04  9  2 16 25 45.0020000  0  5G20G 1G11G14G25
  -5221951.34049  -4064491.41047  23535007.1434   23535003.7014
      2508.9324
  -8791735.64149  -6846447.44947  21956573.9324   21956570.8734
      1446.9744
  -3731512.50449  -2891908.94147  21843814.6664   21843810.3574
      -313.0714
  10582501.24649   8221831.66447  22672915.2604   22672911.6074
     -2943.9684
  -7973861.32449  -6189399.71948  21447456.0414   21447452.3734
       862.7044
 04  9  2 16 26  0.0020000  0  5G20G 1G11G14G25
  -5259569.12549  -4093803.94547  23527848.1584   23527845.3964
      2507.8524
  -8813370.70349  -6863305.93047  21952457.2054   21952453.9474
      1442.3384
  -3726682.90249  -2888145.62147  21844733.6114   21844729.4164
      -321.9734
  10626691.86349   8256265.89547  22681324.1434   22681320.5644
     -2946.0414
  -7986678.91049  -6199387.44148  21445016.9394   21445013.3144
       854.5064
 04  9  2 16 26 15.0020000  0  5G20G 1G11G14G25
  -5297172.79349  -4123105.49647  23520693.0254   23520689.6664
      2506.9114
  -8834938.46549  -6880111.98047  21948353.1354   21948349.8964
      1437.8514
  -3721721.96149  -2884279.96547  21845677.6354   21845673.5614
      -330.7294
  10670911.16849   8290722.48447  22689738.7684   22689734.8114
     -2947.9544
  -7999375.66849  -6209281.02048  21442600.8774   21442597.4634
       846.4514
 04  9  2 16 26 30.0020000  0  5G20G 1G11G14G25
  -5334761.25849  -4152395.19947  23513540.1664   23513536.7954
      2505.8984
  -8856438.03949  -6896864.89547  21944261.9634   21944258.4824
      1433.3054
  -3716628.81649  -2880311.28547  21846646.9554   21846642.5574
      -339.5434
  10715159.91849   8325202.00447  22698159.1504   22698155.7134
     -2949.9174
  -8011950.62549  -6219079.67648  21440207.8614   21440204.2054
       838.3304
 04  9  2 16 26 45.0020000  0  5G20G 1G11G14G25
  -5372332.54349  -4181671.51247  23506390.6354   23506386.8694
      2504.7524
  -8877867.52749  -6913563.18747  21940183.9164   21940180.5884
      1428.6334
  -3711401.48849  -2876238.05147  21847641.5254   21847637.5254
      -348.4894
  10759439.66849   8359705.68847  22706585.2294   22706581.1624
     -2951.9834
  -8024401.66449  -6228781.77348  21437838.5184   21437835.0684
       830.0694
 04  9  2 16 27  0.0020000  0  5G20G 1G11G14G25
  -5409884.62149  -4210932.85547  23499244.6354   23499241.0184
      2503.4724
  -8899225.19549  -6930205.52047  21936119.6434   21936116.8034
      1423.8454
  -3706038.26249  -2872058.91447  21848662.1354   21848658.2524
      -357.5484
  10803751.97349   8394234.73447  22715017.6194   22715013.4674
     -2954.1544
  -8036726.87149  -6238385.82848  21435493.1504   21435489.3574
       821.6804
 04  9  2 16 27 15.0020000  0  5G20G 1G11G14G25
  -5447418.11349  -4240179.73047  23492101.8854   23492097.9474
      2502.2334
  -8920511.69949  -6946792.39847  21932068.5964   21932065.7994
      1419.1004
  -3700539.96549  -2867774.53947  21849708.5184   21849704.1234
      -366.5534
  10848095.99249   8428788.50447  22723455.8464   22723452.3464
     -2956.2684
  -8048926.96549  -6247892.38348  21433171.4864   21433167.6154
       813.3404
 04  9  2 16 27 30.0020000  0  5G20G 1G11G14G25
  -5484933.55149  -4269412.52047  23484962.8384   23484959.1544
      2501.0294
  -8941727.71949  -6963324.35247  21928031.6044   21928028.9044
      1414.4014
  -3694907.22749  -2863385.39847  21850780.3144   21850776.3544
      -375.5164
  10892470.87949   8463366.31647  22731900.1584   22731896.2714
     -2958.3264
  -8061002.51249  -6257301.89848  21430873.3694   21430869.9394
       805.0364
 04  9  2 16 27 45.0020000  0  5G20G 1G11G14G25
  -5522431.25049  -4298631.49247  23477827.4244   23477823.2834
      2499.8474
  -8962873.76249  -6979801.78547  21924007.8614   21924004.6314
      1409.7364
  -3689140.59849  -2858891.93747  21851877.8144   21851873.6314
      -384.4424
  10936876.02749   8497967.70747  22740350.0574   22740346.6744
     -2960.3434
  -8072953.79349  -6266614.58248  21428599.2134   21428595.6154
       796.7524
 04  9  2 16 28  0.0020000  0  5G20G 1G11G14G25
  -5559908.57049  -4327834.58647  23470695.7834   23470691.8734
      2498.4884
  -8983947.33649  -6996222.74247  21919997.1194   21919994.4984
      1404.9054
  -3683237.61749  -2854292.21547  21853001.2754   21852996.7994
      -393.5324
  10981313.63749   8532594.40647  22748806.5334   22748802.6544
     -2962.5074
  -8084778.34449  -6275828.50848  21426349.4864   21426345.6354
       788.3034
 04  9  2 16 28 15.0020000  0  5G20G 1G11G14G25
  -5597368.15649  -4357023.87547  23463567.5574   23463563.4824
      2497.3064
  -9004951.28949  -7012589.45347  21916000.7444   21915997.8184
      1400.2644
  -3677200.97349  -2849588.34047  21854150.2054   21854145.9824
      -402.4434
  11025780.68849   8567244.03147  22757268.2754   22757264.8074
     -2964.4704
  -8096478.87949  -6284945.80548  21424122.6274   21424119.3034
       780.0364
 04  9  2 16 28 30.0020000  0  5G20G 1G11G14G25
  -5634810.30549  -4386199.57847  23456442.5184   23456438.6824
      2496.1434
  -9025886.00449  -7028902.21547  21912017.2054   21912013.7524
      1395.6484
  -3671031.12949  -2844780.68747  21855324.1274   21855319.7294
      -411.3234
  11070276.58249   8601916.14147  22765735.4004   22765732.0374
     -2966.3934
  -8108055.74649  -6293966.73048  21421919.6194   21421916.3114
       771.7914
 04  9  2 16 28 45.0020000  0  5G20G 1G11G14G25
  -5672235.17249  -4415361.80947  23449320.8074   23449317.4164
      2494.9914
  -9046751.74649  -7045161.23047  21908046.3384   21908043.2914
      1391.0494
  -3664728.43049  -2839869.49647  21856523.6194   21856519.0414
      -420.1804
  11114800.88749   8636610.38347  22774208.2914   22774204.4904
     -2968.2874
  -8119509.07049  -6302891.39148  21419740.0574   21419736.4284
       763.5554
 04  9  2 16 29  0.0020000  0  5G20G 1G11G14G25
  -5709643.26649  -4444510.94547  23442202.5574   23442198.7714
      2493.8734
  -9067549.25849  -7061367.07847  21904088.7214   21904085.4984
      1386.5014
  -3658293.63349  -2834855.37947  21857748.2054   21857743.5534
      -428.9864
  11159352.67249   8671326.03947  22782686.0884   22782682.7174
     -2970.1194
  -8130839.43749  -6311720.24648  21417583.8464   21417580.5574
       755.3584
 04  9  2 16 29 15.0020000  0  5G20G 1G11G14G25
  -5747034.22349  -4473646.75047  23435087.1974   23435083.5024
      2492.7304
  -9088278.32449  -7077519.59447  21900143.6274   21900140.9164
      1381.9384
  -3651726.57049  -2829738.19147  21858997.7754   21858993.2294
      -437.8044
  11203932.02349   8706063.17647  22791169.3614   22791166.2014
     -2971.9574
  -8142046.58649  -6320453.08248  21415451.1354   21415447.6744
       747.1434
 04  9  2 16 29 30.0020000  0  5G20G 1G11G14G25
  -5784408.87549  -4502769.84447  23427974.8304   23427971.1664
      2491.6434
  -9108939.90649  -7093619.51647  21896211.9084   21896208.8814
      1377.4394
  -3645028.18749  -2824518.68447  21860272.0334   21860267.7754
      -446.5594
  11248537.63749   8740820.78147  22799657.6354   22799653.7954
     -2973.7084
  -8153131.53149  -6329090.69548  21413342.1824   21413338.4364
       738.9964
 04  9  2 16 29 45.0020000  0  5G20G 1G11G14G25
  -5821768.48449  -4531881.21547  23420865.8934   23420861.6664
      2490.6414
  -9129535.62149  -7109668.11347  21892292.7914   21892289.7094
      1373.0484
  -3638200.08249  -2819198.08247  21861571.5644   21861567.4514
      -455.2074
  11293167.85949   8775597.56347  22808150.5414   22808146.6074
     -2975.3484
  -8164095.59849  -6337634.12148  21411255.6824   21411252.0294
       730.9384
 04  9  2 16 30  0.0020000  0  5G20G 1G11G14G25
  -5859112.00849  -4560980.06647  23413759.5024   23413755.2604
      2489.5684
  -9150064.37549  -7125664.53547  21888386.5724   21888383.3504
      1368.5844
  -3631241.20349  -2813775.58647  21862895.8304   21862891.4004
      -463.9254
  11337823.53549   8810394.17247  22816648.0104   22816644.2254
     -2977.0454
  -8174937.63749  -6346082.45748  21409192.5644   21409189.3424
       722.8034
 04  9  2 16 30 15.0020000  0  5G20G 1G11G14G25
  -5896439.67249  -4590066.55947  23406656.0804   23406652.2054
      2488.5114
  -9170526.55949  -7141609.09447  21884492.4324   21884489.4984
      1364.1464
  -3624152.02349  -2808251.55947  21864244.8464   21864240.6114
      -472.6124
  11382504.16449   8845210.23847  22825150.9794   22825146.7954
     -2978.7094
  -8185657.93049  -6354435.92248  21407152.6044   21407148.9864
       714.6864
 04  9  2 16 30 30.0020000  0  5G20G 1G11G14G25
  -5933752.65649  -4619141.61747  23399555.6664   23399551.9394
      2487.5324
  -9190923.63349  -7157502.92247  21880611.3304   21880608.0454
      1359.8054
  -3616933.85549  -2802627.02347  21865618.4554   21865614.2444
      -481.2114
  11427208.10549   8880044.46147  22833657.8224   22833653.9714
     -2980.2634
  -8196257.77349  -6362695.54348  21405135.3614   21405131.5214
       706.6564
 04  9  2 16 30 45.0020000  0  5G20G 1G11G14G25
  -5971050.60249  -4648204.93447  23392457.7914   23392454.2444
      2486.5304
  -9211255.41049  -7173345.85947  21876742.2214   21876738.9824
      1355.4524
  -3609586.70349  -2796901.97747  21867016.6824   21867012.3504
      -489.8104
  11471935.31349   8914896.82447  22842168.7364   22842165.0534
     -2981.8144
  -8206737.06649  -6370861.21948  21403141.1274   21403137.3114
       698.6204
 04  9  2 16 31  0.0020000  0  5G20G 1G11G14G25
  -6008332.51249  -4677255.76247  23385363.4394   23385359.8424
      2485.4614
  -9231521.00049  -7189137.23047  21872885.6664   21872882.8264
      1351.0394
  -3602109.51649  -2791075.60547  21868439.4164   21868434.9794
      -498.4794
  11516686.52349   8949767.87147  22850684.4004   22850680.9904
     -2983.4144
  -8217094.82849  -6378932.18748  21401170.2054   21401166.2214
       690.5174
 04  9  2 16 31 15.0020000  0  5G20G 1G11G14G25
  -6045598.36749  -4706294.07047  23378272.0644   23378269.0454
      2484.3904
  -9251720.51249  -7204877.10247  21869041.9244   21869038.9244
      1346.6344
  -3594502.57849  -2785148.12947  21869887.1974   21869882.7994
      -507.1294
  11561461.34849   8984657.32447  22859205.0184   22859201.4284
     -2984.9884
  -8227331.04749  -6386908.45348  21399222.0104   21399218.5254
       682.4154
 04  9  2 16 31 30.0020000  0  5G20G 1G11G14G25
  -6082847.89849  -4735319.66847  23371183.5414   23371180.4324
      2483.3024
  -9271853.87149  -7220565.43047  21865210.4004   21865207.5884
      1342.2244
  -3586765.88749  -2779119.54347  21871359.0024   21871354.7794
      -515.7794
  11606259.84049   9019565.21947  22867729.9554   22867725.7754
     -2986.5664
  -8237445.50849  -6394789.84448  21397297.3304   21397293.9634
       674.2974
 04  9  2 16 31 45.0020000  0  5G20G 1G11G14G25
  -6120082.13349  -4764333.34447  23364098.2994   23364095.0614
      2482.2824
  -9291922.18049  -7236203.06647  21861391.9634   21861388.6154
      1337.8874
  -3578900.59049  -2772990.75047  21872855.9084   21872851.5844
      -524.3534
  11651080.64549   9054490.51247  22876259.2134   22876255.3144
     -2988.0544
  -8247439.27049  -6402577.19148  21395396.0104   21395392.1314
       666.2514
 04  9  2 16 32  0.0020000  0  5G20G 1G11G14G25
  -6157301.18749  -4793335.20747  23357015.9324   23357012.3384
      2481.2704
  -9311925.84849  -7251790.33647  21857585.4324   21857582.2834
      1333.5784
  -3570906.93449  -2766761.93747  21874376.6584   21874373.1464
      -532.9104
  11695923.18049   9089432.73447  22884792.5644   22884788.7364
     -2989.5024
  -8257312.52049  -6410270.62948  21393516.9554   21393513.2014
       658.2174
 04  9  2 16 32 15.0020000  0  5G20G 1G11G14G25
  -6194502.50449  -4822323.23447  23349936.8774   23349932.8384
      2480.0884
  -9331862.44149  -7267325.34047  21853791.3384   21853788.5254
      1329.1064
  -3562782.58249  -2760431.28147  21875923.1504   21875919.1784
      -541.6234
  11740789.65249   9124393.60947  22893330.0024   22893326.8654
     -2991.0984
  -8267062.90649  -6417868.32848  21391661.5104   21391658.1114
       650.0264
 04  9  2 16 32 30.0020000  0  5G20G 1G11G14G25
  -6231687.80149  -4851298.80147  23342860.4324   23342856.7294
      2479.0204
  -9351733.89549  -7282809.58247  21850009.9944   21850006.8854
      1324.7644
  -3554529.54349  -2754000.35247  21877493.5254   21877489.5184
      -550.2034
  11785678.01249   9159371.53147  22901871.9394   22901868.4944
     -2992.5574
  -8276692.34449  -6425371.78148  21389828.9084   21389825.3734
       641.9634
 04  9  2 16 32 45.0020000  0  6G20G 1G11G14G23G25
  -6268856.60949  -4880261.49247  23335787.1974   23335783.9084
      2477.9214
  -9371539.85949  -7298242.80147  21846241.1664   21846237.9554
      1320.3984
  -3546147.52049  -2747468.91447  21879088.4554   21879084.6784
      -558.8024
  11830588.38749   9194366.60947  22910418.7994   22910414.7444
     -2994.0254
    -93950.27059    -63441.32857  24693620.3384   24693615.1234

  -8286200.28949  -6432780.55948  21388019.8464   21388016.1824
       633.8634
 04  9  2 16 33  0.0020000  0  6G20G 1G11G14G23G25
  -6306007.75049  -4909210.43447  23328717.9004   23328714.1744
      2476.7434
  -9391279.31249  -7313624.18447  21842484.7604   21842481.9124
      1315.9644
  -3537635.43749  -2740836.13347  21880708.2214   21880704.3034
      -567.4724
  11875521.63349   9229379.51647  22918968.7524   22918965.3854
     -2995.5504
   -133640.48049    -94368.75047  24686067.3544   24686062.2134
      2646.0144
  -8295585.66449  -6440093.83648  21386233.9394   21386230.3894
       625.6924
 04  9  2 16 33 15.0020000  0  6G20G 1G11G14G23G25
  -6343145.17649  -4938148.67647  23321651.1894   23321647.2404
      2475.8284
  -9410956.39849  -7328956.97747  21838739.9164   21838736.8424
      1311.8064
  -3528997.67649  -2734105.41847  21882352.2444   21882347.8774
      -575.8514
  11920473.44149   9264406.88347  22927523.1744   22927519.4474
     -2996.7874
   -173311.27349   -125281.01246  24678518.1274   24678512.6544
      2644.7204
  -8304852.38349  -6447314.64848  21384470.2364   21384466.7644
       617.7814
 04  9  2 16 33 30.0020000  0  6G20G 1G11G14G23G25
  -6380266.53549  -4967074.39847  23314587.1274   23314582.8224
      2474.7574
  -9430569.00449  -7344239.52047  21835008.1664   21835004.7994
      1307.5074
  -3520231.94549  -2727274.99247  21884020.2914   21884015.9634
      -584.3824
  11965445.84049   9299450.29347  22936081.3464   22936077.1274
     -2998.1604
   -212960.48849   -156176.48047  24670973.0254   24670968.5294
      2643.2814
  -8313998.29349  -6454441.33248  21382729.9394   21382726.1004
       609.7274
 04  9  2 16 33 45.0020000  0  6G20G 1G11G14G23G25
  -6417373.25049  -4995988.72347  23307526.2834   23307521.9244
      2473.7814
  -9450118.70749  -7359473.04747  21831287.7364   21831285.0184
      1303.3144
  -3511339.82849  -2720346.07447  21885712.6504   21885708.2294
      -592.8084
  12010437.12149   9334508.42247  22944642.1974   22944638.9824
     -2999.4194
   -252589.52049   -187056.21546  24663432.2364   24663427.2364
      2641.9354
  -8323024.98449  -6461475.11348  21381012.3144   21381008.4124
       601.7794
 04  9  2 16 34  0.0020000  0  6G20G 1G11G14G23G25
  -6454463.83649  -5024890.46547  23300468.1114   23300463.7644
      2472.7064
  -9469604.13349  -7374656.49647  21827580.1274   21827576.7444
      1299.0284
  -3502320.15249  -2713317.76247  21887428.9794   21887424.7754
      -601.3124
  12055448.32449   9369582.05547  22953207.8144   22953204.6004
     -3000.7474
   -292197.02049   -217919.18046  24655895.1354   24655890.0644
      2640.5004
  -8331931.07049  -6468414.92248  21379317.6114   21379313.9594
       593.7394
 04  9  2 16 34 15.0020000  0  6G20G 1G11G14G23G25
  -6491539.05149  -5053780.24247  23293412.1044   23293408.0644
      2471.6814
  -9489026.25849  -7389790.61347  21823884.1744   21823881.2094
      1294.8084
  -3493173.85249  -2706190.77347  21889169.2604   21889165.5214
      -609.7534
  12100478.35249   9404670.36347  22961777.2914   22961773.1354
     -3002.0024
   -331783.89549   -248766.08246  24648361.3934   24648356.6894
      2639.1254
  -8340717.51249  -6475261.49648  21377645.3854   21377641.9044
       585.7634
 04  9  2 16 34 30.0020000  0  6G20G 1G11G14G23G25
  -6528595.64549  -5082655.50447  23286360.6354   23286356.8934
      2470.4404
  -9508382.02349  -7404873.02347  21820200.7444   21820198.0374
      1290.3844
  -3483897.88349  -2698962.75847  21890934.7294   21890930.3614
      -618.3984
  12145530.05949   9439775.57847  22970350.2604   22970346.6864
     -3003.4474
   -371347.02749   -279594.46146  24640832.6894   24640827.8224
      2637.5424
  -8349381.00049  -6482012.25048  21375996.8074   21375993.2714
       577.5664
 04  9  2 16 34 45.0020000  0  6G20G 1G11G14G23G25
  -6565635.09049  -5111517.39547  23279311.9634   23279308.6044
      2469.2964
  -9527673.08649  -7419905.01647  21816529.8224   21816526.9004
      1286.0714
  -3474493.98449  -2691635.05147  21892723.9004   21892719.7054
      -626.9274
  12190601.65649   9474896.27747  22978926.5724   22978923.1314
     -3004.7734
   -410887.92249   -310405.52746  24633308.2754   24633303.4004
      2636.0604
  -8357923.12949  -6488668.45348  21374371.3544   21374368.0454
       569.4754
 04  9  2 16 35  0.0020000  0  6G20G 1G11G14G23G25
  -6602656.50449  -5140365.24247  23272267.4004   23272263.8034
      2468.0944
  -9546898.70349  -7434886.00847  21812871.0254   21812868.2484
      1281.7084
  -3464961.43449  -2684207.10247  21894537.9634   21894533.6544
      -635.5034
  12235693.72749   9510032.93847  22987507.3384   22987503.7834
     -3006.1384
   -450405.79349   -341198.65646  24625789.4944   24625783.5924
      2634.5254
  -8366343.15649  -6495229.51248  21372769.1894   21372765.5574
       561.3354
 04  9  2 16 35 15.0020000  0  6G20G 1G11G14G23G25
  -6639658.28549  -5169197.78147  23265226.1114   23265222.7214
      2466.7854
  -9566057.45349  -7449814.89147  21809225.1974   21809222.4474
      1277.2504
  -3455298.89549  -2676677.85947  21896376.7364   21896372.4204
      -644.1694
  12280807.51649   9545186.52047  22996092.0184   22996088.2714
     -3007.5864
   -489899.20349   -371972.71146  24618272.7684   24618267.8654
      2632.8944
  -8374639.60549  -6501694.27748  21371190.3074   21371186.8344
       553.0974
 04  9  2 16 35 30.0020000  0  6G20G 1G11G14G23G25
  -6676639.32049  -5198014.16447  23258189.1434   23258185.1864
      2465.4024
  -9585148.34049  -7464690.90647  21805592.4324   21805589.6704
      1272.7264
  -3445505.42649  -2669046.59047  21898240.2604   21898236.2524
      -652.8984
  12325943.80149   9580357.62947  23004681.6044   23004677.8654
     -3009.0864
   -529367.08649   -402726.86346  24610762.2684   24610757.4394
      2631.1924
  -8382811.44149  -6508061.93448  21369635.3544   21369631.7174
       544.7894
 04  9  2 16 35 45.0020000  0  6G20G 1G11G14G23G25
  -6713601.42649  -5226815.80547  23251155.4004   23251151.7794
      2464.1404
  -9604173.53549  -7479515.73447  21801972.1664   21801969.2874
      1268.3464
  -3435583.25049  -2661315.02747  21900128.8464   21900124.1114
      -661.4784
  12371100.30549   9615544.50447  23013274.7834   23013271.0724
     -3010.4344
   -568811.43749   -433462.69946  24603255.8854   24603251.3224
      2629.6234
  -8390860.75849  -6514334.13348  21368103.8074   21368100.3384
       536.6214
 04  9  2 16 36  0.0020000  0  6G20G 1G11G14G23G25
  -6750543.37149  -5255601.73047  23244125.8144   23244122.3654
      2462.7964
  -9623131.92649  -7494288.48847  21798364.5964   21798361.4794
      1263.8934
  -3425531.22749  -2653482.28947  21902041.2294   21902037.3504
      -670.1354
  12416277.88749   9650747.79747  23021871.6504   23021867.8934
     -3011.8394
   -608231.04749   -464179.25846  24595755.2444   24595750.2404
      2627.9744
  -8398786.07449  -6520509.68748  21366595.2604   21366591.9284
       528.3544
 04  9  2 16 36 15.0020000  0  6G20G 1G11G14G23G25
  -6787466.36349  -5284372.87147  23237099.1744   23237095.7684
      2461.5334
  -9642024.92649  -7509010.31247  21794769.2684   21794766.1934
      1259.5334
  -3415350.77349  -2645549.47747  21903978.2214   21903974.4594
      -678.6974
  12461475.12549   9685966.40647  23030472.2054   23030469.0064
     -3013.1494
   -647627.30149   -494877.62546  24588258.4324   24588253.0614
      2626.4174
  -8406588.89549  -6526589.80548  21365110.3464   21365106.8774
       520.1884
 04  9  2 16 36 30.0020000  0  6G20G 1G11G14G23G25
  -6824368.55149  -5313127.82447  23230076.6044   23230073.3264
      2460.1464
  -9660850.78949  -7523679.81247  21791187.0254   21791184.0334
      1255.0584
  -3405040.27349  -2637515.33647  21905940.4554   21905936.2644
      -687.3674
  12506693.62149   9721201.56347  23039077.1894   23039073.4984
     -3014.5664
   -686998.36349   -525556.34046  24580765.9554   24580760.8384
      2624.7384
  -8414267.35549  -6532573.02348  21363649.5414   21363645.6584
       511.8974
 04  9  2 16 36 45.0020000  0  6G20G 1G11G14G23G25
  -6861250.95349  -5341867.35247  23223058.6114   23223055.2644
      2458.8274
  -9679610.66849  -7538297.89547  21787616.9634   21787614.1504
      1250.6594
  -3394600.91449  -2629380.77747  21907927.2684   21907922.7644
      -695.9574
  12551931.91449   9756452.17647  23047685.7054   23047681.7914
     -3015.8864
   -726345.23049   -556216.23046  24573278.6664   24573273.1314
      2623.1244
  -8421822.70749  -6538460.30148  21362211.7754   21362207.8694
       503.6904
 04  9  2 16 37  0.0020000  0  6G20G 1G11G14G23G25
  -6898112.39149  -5370590.53547  23216044.1744   23216040.4674
      2457.4294
  -9698303.69549  -7552863.88347  21784059.9164   21784056.7254
      1246.2024
  -3384031.83649  -2621145.14147  21909938.2294   21909934.0724
      -704.6054
  12597190.82049   9791718.84047  23056298.1894   23056294.3654
     -3017.2604
   -765667.10549   -586856.63746  24565795.5724   24565790.2294
      2621.4584
  -8429253.99649  -6544250.91848  21360797.6744   21360793.8574
       495.4194
 04  9  2 16 37 15.0020000  0  6G20G 1G11G14G23G25
  -6934952.79349  -5399297.32847  23209033.2134   23209029.9674
      2456.0274
  -9716929.95749  -7567377.84847  21780515.2604   21780512.7094
      1241.7514
  -3373333.16049  -2612808.51647  21911974.1274   21911969.8854
      -713.2454
  12642470.03149   9827001.32047  23064914.8544   23064911.3894
     -3018.6144
   -804963.94549   -617477.55146  24558318.1664   24558312.3894
      2619.7894
  -8436561.27349  -6549944.89148  21359406.7214   21359403.4474
       487.1524
 04  9  2 16 37 30.0020000  0  6G20G 1G11G14G23G25
  -6971770.69149  -5427986.60247  23202027.4394   23202023.7644
      2454.5274
  -9735488.17249  -7581838.79347  21776983.7214   21776980.5924
      1237.2144
  -3362503.73849  -2604370.01647  21914034.9794   21914030.6074
      -721.9614
  12687770.76249   9862300.56647  23073534.6744   23073531.7214
     -3020.0494
   -844234.44149   -648077.92646  24550845.3304   24550839.8694
      2618.0334
  -8443743.14549  -6555541.16048  21358040.7364   21358036.4514
       478.7914
 04  9  2 16 37 45.0020000  0  6G20G 1G11G14G23G25
  -7008569.71149  -5456661.15247  23195024.6354   23195021.2604
      2453.2684
  -9753982.07449  -7596249.62147  21773464.5414   21773461.2754
      1232.9274
  -3351547.39849  -2595832.60947  21916120.1504   21916115.5924
      -730.4234
  12733089.01649   9897613.48047  23082159.3144   23082155.1274
     -3021.2174
   -883482.15649   -678660.53146  24543376.4394   24543371.2994
      2616.5144
  -8450803.19549  -6561042.48848  21356697.0964   21356693.4004
       470.6704
 04  9  2 16 38  0.0020000  0  6G20G 1G11G14G23G25
  -7045347.29749  -5485319.00047  23188026.0644   23188022.6394
      2451.8394
  -9772409.38349  -7610608.55947  21769957.9794   21769955.0414
      1228.4874
  -3340461.80149  -2587194.49647  21918229.4944   21918225.1664
      -739.0404
  12778426.93449   9932941.70347  23090786.0104   23090782.6584
     -3022.5284
   -922704.71549   -709223.56646  24535912.4244   24535908.0214
      2614.8374
  -8457739.13349  -6566447.11348  21355377.2214   21355373.7294
       462.3964
 04  9  2 16 38 15.0020000  0  6G20G 1G11G14G23G25
  -7082100.83249  -5513958.11747  23181032.0184   23181028.4594
      2450.2364
  -9790767.73849  -7624913.76647  21766464.8694   21766461.6194
      1223.8904
  -3329244.69949  -2578453.90647  21920364.1664   21920359.5884
      -747.8074
  12823786.76649   9968287.00847  23099417.7364   23099414.1114
     -3023.9894
   -961899.67649   -739765.08246  24528454.0724   24528449.0184
      2612.9974
  -8464548.58649  -6571753.17248  21354081.2684   21354077.8144
       453.9644
 04  9  2 16 38 30.0020000  0  6G20G 1G11G14G23G25
  -7118833.18749  -5542580.71947  23174042.4164   23174038.7094
      2448.8244
  -9809060.10249  -7639167.54747  21762983.7134   21762980.8734
      1219.4914
  -3317899.09049  -2569613.18047  21922523.0334   21922518.8264
      -756.3744
  12869165.37549  10003646.94947  23108053.1974   23108049.4714
     -3025.2414
  -1001069.95749   -770287.35946  24521000.1194   24520995.0764
      2611.3524
  -8471234.38349  -6576962.87948  21352808.9004   21352805.5214
       445.7204
 04  9  2 16 38 45.0020000  0  6G20G 1G11G14G23G25
  -7155542.94149  -5571185.71147  23167056.5964   23167052.8854
      2447.3174
  -9827285.26249  -7653368.96947  21759515.2054   21759512.1664
      1215.0114
  -3306423.81649  -2560671.41847  21924706.6824   21924702.3264
      -765.0184
  12914563.74249  10039022.29747  23116692.3774   23116688.6584
     -3026.5584
  -1040214.30149   -800789.44946  24513551.4244   24513545.9004
      2609.6234
  -8477795.29749  -6582075.27748  21351560.4474   21351556.8734
       437.3944
 04  9  2 16 39  0.0020000  0  6G20G 1G11G14G23G25
  -7192229.36349  -5599772.52347  23160075.2134   23160071.7254
      2445.7614
  -9845442.64549  -7667517.56647  21756059.6434   21756057.2564
      1210.4924
  -3294818.30149  -2551628.16447  21926915.3074   21926911.1314
      -773.7014
  12959982.38749  10074413.41847  23125334.8074   23125331.9394
     -3027.9104
  -1079331.98049   -831270.72346  24506107.9164   24506102.5254
      2607.8454
  -8484230.67649  -6587089.85548  21350335.9004   21350332.1314
       429.0254
 04  9  2 16 39 15.0020000  0  6G20G 1G11G14G23G25
  -7228892.00049  -5628340.81247  23153099.0334   23153094.7364
      2444.1764
  -9863532.02349  -7681613.18447  21752617.5804   21752614.7794
      1205.9594
  -3283082.42249  -2542483.32847  21929148.5884   21929144.2644
      -782.3924
  13005421.41049  10109820.42647  23133982.3544   23133978.2994
     -3029.2684
  -1118422.66449   -861730.98046  24498668.7364   24498663.9324
      2606.0464
  -8490540.14549  -6592006.32048  21349135.0104   21349131.6274
       420.6314
 04  9  2 16 39 30.0020000  0  6G20G 1G11G14G23G25
  -7265532.03149  -5656891.47747  23146126.4324   23146122.2714
      2442.6694
  -9881554.81249  -7695656.90647  21749188.5574   21749185.3424
      1201.5194
  -3271217.62149  -2533238.03547  21931406.2914   21931402.0294
      -790.9874
  13050879.27349  10145242.11747  23142631.8774   23142628.7604
     -3030.5244
  -1157487.74249   -892171.28946  24491234.6584   24491230.1864
      2604.3394
  -8496725.20749  -6596825.84448  21347958.2134   21347954.8384
       412.3374
 04  9  2 16 39 45.0020000  0  6G20G 1G11G14G23G25
  -7302147.26249  -5685422.81247  23139158.5254   23139154.6464
      2441.0154
  -9899509.09049  -7709647.25847  21745771.8074   21745769.3034
      1196.9524
  -3259222.13349  -2523890.91847  21933688.7834   21933684.8264
      -799.6994
  13096357.65649  10180679.80147  23151287.0494   23151283.0254
     -3031.8924
  -1196525.10249   -922589.98846  24483806.0414   24483801.6004
      2602.4914
  -8502783.84049  -6601546.85248  21346805.2294   21346801.9124
       403.9094
 04  9  2 16 40  0.0020000  0  6G20G 1G11G14G23G25
  -7338739.28149  -5713936.07047  23132195.5574   23132191.7214
      2439.4684
  -9917396.49249  -7723585.48847  21742367.7914   21742364.8344
      1192.4934
  -3247097.64149  -2514443.26247  21935996.4634   21935992.1744
      -808.2994
  13141854.69949  10216132.01647  23159944.5804   23159941.4984
     -3033.1364
  -1235536.44549   -952988.42646  24476382.2754   24476378.0374
      2600.7564
  -8508717.53149  -6606170.50448  21345676.1504   21345672.6664
       395.5794
 04  9  2 16 40 15.0020000  0  6G20G 1G11G14G23G25
  -7375307.49249  -5742430.76647  23125236.8144   23125232.9794
      2437.8814
  -9935216.60949  -7737471.28947  21738976.8694   21738973.5454
      1188.0084
  -3234843.79349  -2504894.82047  21938327.8774   21938323.8894
      -816.9234
  13187370.73449  10251599.03947  23168605.9944   23168602.4714
     -3034.4024
  -1274521.23049   -983366.16847  24468964.3614   24468959.1704
      2598.9864
  -8514525.96149  -6610696.54748  21344570.6354   21344567.1584
       387.2294
 04  9  2 16 40 30.0020000  0  6G20G 1G11G14G23G25
  -7411852.42649  -5770907.33247  23118282.6584   23118278.9554
      2436.3294
  -9952970.22349  -7751305.26247  21735598.1824   21735595.1314
      1183.5744
  -3222461.35249  -2495246.17647  21940684.1894   21940680.0144
      -825.4964
  13232904.82849  10287080.14147  23177270.7294   23177267.2914
     -3035.6064
  -1313480.23049  -1013723.80947  24461550.6824   24461545.7444
      2597.2674
  -8520209.91049  -6615125.59848  21343489.2444   21343485.6894
       378.9304
 04  9  2 16 40 45.0020000  0  6G20G 1G11G14G23G25
  -7448372.84049  -5799364.79747  23111332.7364   23111329.3114
      2434.6944
  -9970656.29349  -7765086.61347  21732232.6894   21732229.8144
      1179.0714
  -3209949.44549  -2485496.65247  21943065.0024   21943060.9244
      -834.1274
  13278457.89549  10322576.00847  23185938.7994   23185935.7954
     -3036.8714
  -1352412.33649  -1044060.49647  24454142.0724   24454137.2054
      2595.4744
  -8525768.21149  -6619456.73448  21342431.5104   21342427.5104
       370.5534
 04  9  2 16 41  0.0020000  0  6G20G 1G11G14G23G25
  -7484869.02349  -5827803.36347  23104387.6504   23104383.9124
      2433.0794
  -9988275.34849  -7778815.74647  21728879.6974   21728877.1784
      1174.6044
  -3197308.57449  -2475646.62947  21945470.6584   21945466.4324
      -842.7254
  13324029.27049  10358086.14147  23194610.8224   23194607.7714
     -3038.0924
  -1391317.88349  -1074376.48046  24446738.4084   24446733.7174
      2593.7034
  -8531201.25049  -6623690.27048  21341397.5024   21341393.7564
       362.2034
 04  9  2 16 41 15.0020000  0  6G20G 1G11G14G23G25
  -7521337.30949  -5856220.20747  23097447.8384   23097444.3734
      2431.2194
 -10005823.84049  -7792489.88347  21725540.4164   21725537.6624
      1169.8994
  -3184535.35249  -2465693.47347  21947900.9004   21947896.9944
      -851.5484
  13369622.28549  10393613.16047  23203287.3224   23203283.4794
     -3039.5344
  -1430193.22349  -1104668.94546  24439340.8464   24439335.5454
      2591.6894
  -8536505.49249  -6627823.44948  21340388.1824   21340384.5574
       353.6164
 04  9  2 16 41 30.0020000  0  6G20G 1G11G14G23G25
  -7557779.74249  -5884616.91047  23090512.8694   23090509.8814
      2429.4964
 -10023304.15649  -7806110.90647  21722214.2834   21722211.2834
      1165.3544
  -3171632.04349  -2455638.95747  21950356.7754   21950352.7834
      -860.2214
  13415234.42249  10429155.05547  23211966.9794   23211963.9434
     -3040.8094
  -1469040.66049  -1134939.65246  24431948.4474   24431943.2404
      2589.8294
  -8541683.27349  -6631858.07448  21339403.0024   21339399.1934
       345.1854
 04  9  2 16 41 45.0020000  0  6G20G 1G11G14G23G25
  -7594195.32849  -5912992.67647  23083583.7914   23083580.0374
      2427.7064
 -10040715.37949  -7819678.09047  21718901.0184   21718898.1464
      1160.7484
  -3158597.92649  -2445482.51247  21952837.1274   21952832.9244
      -868.9414
  13460866.57049  10464712.55547  23220650.4714   23220647.2714
     -3042.1434
  -1507859.16449  -1165187.82047  24424561.6664   24424556.5024
      2587.9004
  -8546733.65649  -6635793.43448  21338441.9474   21338438.5964
       336.6924
 04  9  2 16 42  0.0020000  0  6G20G 1G11G14G23G25
  -7630585.92249  -5941348.98447  23076658.8074   23076655.4364
      2426.0404
 -10058059.50849  -7833192.98848  21715600.3304   21715597.4594
      1156.2754
  -3145435.16449  -2435225.82847  21955341.8074   21955337.5024
      -877.5174
  13506516.52749  10500283.92647  23229337.4634   23229334.1194
     -3043.3304
  -1546650.82049  -1195415.06646  24417179.5184   24417174.5374
      2586.1104
  -8551658.54749  -6639631.01248  21337504.6974   21337501.2794
       328.3264
 04  9  2 16 42 15.0020000  0  6G20G 1G11G14G23G25
  -7666951.11349  -5969685.48847  23069738.9084   23069735.5334
      2424.3464
 -10075336.43749  -7846655.52747  21712312.5804   21712309.9324
      1151.7954
  -3132143.60549  -2424868.77347  21957871.5414   21957866.8114
      -886.1044
  13552184.26249  10535869.15247  23238027.8074   23238024.0684
     -3044.5164
  -1585415.45749  -1225621.27047  24409803.0024   24409797.5614
      2584.3094
  -8556457.85949  -6643370.73048  21336591.5414   21336587.8934
       319.9544
 04  9  2 16 42 30.0020000  0  6G20G 1G11G14G23G25
  -7703288.60949  -5998000.41847  23062823.8464   23062820.4714
      2422.5004
 -10092544.05149  -7860064.05147  21709038.0184   21709035.2364
      1147.1744
  -3118721.27349  -2414409.82047  21960425.4714   21960421.1194
      -894.8224
  13597871.71549  10571469.73847  23246721.6664   23246718.7874
     -3045.8304
  -1624150.73049  -1255804.57847  24402431.6504   24402426.9164
      2582.3524
  -8561129.39549  -6647010.89148  21335702.7364   21335698.9714
       311.4364
 04  9  2 16 42 45.0020000  0  6G20G 1G11G14G23G25
  -7739598.28149  -6026293.66047  23055914.5494   23055910.9714
      2420.6454
 -10109682.48049  -7873418.67247  21705776.7604   21705773.8734
      1142.5624
  -3105168.55149  -2403849.27347  21963004.5334   21963000.3034
      -903.5154
  13643578.64849  10607085.51647  23255419.6504   23255415.9824
     -3047.1294
  -1662856.67649  -1285965.04747  24395066.5724   24395061.1194
      2580.3964
  -8565673.10549  -6650551.43748  21334837.9164   21334834.1624
       302.9144
 04  9  2 16 43  0.0020000  0  6G20G 1G11G14G23G25
  -7775879.69149  -6054564.88347  23049010.2684   23049006.5104
      2418.7614
 -10126751.42249  -7886719.14147  21702528.8694   21702525.4364
      1137.9294
  -3091484.94949  -2393186.73047  21965608.5024   21965604.2604
      -912.2404
  13689305.23449  10642716.60947  23264121.2364   23264117.7914
     -3048.4394
  -1701532.95749  -1316102.39146  24387706.8304   24387701.1544
      2578.4194
  -8570088.82049  -6653992.25048  21333997.1824   21333993.7524
       294.3814
 04  9  2 16 43 15.0020000  0  6G20G 1G11G14G23G25
  -7812132.76249  -6082814.02347  23042111.6824   23042107.8504
      2416.8714
 -10143750.99249  -7899965.55547  21699294.1434   21699290.8464
      1133.3054
  -3077670.71949  -2382422.40247  21968237.1824   21968232.9204
      -920.9494
  13735051.12549  10678362.73047  23272826.4164   23272823.1544
     -3049.7264
  -1740179.61749  -1346216.64846  24380352.4634   24380346.6894
      2576.4444
  -8574376.67249  -6657333.43448  21333181.4244   21333178.0534
       285.8574
 04  9  2 16 43 30.0020000  0  6G20G 1G11G14G23G25
  -7848358.93049  -6111042.20747  23035218.1824   23035214.0374
      2415.0784
 -10160682.87949  -7913159.23447  21696071.9324   21696068.6584
      1128.7924
  -3063727.52349  -2371557.58647  21970890.6274   21970886.3464
      -929.5464
  13780814.53549  10714022.51647  23281534.8464   23281531.2564
     -3050.8944
  -1778798.23849  -1376309.06247  24373003.3384   24372998.0844
      2574.5754
  -8578538.23449  -6660576.21148  21332389.6664   21332385.9514
       277.4384
 04  9  2 16 43 45.0020000  0  6G20G 1G11G14G23G25
  -7884558.20349  -6139249.43047  23028329.5884   23028325.7444
      2413.2854
 -10177547.30949  -7926300.35247  21692862.8144   21692859.6194
      1124.2954
  -3049655.73449  -2360592.56647  21973568.3464   21973563.9004
      -938.1194
  13826595.05949  10749695.61747  23290246.1114   23290243.2644
     -3052.0354
  -1817388.96549  -1406379.72346  24365659.9794   24365654.2834
      2572.7154
  -8582573.77349  -6663720.78148  21331621.6044   21331618.1314
       269.0364
 04  9  2 16 44  0.0020000  0  6G20G 1G11G14G23G25
  -7920731.18049  -6167436.16047  23021445.8614   23021442.4674
      2411.5324
 -10194345.02749  -7939389.46948  21689666.2524   21689663.5684
      1119.8484
  -3035456.25449  -2349528.04347  21976270.2684   21976266.0254
      -946.6324
  13872391.79749  10785381.37547  23298960.9864   23298957.8264
     -3053.1164
  -1855952.53949  -1436429.23447  24358321.4794   24358315.9244
      2570.9054
  -8586483.90649  -6666767.62948  21330877.6114   21330873.7754
       260.6764
 04  9  2 16 44 15.0020000  0  6G20G 1G11G14G23G25
  -7956874.99649  -6195600.16847  23014568.2054   23014564.4284
      2409.5884
 -10211073.46549  -7952424.61348  21686482.7754   21686480.4594
      1115.2294
  -3021126.46149  -2338361.98047  21978997.1664   21978993.0144
      -955.3204
  13918207.36749  10821081.79347  23307679.7914   23307676.3264
     -3054.3714
  -1894486.19149  -1466455.42646  24350988.5104   24350983.6234
      2568.9104
  -8590265.94549  -6669714.67248  21330158.0414   21330153.9474
       252.1364
 04  9  2 16 44 30.0020000  0  6G20G 1G11G14G23G25
  -7992992.18049  -6223743.41447  23007695.4394   23007691.5104
      2407.8124
 -10227735.29349  -7965407.85247  21683312.2134   21683309.6314
      1110.7894
  -3006669.22749  -2327096.61747  21981748.1434   21981743.9324
      -963.8164
  13964038.79749  10856794.57447  23316400.8774   23316398.2094
     -3055.4294
  -1932992.57849  -1496460.36346  24343661.2444   24343655.6044
      2567.0924
  -8593922.67249  -6672564.07448  21329462.1664   21329458.3264
       243.7824
 04  9  2 16 44 45.0020000  0  6G20G 1G11G14G23G25
  -8029083.86349  -6251866.79347  23000826.9714   23000823.1394
      2406.1124
 -10244331.96149  -7978340.32047  21680154.0414   21680150.8504
      1106.4454
  -2992085.93449  -2315733.01647  21984523.4864   21984518.9794
      -972.2204
  14009884.59849  10892518.55547  23325125.4554   23325122.3964
     -3056.3874
  -1971472.89849  -1526444.99646  24336338.5494   24336333.5294
      2565.3554
  -8597455.38749  -6675316.83248  21328789.9634   21328786.0454
       235.5144
 04  9  2 16 45  0.0020000  0  6G20G 1G11G14G23G25
  -8065146.30149  -6279967.39547  22993964.6664   22993960.9364
      2404.1634
 -10260859.84449  -7991219.18447  21677009.0644   21677005.7254
      1101.8594
  -2977373.22349  -2304268.57847  21987323.2444   21987318.6464
      -980.8474
  14055748.16449  10928256.37947  23333852.8934   23333850.0844
     -3057.5714
  -2009923.63749  -1556406.59446  24329021.2754   24329016.6194
      2563.3834
  -8600860.49249  -6677970.15648  21328141.7684   21328138.2174
       227.0074
 04  9  2 16 45 15.0020000  0  6G20G 1G11G14G23G25
  -8101181.16049  -6308046.49647  22987107.6504   22987103.6824
      2402.3244
 -10277320.68749  -8004045.81647  21673876.4474   21673873.4864
      1097.3904
  -2962533.05149  -2292704.82447  21990147.5644   21990142.9824
      -989.3454
  14101627.63749  10964006.59847  23342583.2914   23342580.3464
     -3058.6324
  -2048346.46549  -1586346.40647  24321710.1274   24321704.3344
      2561.5224
  -8604139.68049  -6680525.37148  21327518.0024   21327514.2404
       218.6134
 04  9  2 16 45 30.0020000  0  6G20G 1G11G14G23G25
  -8137187.23849  -6336103.18447  22980255.8934   22980251.8544
      2400.4054
 -10293713.75849  -8016819.64148  21670757.0804   21670754.1434
      1092.8714
  -2947564.51249  -2281041.04347  21992995.5024   21992991.2994
      -997.9034
  14147523.64849  10999769.69547  23351317.5254   23351313.8654
     -3059.7344
  -2086740.60949  -1616263.89146  24314402.8774   24314398.2174
      2559.6104
  -8607292.18749  -6682981.86748  21326918.1584   21326914.3694
       210.1674
 04  9  2 16 45 45.0020000  0  6G20G 1G11G14G23G25
  -8173166.85249  -6364139.23447  22973408.8304   22973404.8934
      2398.6414
 -10310041.47749  -8029542.53148  21667650.1194   21667647.1274
      1088.5154
  -2932470.22349  -2269279.26647  21995867.9004   21995863.9284
     -1006.2864
  14193433.56649  11035543.64547  23360053.7214   23360050.3264
     -3060.6614
  -2125108.34449  -1646160.78146  24307101.9554   24307097.3264
      2557.8494
  -8610320.39549  -6685341.51248  21326341.4794   21326337.7174
       201.8804
 04  9  2 16 46  0.0020000  0  6G20G 1G11G14G23G25
  -8209120.27049  -6392154.87547  22966567.3304   22966563.4514
      2396.8954
 -10326304.32449  -8042214.87947  21664555.0024   21664552.2294
      1084.1904
  -2917250.59849  -2257419.82847  21998764.2214   21998759.8894
     -1014.6424
  14239356.95349  11071328.08247  23368792.7054   23368789.2174
     -3061.5594
  -2163449.94149  -1676037.33646  24299806.2684   24299801.0884
      2556.1074
  -8613224.71949  -6687604.61748  21325789.1194   21325785.4004
       193.6224
 04  9  2 16 46 15.0020000  0  6G20G 1G11G14G23G25
  -8245043.88349  -6420147.30147  22959731.3224   22959727.5064
      2394.9084
 -10342499.00449  -8054834.10948  21661473.5494   21661470.5884
      1079.6454
  -2901902.53149  -2245460.30947  22001684.8144   22001680.6744
     -1023.2044
  14285296.99249  11107125.49247  23377534.7754   23377531.3074
     -3062.6694
  -2201762.04349  -1705890.89146  24292516.1504   24292510.2644
      2554.1404
  -8616001.77049  -6689768.54348  21325260.7754   21325257.0064
       185.1374
 04  9  2 16 46 30.0020000  0  6G20G 1G11G14G23G25
  -8280939.23049  -6448117.68747  22952900.3144   22952896.5144
      2393.0234
 -10358627.12949  -8067401.47748  21658404.1824   21658401.4864
      1075.2084
  -2886427.71549  -2233402.02047  22004629.6354   22004625.4824
     -1031.6544
  14331251.78549  11142934.41447  23386279.7364   23386275.9554
     -3063.6534
  -2240046.16849  -1735722.65646  24285230.3614   24285224.8424
      2552.2754
  -8618653.24249  -6691834.62548  21324755.7834   21324752.5104
       176.7654
 04  9  2 16 46 45.0020000  0  6G20G 1G11G14G23G25
  -8316806.39849  -6476066.12947  22946074.9394   22946071.5144
      2391.1454
 -10374689.12149  -8079917.31647  21655348.0184   21655344.8734
      1070.7994
  -2870826.72349  -2221245.41447  22007598.4554   22007594.2294
     -1040.0664
  14377220.85249  11178754.44147  23395027.2214   23395023.7294
     -3064.6044
  -2278302.73049  -1765532.95347  24277950.8544   24277945.2644
      2550.4384
  -8621179.55549  -6693803.18448  21324275.1824   21324271.6114
       168.4214
 04  9  2 16 47  0.0020000  0  6G20G 1G11G14G23G25
  -8352643.55149  -6503991.18047  22939255.5254   22939252.1234
      2389.1434
 -10390683.34849  -8092380.34847  21652304.5724   21652301.3964
      1066.2824
  -2855097.86349  -2208989.16847  22010591.9944   22010587.3384
     -1048.5914
  14423205.75049  11214586.81647  23403778.0334   23403774.5184
     -3065.6604
  -2316529.96549  -1795320.38747  24270676.2684   24270670.1004
      2548.4824
  -8623578.98449  -6695672.86348  21323818.4244   21323814.9244
       159.9624
 04  9  2 16 47 15.0020000  0  6G20G 1G11G14G23G25
  -8388450.69549  -6531892.83247  22932441.4714   22932438.0064
      2387.1434
 -10406609.95749  -8104790.68747  21649273.7834   21649270.6464
      1061.7744
  -2839241.38749  -2196633.47747  22013608.8304   22013604.9204
     -1057.0984
  14469206.09449  11250431.21147  23412531.7054   23412528.2444
     -3066.6904
  -2354727.93749  -1825085.03947  24263407.0884   24263401.4754
      2546.5324
  -8625851.60249  -6697443.73048  21323386.0494   21323382.4904
       151.5084
 04  9  2 16 47 30.0020000  0  6G20G 1G11G14G23G25
  -8424227.39149  -6559770.78147  22925633.7914   22925630.0764
      2385.1134
 -10422468.87149  -8117148.28147  21646255.7134   21646252.5964
      1057.2614
  -2823257.35249  -2184178.40247  22016650.5724   22016646.1194
     -1065.6024
  14515221.93049  11286287.68447  23421288.1824   23421284.3504
     -3067.7224
  -2392896.50449  -1854826.77047  24256143.8544   24256138.6864
      2544.5714
  -8627997.38349  -6699115.77048  21322977.7754   21322974.0494
       143.0524
 04  9  2 16 47 45.0020000  0  6G20G 1G11G14G23G25
  -8459974.30949  -6587625.51647  22918831.1194   22918827.5574
      2383.1284
 -10438260.98049  -8129453.82047  21643250.4164   21643247.7914
      1052.8074
  -2807146.73449  -2171624.68047  22019716.0104   22019712.1194
     -1074.0414
  14561252.28949  11322155.47747  23430047.3694   23430043.6394
     -3068.6914
  -2431036.37949  -1884546.13347  24248886.1504   24248880.7994
      2542.6584
  -8630017.11349  -6700689.58648  21322593.7364   21322589.7954
       134.6494
 04  9  2 16 48  0.0020000  0  6G20G 1G11G14G23G25
  -8495691.03549  -6615456.72747  22912034.6434   22912030.9124
      2381.1154
 -10453985.94149  -8141707.03547  21640258.2754   21640255.1194
      1048.3314
  -2790909.40249  -2158972.22347  22022805.9714   22022801.6824
     -1082.4894
  14607297.28149  11358034.69147  23438809.4004   23438805.8304
     -3069.6664
  -2469147.29349  -1914242.95346  24241634.2134   24241628.2324
      2540.7284
  -8631910.54349  -6702164.98048  21322233.1114   21322229.4864
       126.2294
 04  9  2 16 48 15.0020000  0  6G20G 1G11G14G23G25
  -8531377.44949  -6643264.31247  22905243.6894   22905239.7174
      2379.0944
 -10469643.92649  -8153908.05948  21637278.3854   21637275.6434
      1043.8664
  -2774545.56249  -2146221.19147  22025919.8384   22025915.8034
     -1090.9234
  14653356.64849  11393925.08647  23447574.0024   23447570.5844
     -3070.6244
  -2507229.23849  -1943917.18746  24234387.5104   24234381.4164
      2538.7964
  -8633677.77349  -6703542.04348  21321896.9714   21321893.1044
       117.8154
 04  9  2 16 48 30.0020000  0  6G20G 1G11G14G23G25
  -8567033.81249  -6671048.48047  22898458.2834   22898455.0414
      2377.0914
 -10485235.41449  -8166057.27047  21634311.7524   21634308.6544
      1039.4334
  -2758055.71149  -2133371.96547  22029057.7294   22029053.6114
     -1099.3234
  14699429.73849  11429826.17247  23456341.5184   23456338.3344
     -3071.5394
  -2545282.60949  -1973569.16446  24227145.9244   24227139.8464
      2536.8914
  -8635319.28149  -6704821.14548  21321584.3544   21321580.9904
       109.4344
 04  9  2 16 48 45.0020000  0  6G20G 1G11G14G23G25
  -8602660.77349  -6698809.73847  22891678.5644   22891674.8934
      2375.1314
 -10500761.20749  -8178155.28948  21631357.1974   21631354.2644
      1035.0534
  -2741440.81249  -2120425.30947  22032219.2604   22032215.4824
     -1107.6604
  14745515.71949  11465737.30947  23465111.5494   23465108.3464
     -3072.3994
  -2583308.14549  -2003199.43746  24219909.6114   24219904.0254
      2535.0364
  -8636835.72749  -6706002.78548  21321296.0184   21321292.1624
       101.0964
 04  9  2 16 49  0.0020000  0  6G20G 1G11G14G23G25
  -8638256.93449  -6726547.00847  22884905.1894   22884901.1314
      2373.0774
 -10516220.20349  -8190201.25848  21628415.2524   21628412.3574
      1030.6004
  -2724699.80949  -2107380.38747  22035405.3934   22035401.5764
     -1116.0674
  14791615.53549  11501659.21947  23473883.8694   23473880.9204
     -3073.3214
  -2621304.68449  -2032807.12946  24212679.3614   24212673.6434
      2533.1034
  -8638226.02749  -6707086.12948  21321031.5724   21321027.8654
        92.6874
 04  9  2 16 49 15.0020000  0  6G20G 1G11G14G23G25
  -8673819.23849  -6754257.87947  22878137.9084   22878133.8894
      2370.8204
 -10531609.50449  -8202192.91848  21625486.9864   21625483.7014
      1025.9534
  -2707830.00449  -2094235.09847  22038615.4554   22038611.6824
     -1124.6544
  14837731.78949  11537593.94947  23482659.8544   23482656.0144
     -3074.4174
  -2659269.26649  -2062389.91446  24205454.8224   24205449.2914
      2530.9724
  -8639487.32449  -6708068.96548  21320791.2994   21320787.7294
        84.0864
 04  9  2 16 49 30.0020000  0  6G20G 1G11G14G23G25
  -8709350.46149  -6781944.54347  22871376.8224   22871372.5574
      2368.7484
 -10546932.36349  -8214132.80548  21622570.9004   21622567.8424
      1021.5244
  -2690834.69149  -2080992.00447  22041850.0184   22041845.7684
     -1133.0214
  14883861.35549  11573539.05147  23491438.0964   23491434.3464
     -3075.3044
  -2697204.94949  -2091950.16846  24198235.5334   24198230.1354
      2529.0464
  -8640622.81249  -6708953.76248  21320575.3544   21320571.4084
        75.6994
 04  9  2 16 49 45.0020000  0  6G20G 1G11G14G23G25
  -8744850.53549  -6809606.93447  22864621.6114   22864617.1624
      2366.6724
 -10562188.75449  -8226020.90247  21619667.8694   21619664.8694
      1017.0934
  -2673713.98849  -2067651.22347  22045107.6504   22045103.6044
     -1141.3804
  14930004.05149  11609494.38347  23500218.3614   23500214.8734
     -3076.1804
  -2735111.57449  -2121487.80146  24191022.3544   24191016.6864
      2527.1084
  -8641632.41849  -6709740.46948  21320383.0104   21320379.4474
        67.3074
 04  9  2 16 50  0.0020000  0  6G20G 1G11G14G23G25
  -8780319.33649  -6837244.96147  22857871.6504   22857867.5644
      2364.5874
 -10577378.68049  -8237857.20747  21616777.4794   21616774.3814
      1012.6624
  -2656468.02349  -2054212.80547  22048389.3074   22048385.4714
     -1149.7314
  14976159.80549  11645459.87147  23509001.7914   23508998.1864
     -3077.0504
  -2772989.14549  -2151002.78147  24183815.1354   24183809.3224
      2525.1714
  -8642516.26249  -6710429.18048  21320214.8854   21320211.0724
        58.9234
 04  9  2 16 50 15.0020000  0  6G20G 1G11G14G23G25
  -8815755.47749  -6864857.52347  22851128.4794   22851124.8544
      2362.4094
 -10592501.13349  -8249640.93748  21613899.9794   21613896.9714
      1008.1644
  -2639095.74649  -2040675.98047  22051695.4244   22051691.3224
     -1158.1524
  15022329.44949  11681436.19547  23517787.3854   23517784.0644
     -3077.9764
  -2810836.52349  -2180494.23447  24176612.6044   24176607.2014
      2523.1594
  -8643273.24649  -6711019.03548  21320070.5964   21320067.0254
        50.4664
 04  9  2 16 50 30.0020000  0  6G20G 1G11G14G23G25
  -8851159.10949  -6892444.75847  22844391.1274   22844387.4634
      2360.2424
 -10607556.41849  -8261372.32048  21611034.6824   21611031.8934
      1003.6864
  -2621597.82049  -2027041.25047  22055025.2604   22055021.2524
     -1166.5284
  15068512.57449  11717423.02047  23526575.7994   23526572.3344
     -3078.8754
  -2848654.05949  -2209962.43047  24169416.0804   24169411.3854
      2521.1694
  -8643903.82049  -6711510.38748  21319950.9634   21319947.3694
        42.0384
 04  9  2 16 50 45.0020000  0  6G20G 1G11G14G23G25
  -8886533.25849  -6920009.02747  22837659.9394   22837655.7834
      2358.2774
 -10622547.86749  -8273053.96148  21608181.6894   21608178.9364
       999.4304
  -2603977.45749  -2013311.10947  22058378.4004   22058374.3264
     -1174.6914
  15114705.68049  11753417.62947  23535366.2754   23535362.8074
     -3079.5404
  -2886444.97349  -2239409.87947  24162224.8614   24162219.8614
      2519.3944
  -8644411.14849  -6711905.70748  21319854.2364   21319850.8574
        33.8224
 04  9  2 16 51  0.0020000  0  6G20G 1G11G14G23G25
  -8921873.79349  -6947547.10247  22830934.6504   22830930.8114
      2356.0364
 -10637471.57849  -8284682.82447  21605341.9324   21605338.9474
       994.9144
  -2586230.92249  -1999482.64847  22061755.1744   22061751.1974
     -1183.1024
  15160912.64549  11789423.04747  23544159.0024   23544155.4674
     -3080.4644
  -2924205.12149  -2268833.35947  24155039.2364   24155034.5494
      2517.3434
  -8644791.42649  -6712202.02348  21319781.9004   21319778.1894
        25.3524
 04  9  2 16 51 15.0020000  0  6G20G 1G11G14G23G25
  -8957181.04349  -6975059.24247  22824215.6504   22824212.1504
      2353.8174
 -10652327.96149  -8296259.22747  21602515.1894   21602511.9434
       990.4264
  -2568358.77049  -1985556.30147  22065156.1974   22065152.4474
     -1191.4774
  15207132.84849  11825438.77347  23552954.5494   23552950.6894
     -3081.3474
  -2961934.89149  -2298233.16047  24147859.8694   24147854.6864
      2515.3184
  -8645045.00449  -6712399.62148  21319733.8854   21319730.2994
        16.9054
 04  9  2 16 51 30.0020000  0  6G20G 1G11G14G23G25
  -8992454.23849  -7002544.84847  22817503.8384   22817499.4044
      2351.5464
 -10667116.59849  -8307782.83648  21599700.7524   21599697.6234
       985.9094
  -2550360.55949  -1971531.74247  22068581.1824   22068577.2794
     -1199.8814
  15253366.60949  11861465.06347  23561752.7524   23561749.2294
     -3082.2514
  -2999633.98449  -2327609.06647  24140685.1274   24140680.3544
      2513.2734
  -8645171.45349  -6712498.15648  21319709.6974   21319705.8264
         8.4304
 04  9  2 16 51 45.0020000  0  6G20G 1G11G14G23G25
  -9027690.39149  -7030001.58647  22810798.2834   22810794.5414
      2349.0774
 -10681834.77049  -8319251.53947  21596900.0804   21596896.6154
       981.2114
  -2532233.80549  -1957407.00847  22072030.6194   22072026.3464
     -1208.4504
  15299616.62949  11897504.02047  23570553.8614   23570550.4714
     -3083.3354
  -3037299.42249  -2356958.74647  24133518.1894   24133512.2834
      2511.0294
  -8645168.03149  -6712495.49248  21319710.5574   21319706.5684
        -0.2284
 04  9  2 16 52  0.0020000  0  6G20G 1G11G14G23G25
  -9062891.43749  -7057430.96947  22804100.0644   22804096.0214
      2346.7364
 -10696484.55549  -8330666.95748  21594112.0884   21594109.4714
       976.6524
  -2513980.77349  -1943183.88347  22075503.8304   22075499.9324
     -1216.8694
  15345880.68049  11933553.90647  23579357.8774   23579354.2404
     -3084.2704
  -3074933.18049  -2386283.74247  24126356.7054   24126351.4594
      2508.9174
  -8645036.88349  -6712393.30148  21319735.0494   21319731.6234
        -8.7434
 04  9  2 16 52 15.0020000  0  6G20G 1G11G14G23G25
  -9098057.03149  -7084832.72347  22797407.9324   22797404.3574
      2344.3734
 -10711065.85249  -8342029.00048  21591337.4164   21591334.2644
       972.0864
  -2495601.37549  -1928862.28947  22079001.5254   22078997.3814
     -1225.2934
  15392158.65649  11969614.64547  23588164.2294   23588160.9434
     -3085.1984
  -3112535.11349  -2415583.93047  24119201.5184   24119196.1744
      2506.7964
  -8644777.75849  -6712191.38348  21319784.3074   21319781.0184
       -17.2754
 04  9  2 16 52 30.0020000  0  6G20G 1G11G14G23G25
  -9133186.98049  -7112206.70747  22790723.0884   22790719.4044
      2341.9974
 -10725578.62949  -8353337.65248  21588575.8304   21588572.7794
       967.5184
  -2477095.72349  -1914442.31247  22082522.7134   22082519.2564
     -1233.7104
  15438450.46549  12005686.15647  23596972.6894   23596969.9944
     -3086.1214
  -3150105.04749  -2444859.20347  24112051.9714   24112046.5844
      2504.6624
  -8644390.70749  -6711889.78148  21319858.2134   21319854.2604
       -25.8034
 04  9  2 16 52 45.0020000  0  6G20G 1G11G14G23G25
  -9168280.15649  -7139552.03147  22784045.5804   22784041.1784
      2339.5454
 -10740022.11749  -8364592.31648  21585827.1194   21585824.2914
       962.8994
  -2458463.24649  -1899923.50847  22086068.5104   22086064.7834
     -1242.1654
  15484756.78949  12041768.99247  23605784.8614   23605781.3464
     -3087.0884
  -3187642.18449  -2474108.89847  24104908.8384   24104903.8894
      2502.4764
  -8643874.92249  -6711487.87948  21319956.3934   21319952.5294
       -34.3864
 04  9  2 16 53  0.0020000  0  6G20G 1G11G14G23G25
  -9203337.72749  -7166869.61747  22777373.9324   22777369.9004
      2337.1714
 -10754397.62149  -8375794.00048  21583091.8544   21583088.6544
       958.3674
  -2439705.22349  -1885306.87947  22089638.0724   22089634.1234
     -1250.5354
  15531076.36749  12077862.15647  23614599.0254   23614596.1074
     -3087.9724
  -3225147.73849  -2503333.99247  24097771.5104   24097766.8464
      2500.3704
  -8643231.75049  -6710986.69948  21320078.8384   21320075.0494
       -42.8784
 04  9  2 16 53 15.0020000  0  6G20G 1G11G14G23G25
  -9238358.16849  -7194158.26647  22770709.6044   22770706.1704
      2334.6964
 -10768703.95749  -8386941.79348  21580369.0964   21580365.9864
       953.7564
  -2420820.60549  -1870591.61347  22093231.8934   22093227.5144
     -1258.9744
  15577410.20749  12113966.41847  23623416.5804   23623413.2364
     -3088.9234
  -3262620.34049  -2532533.40247  24090640.6434   24090635.6894
      2498.1734
  -8642459.94149  -6710385.29748  21320225.8144   21320221.8854
       -51.4544
 04  9  2 16 53 30.0020000  0  6G20G 1G11G14G23G25
  -9273342.18449  -7221418.53547  22764052.8304   22764048.5964
      2332.2684
 -10782941.96949  -8398036.34448  21577660.0334   21577656.9554
       949.2014
  -2401810.41849  -1855778.49247  22096849.6974   22096845.4324
     -1267.3464
  15623757.31349  12150081.02747  23632235.7914   23632232.4634
     -3089.8074
  -3300060.88749  -2561707.83647  24083515.7754   24083510.6704
      2496.0364
  -8641560.40249  -6709684.35548  21320396.9714   21320393.3264
       -59.9694
 04  9  2 16 53 45.0020000  0  6G20G 1G11G14G23G25
  -9308288.73049  -7248649.60947  22757403.0254   22757398.4754
      2329.7704
 -10797111.01249  -8409077.15248  21574963.3774   21574960.4004
       944.6034
  -2382674.04749  -1840867.04347  22100491.0334   22100486.7994
     -1275.7584
  15670118.34449  12186206.47347  23641058.1354   23641054.9824
     -3090.7354
  -3337468.57449  -2590856.67247  24076397.6274   24076392.5454
      2493.8464
  -8640532.41849  -6708883.33648  21320592.5024   21320588.8074
       -68.5324
 04  9  2 16 54  0.0020000  0  6G20G 1G11G14G23G25
  -9343198.49649  -7275852.01647  22750759.5644   22750755.7754
      2327.3184
 -10811211.96149  -8420064.90248  21572280.1824   21572277.3074
       940.0634
  -2363412.53549  -1825858.08247  22104156.4004   22104152.2364
     -1284.1014
  15716492.21149  12222341.93847  23649882.7834   23649879.0414
     -3091.5914
  -3374844.11349  -2619980.46147  24069284.9794   24069280.0574
      2491.7034
  -8639376.80949  -6707982.85948  21320812.4864   21320808.7794
       -77.0414
 04  9  2 16 54 15.0020000  0  6G20G 1G11G14G23G25
  -9378071.68049  -7303025.92647  22744123.2214   22744119.0494
      2324.8794
 -10825245.19149  -8430999.88348  21569609.7444   21569607.1154
       935.5494
  -2344026.30149  -1810751.94547  22107845.5414   22107841.2914
     -1292.4164
  15762878.41049  12258487.00847  23658710.0494   23658706.5254
     -3092.4134
  -3412187.86349  -2649079.48447  24062179.1584   24062173.9754
      2489.5834
  -8638094.10949  -6706983.35948  21321056.4244   21321052.6044
       -85.5134
 04  9  2 16 54 30.0020000  0  6G20G 1G11G14G23G25
  -9412908.00849  -7330171.10947  22737494.2364   22737490.2644
      2322.4224
 -10839210.72349  -8441882.11348  21566952.3074   21566949.2174
       931.0354
  -2324515.58249  -1795548.79347  22111558.3854   22111553.7914
     -1300.7154
  15809276.82449  12294641.60947  23667538.9554   23667535.2254
     -3093.2284
  -3449499.73049  -2678153.65647  24055078.8464   24055073.4594
      2487.4584
  -8636684.25849  -6705884.77048  21321324.7684   21321321.0254
       -93.9904
 04  9  2 16 54 45.0020000  0  6G20G 1G11G14G23G25
  -9447707.53149  -7357287.62147  22730871.6744   22730867.7954
      2319.9684
 -10853108.77049  -8452711.75448  21564307.5964   21564304.7214
       926.5364
  -2304880.83249  -1780248.99647  22115294.2604   22115290.3814
     -1308.9834
  15855687.16849  12330805.47347  23676370.4084   23676367.2524
     -3094.0234
  -3486779.95749  -2707203.16447  24047984.7754   24047979.5494
      2485.3484
  -8635147.52749  -6704687.32048  21321617.2914   21321613.4824
      -102.4494
 04  9  2 16 55  0.0020000  0  6G20G 1G11G14G23G25
  -9482468.46549  -7384374.05947  22724257.1044   22724253.1194
      2317.3964
 -10866937.84049  -8463487.64848  21561675.9394   21561672.6974
       921.9384
  -2285120.50449  -1764851.35547  22119054.5804   22119050.5724
     -1317.3554
  15902110.78949  12366979.71547  23685203.8464   23685201.7604
     -3094.9084
  -3524026.87949  -2736226.72747  24040896.7754   24040892.0534
      2483.1284
  -8633482.34449  -6703389.78148  21321934.4394   21321930.6044
      -111.0124
 04  9  2 16 55 15.0020000  0  6G20G 1G11G14G23G25
  -9517190.28149  -7411430.01647  22717649.4004   22717645.5294
      2314.7884
 -10880697.60949  -8474209.53948  21559057.5104   21559054.6864
       917.3184
  -2265234.42649  -1749355.73047  22122838.8074   22122834.9944
     -1325.7394
  15948547.99249  12403164.52747  23694041.2444   23694038.1154
     -3095.8144
  -3561240.07049  -2765224.00047  24033815.2294   24033810.0214
      2480.8794
  -8631688.39849  -6701991.90248  21322275.3614   21322271.8894
      -119.5964
 04  9  2 16 55 30.0020000  0  6G20G 1G11G14G23G25
  -9551874.01249  -7438456.29747  22711050.0644   22711045.8034
      2312.2494
 -10894389.42249  -8484878.48048  21556452.0884   21556449.0294
       912.7884
  -2245224.05149  -1733763.24247  22126646.7214   22126643.1624
     -1334.0254
  15994997.28549  12439358.74647  23702880.2214   23702877.0254
     -3096.6204
  -3598420.73849  -2794195.93047  24026740.0724   24026734.9164
      2478.7114
  -8629767.03149  -6700494.73448  21322641.1274   21322637.6394
      -128.0914
 04  9  2 16 55 45.0020000  0  6G20G 1G11G14G23G25
  -9586517.88349  -7465451.52347  22704457.5414   22704453.1664
      2309.5914
 -10908011.68749  -8495493.23048  21553859.7604   21553856.9554
       908.1514
  -2225088.04349  -1718072.85247  22130478.6974   22130474.5844
     -1342.4014
  16041460.06649  12475563.49647  23711722.3934   23711718.7564
     -3097.5194
  -3635567.33249  -2823141.30947  24019671.3544   24019666.5294
      2476.4404
  -8627716.69149  -6698897.07048  21323031.2294   21323027.4434
      -136.6894
 04  9  2 16 56  0.0020000  0  6G20G 1G11G14G23G25
  -9621123.88349  -7492417.23047  22697871.8854   22697868.0104
      2307.0674
 -10921566.72349  -8506055.59448  21551280.7444   21551277.4714
       903.6694
  -2204828.66849  -1702286.34047  22134333.7444   22134329.7364
     -1350.6254
  16087934.09849  12511777.00047  23720565.9084   23720562.6354
     -3098.2694
  -3672681.93049  -2852061.75847  24012608.8464   24012603.6234
      2474.3074
  -8625539.80149  -6697200.79748  21323445.0254   21323441.7294
      -145.1264
 04  9  2 16 56 15.0020000  0  6G20G 1G11G14G23G25
  -9655691.48449  -7519353.02047  22691293.8934   22691289.9754
      2304.5074
 -10935054.21149  -8516565.32848  21548714.0644   21548710.5644
       899.1664
  -2184445.93449  -1686403.69947  22138212.2684   22138208.1624
     -1358.8494
  16134419.50049  12547999.37547  23729411.5414   23729408.1894
     -3099.0274
  -3709764.29349  -2880957.07847  24005552.1114   24005547.0644
      2472.1584
  -8623236.12949  -6695405.72748  21323883.9084   21323880.0104
      -153.5784
 04  9  2 16 56 30.0020000  0  6G20G 1G11G14G23G25
  -9690221.09049  -7546259.20747  22684723.0494   22684719.0884
      2301.9744
 -10948474.71149  -8527022.85948  21546160.0254   21546157.1194
       894.7004
  -2163940.40649  -1670425.38347  22142114.4554   22142110.6894
     -1367.0354
  16180915.62149  12584230.10247  23738259.5104   23738255.7174
     -3099.7414
  -3746814.77049  -2909827.56247  23998501.2214   23998496.3854
      2470.0324
  -8620806.11349  -6693512.21548  21324346.3934   21324342.5414
      -162.0014
 04  9  2 16 56 45.0020000  0  6G20G 1G11G14G23G25
  -9724711.64849  -7573134.95347  22678159.8384   22678155.5574
      2299.3714
 -10961827.50449  -8537427.62148  21543619.1274   21543616.1274
       890.1864
  -2143311.49649  -1654350.91447  22146040.3774   22146036.0064
     -1375.2614
  16227423.11749  12620469.68847  23747109.6044   23747106.3964
     -3100.5004
  -3783832.52749  -2938672.55147  23991457.1584   23991451.9394
      2467.8514
  -8618248.91049  -6691519.59048  21324832.9714   21324829.1784
      -170.4804
 04  9  2 16 57  0.0020000  0  6G20G 1G11G14G23G25
  -9759163.84449  -7599980.82047  22671603.1894   22671599.5334
      2296.8134
 -10975113.54349  -8547780.37948  21541090.6664   21541087.9754
       885.7364
  -2122560.29349  -1638181.16047  22149989.1504   22149985.2954
     -1383.4144
  16273940.84049  12656717.24647  23755962.0104   23755959.0374
     -3101.1824
  -3820818.46149  -2967492.73847  23984419.0334   23984413.7954
      2465.7294
  -8615565.55949  -6689428.67648  21325343.5574   21325339.9204
      -178.8904
 04  9  2 16 57 15.0020000  0  6G20G 1G11G14G23G25
  -9793575.39549  -7626795.01247  22665055.5184   22665051.7254
      2294.1034
 -10988330.69549  -8558079.45348  21538575.4794   21538572.7094
       881.1434
  -2101684.82449  -1621914.57447  22153961.6044   22153957.7874
     -1391.6984
  16320470.86749  12692974.39847  23764815.9474   23764812.5924
     -3102.0024
  -3857770.32449  -2996286.39147  23977387.5254   23977381.9864
      2463.4584
  -8612753.97749  -6687237.83248  21325878.6824   21325875.2134
      -187.4394
 04  9  2 16 57 30.0020000  0  6G20G 1G11G14G23G25
  -9827947.13749  -7653578.18447  22658514.9554   22658510.9244
      2291.4494
 -11001480.14549  -8568325.77048  21536073.3544   21536070.3184
       876.6304
  -2080686.18049  -1605552.00847  22157957.4164   22157953.6004
     -1399.9104
  16367011.98849  12729240.18847  23773672.5184   23773669.2214
     -3102.7414
  -3894689.28949  -3025054.38347  23970361.8464   23970357.0334
      2461.2644
  -8609815.39849  -6684948.03148  21326437.8464   21326433.9084
      -195.9054
 04  9  2 16 57 45.0020000  0  6G20G 1G11G14G23G25
  -9862280.50449  -7680331.44947  22651981.0724   22651977.1234
      2288.8914
 -11014563.55949  -8578520.64148  21533583.9164   21533580.8074
       872.2284
  -2059566.55549  -1589095.16847  22161976.3224   22161972.3934
     -1407.9754
  16413562.41049  12765513.21947  23782530.5104   23782527.0964
     -3103.3614
  -3931577.00049  -3053798.04347  23963342.6504   23963337.0024
      2459.1814
  -8606751.56249  -6682560.62948  21327020.6584   21327017.1544
      -204.2564
 04  9  2 16 58  0.0020000  0  6G20G 1G11G14G23G25
  -9896575.47349  -7707054.79747  22645455.2524   22645451.0924
      2286.3314
 -11027581.14549  -8588664.21548  21531106.5104   21531103.4514
       867.8394
  -2038326.18449  -1572544.24247  22166018.2134   22166014.5924
     -1416.0254
  16460121.84449  12801793.28547  23791390.7754   23791387.0534
     -3103.9624
  -3968433.41849  -3082517.30947  23956328.7054   23956323.7014
      2457.0954
  -8603562.48849  -6680075.63748  21327627.6664   21327623.8694
      -212.6054
 04  9  2 16 58 15.0020000  0  6G20G 1G11G14G23G25
  -9930830.50449  -7733747.02347  22638936.8144   22638933.0214
      2283.6694
 -11040531.60249  -8598755.47748  21528642.1824   21528639.2254
       863.3644
  -2016963.85549  -1555898.28547  22170083.4714   22170079.3694
     -1424.1554
  16506691.38349  12838081.21547  23800253.2444   23800249.4904
     -3104.6364
  -4005257.24249  -3111211.19147  23949321.4944   23949316.2094
      2454.9224
  -8600246.96949  -6677492.11748  21328258.5724   21328254.9514
      -221.0354
 04  9  2 16 58 30.0020000  0  6G20G 1G11G14G23G25
  -9965046.75849  -7760409.02747  22632425.2364   22632421.5684
      2281.0844
 -11053416.32449  -8608795.51648  21526190.1044   21526186.9984
       858.9824
  -1995481.05149  -1539158.44947  22174171.5104   22174167.4004
     -1432.1874
  16553269.61349  12874375.92247  23809116.4554   23809113.1974
     -3105.2154
  -4042049.66049  -3139880.59047  23942320.0724   23942314.5614
      2452.8284
  -8596806.51249  -6674811.24248  21328913.3074   21328909.3694
      -229.3644
 04  9  2 16 58 45.0020000  0  6G20G 1G11G14G23G25
  -9999223.71949  -7787040.42247  22625921.9004   22625917.9864
      2278.4644
 -11066235.12549  -8618784.19148  21523750.8074   21523747.6824
       854.5874
  -1973877.68449  -1522324.67247  22178282.3774   22178278.2294
     -1440.2244
  16599856.67649  12910677.47247  23817981.6354   23817978.0414
     -3105.8044
  -4078810.57449  -3168525.46147  23935324.9864   23935319.4124
      2450.7284
  -8593240.88749  -6672032.84048  21329591.9004   21329588.1504
      -237.7084
 04  9  2 16 59  0.0020000  0  6G20G 1G11G14G23G25
 -10033360.71149  -7813640.67247  22619425.8694   22619421.7644
      2275.7994
 -11078987.62149  -8628721.19148  21521324.1274   21521321.0804
       850.1664
  -1952153.53949  -1505396.77747  22182416.2834   22182412.2994
     -1448.2764
  16646452.88349  12946986.21947  23826848.5334   23826844.7564
     -3106.4144
  -4115539.48049  -3197145.37547  23928335.4554   23928330.2324
      2448.5944
  -8589549.77749  -6669156.64148  21330294.3144   21330290.6394
      -246.0744
 04  9  2 16 59 15.0020000  0  6G20G 1G11G14G23G25
 -10067458.00449  -7840209.98847  22612937.0574   22612933.4324
      2273.1534
 -11091674.27749  -8638606.89148  21518909.9944   21518906.8464
       845.7774
  -1930309.32449  -1488375.32447  22186573.5494   22186569.3894
     -1456.2814
  16693057.59049  12983301.56647  23835716.6894   23835713.7294
     -3106.9804
  -4152236.57449  -3225740.50847  23921352.0184   23921346.8544
      2446.4734
  -8585733.85249  -6666183.19948  21331020.3074   21331016.7714
      -254.3954
 04  9  2 16 59 30.0020000  0  6G20G 1G11G14G23G25
 -10101515.16849  -7866748.03547  22606456.4474   22606452.6974
      2270.4784
 -11104294.87549  -8648441.12548  21516508.5724   21516505.3894
       841.3734
  -1908344.72749  -1471260.06647  22190752.8144   22190748.9204
     -1464.3074
  16739670.97749  13019623.66047  23844587.0024   23844583.7874
     -3107.5594
  -4188901.62149  -3254310.65247  23914374.8544   23914369.4434
      2444.3364
  -8581792.65649  -6663112.13748  21331770.1114   21331766.5764
      -262.7464
 04  9  2 16 59 45.0020000  0  6G20G 1G11G14G23G25
 -10135533.89549  -7893256.12947  22599982.8144   22599979.3074
      2267.9154
 -11116851.44949  -8658225.46948  21514118.6894   21514115.9394
       837.1054
  -1886262.00049  -1454052.76247  22194955.0414   22194951.1894
     -1472.1824
  16786291.00049  13055950.93447  23853458.8224   23853455.5924
     -3108.0024
  -4225536.56649  -3282857.35947  23907403.5184   23907398.3504
      2442.3304
  -8577728.19949  -6659945.03148  21332543.9554   21332539.9474
      -270.9644
 04  9  2 17  0  0.0020000  0  6G20G 1G11G14G23G25
 -10169510.39149  -7919731.32047  22593517.5644   22593513.7954
      2265.1004
 -11129340.33649  -8667957.06248  21511742.1354   21511739.0144
       832.5924
  -1864057.83249  -1436750.82847  22199180.8694   22199176.5104
     -1480.2784
  16832921.12549  13092286.07447  23862332.2524   23862328.7054
     -3108.6754
  -4262137.58249  -3311377.61347  23900438.6504   23900433.3144
      2440.0684
  -8573536.97749  -6656679.14548  21333341.3614   21333337.4824
      -279.4154
 04  9  2 17  0 15.0020000  0  6G20G 1G11G14G23G25
 -10203445.71549  -7946174.41847  22587059.6894   22587055.8304
      2262.3554
 -11141762.96549  -8677637.03548  21509378.3544   21509375.2214
       828.1754
  -1841733.68049  -1419355.38747  22203428.8224   22203424.8424
     -1488.2774
  16879559.87549  13128627.93047  23871207.1584   23871203.8894
     -3109.2504
  -4298706.08649  -3339872.53947  23893480.0724   23893474.5064
      2437.9004
  -8569220.37549  -6653315.55948  21334162.6504   21334159.0614
      -287.7734
 04  9  2 17  0 30.0020000  0  6G20G 1G11G14G23G25
 -10237339.22749  -7972584.94547  22580609.6824   22580606.0064
      2259.5674
 -11154118.96549  -8687265.08248  21507027.1584   21507024.2134
       823.7334
  -1819289.34849  -1401866.31647  22207699.9714   22207696.0644
     -1496.2894
  16926207.50449  13164976.70747  23880083.7294   23880080.9474
     -3109.8424
  -4335241.69549  -3368341.82047  23886527.4474   23886521.8854
      2435.7074
  -8564778.02749  -6649853.98848  21335007.7294   21335004.5184
      -296.1574
 04  9  2 17  0 45.0020000  0  6G20G 1G11G14G23G25
 -10271189.60249  -7998961.85247  22574168.4864   22574164.5964
      2256.6924
 -11166407.16449  -8696840.28948  21504688.4084   21504685.7684
       819.2134
  -1796723.81649  -1384282.80947  22211993.8074   22211989.7174
     -1504.3694
  16972865.07849  13201333.25047  23888962.5414   23888959.4864
     -3110.5054
  -4371743.07049  -3396784.44947  23879581.2364   23879576.2254
      2433.4254
  -8560208.85949  -6646293.60548  21335877.8074   21335874.2324
      -304.6114
 04  9  2 17  1  0.0020000  0  6G20G 1G11G14G23G25
 -10304996.63749  -8025305.00047  22567735.2684   22567731.3074
      2253.8024
 -11178627.60549  -8706362.70748  21502363.3384   21502360.3774
       814.6964
  -1774037.30549  -1366605.01247  22216311.3774   22216306.7834
     -1512.4344
  17019532.46149  13237697.40646  23897843.4084   23897839.8854
     -3111.1594
  -4408210.24249  -3425200.41447  23872641.4864   23872636.1894
      2431.1454
  -8555513.04749  -6642634.52748  21336771.0414   21336767.7134
      -313.0544
 04  9  2 17  1 15.0020000  0  6G20G 1G11G14G23G25
 -10338759.28149  -8051613.54747  22561310.3464   22561306.2524
      2250.8434
 -11190779.45749  -8715831.68448  21500050.8694   21500047.8304
       810.1234
  -1751229.04749  -1348832.35247  22220651.2364   22220647.4084
     -1520.5514
  17066210.30549  13274069.73847  23906726.2604   23906722.5534
     -3111.8564
  -4444642.30949  -3453589.01247  23865708.6894   23865703.6274
      2428.8044
  -8550689.67649  -6638876.05548  21337688.8464   21337684.8774
      -321.5584
 04  9  2 17  1 30.0020000  0  6G20G 1G11G14G23G25
 -10372479.27049  -8077888.85947  22554893.6114   22554889.8854
      2247.9994
 -11202864.75449  -8725248.79348  21497750.8694   21497747.9364
       805.6864
  -1728301.23049  -1330966.53547  22225014.6194   22225010.2324
     -1528.5214
  17112896.59449  13310448.63746  23915609.8774   23915606.6434
     -3112.4194
  -4481041.15249  -3481951.73447  23858782.5254   23858777.4364
      2426.5904
  -8545740.93049  -6635019.89548  21338630.9394   21338627.0144
      -329.9164
 04  9  2 17  1 45.0020000  0  6G20G 1G11G14G23G25
 -10406155.77749  -8104130.28547  22548484.9474   22548481.0574
      2245.1014
 -11214882.96549  -8734613.63348  21495464.0334   21495461.0724
       801.2144
  -1705253.53949  -1313007.30947  22229400.0804   22229396.3574
     -1536.5134
  17159592.04349  13346834.69147  23924495.9634   23924492.3464
     -3113.0304
  -4517406.00849  -3510287.97747  23851862.9244   23851857.1784
      2424.3244
  -8540666.07049  -6631065.45748  21339596.3544   21339592.5644
      -338.3244
 04  9  2 17  2  0.0020000  0  6G20G 1G11G14G23G25
 -10439784.25049  -8130334.27747  22542086.0574   22542082.4514
      2241.8984
 -11226829.86749  -8743922.90248  21493190.7834   21493187.4164
       796.4604
  -1682082.00449  -1294951.57047  22233809.5644   22233805.6584
     -1544.7694
  17206300.56349  13383230.92647  23933384.2054   23933380.8504
     -3113.9014
  -4553732.75049  -3538594.50847  23844949.9554   23844944.6314
      2421.7834
  -8535461.07849  -6627009.62148  21340586.7214   21340583.5374
      -346.9994
 04  9  2 17  2 15.0020000  0  6G20G 1G11G14G23G25
 -10473369.61349  -8156504.69147  22535694.8384   22535691.0644
      2239.0244
 -11238710.51249  -8753180.53548  21490929.9794   21490926.4634
       792.0434
  -1658791.81649  -1276803.39147  22238241.5804   22238237.3574
     -1552.6794
  17253016.96149  13419633.27747  23942273.9474   23942270.6504
     -3114.4274
  -4590026.31649  -3566875.19547  23838043.1044   23838038.1274
      2419.5714
  -8530130.97749  -6622856.29748  21341601.3074   21341597.9554
      -355.3404
 04  9  2 17  2 30.0020000  0  6G20G 1G11G14G23G25
 -10506909.27349  -8182639.48847  22529312.1974   22529308.6154
      2235.9774
 -11250522.66049  -8762384.80548  21488682.2364   21488679.1354
       787.4774
  -1635380.68449  -1258560.96547  22242696.7134   22242692.7644
     -1560.7424
  17299743.40649  13456043.48046  23951165.7054   23951162.4204
     -3115.0964
  -4626284.25849  -3595128.13347  23831143.6974   23831138.7684
      2417.1964
  -8524673.58649  -6618603.78948  21342639.8224   21342636.1044
      -363.8264
 04  9  2 17  2 45.0020000  0  6G20G 1G11G14G23G25
 -10540403.95749  -8208739.24647  22522938.6584   22522934.5924
      2232.9794
 -11262267.25049  -8771536.43748  21486447.1974   21486444.0374
       782.9734
  -1611849.82849  -1240225.24247  22247174.1744   22247170.4004
     -1568.7244
  17346478.85549  13492460.69947  23960059.4004   23960056.3384
     -3115.6974
  -4662507.61749  -3623354.10547  23824250.3774   23824245.3894
      2414.8914
  -8519090.01649  -6614252.95748  21343702.1974   21343698.7364
      -372.2384
 04  9  2 17  3  0.0020000  0  6G20G 1G11G14G23G25
 -10573854.85249  -8234804.86747  22516572.7834   22516569.2014
      2230.0604
 -11273945.68449  -8780636.51248  21484224.9864   21484221.7404
       778.5624
  -1588200.63349  -1221797.31647  22251674.3464   22251670.5294
     -1576.6134
  17393221.85949  13528883.79347  23968954.0334   23968950.8934
     -3116.2004
  -4698697.59049  -3651554.07047  23817363.6354   23817358.3964
      2412.6654
  -8513381.62149  -6609804.85948  21344788.7834   21344784.8114
      -380.5604
 04  9  2 17  3 15.0020000  0  6G20G 1G11G14G23G25
 -10607260.10249  -8260834.92647  22510216.1584   22510212.4124
      2227.0174
 -11285556.44549  -8789683.85248  21482015.3614   21482012.2604
       774.0514
  -1564431.81249  -1203276.17247  22256197.9004   22256193.9434
     -1584.5884
  17439973.78149  13565313.84847  23977850.3934   23977847.3814
     -3116.7954
  -4734852.54749  -3679726.75447  23810484.0254   23810478.1114
      2410.3304
  -8507546.79349  -6605258.24248  21345898.9634   21345895.1394
      -388.9894
 04  9  2 17  3 30.0020000  0  6G20G 1G11G14G23G25
 -10640620.92249  -8286830.36347  22503867.6354   22503864.3184
      2224.0554
 -11297100.96549  -8798679.58248  21479818.6044   21479815.2404
       769.6354
  -1540545.09849  -1184663.15247  22260742.9944   22260739.1434
     -1592.4484
  17486733.21949  13601749.74246  23986748.6434   23986745.6394
     -3117.2964
  -4770973.96149  -3707873.29347  23803609.7834   23803604.7994
      2408.0944
  -8501587.15249  -6600614.37148  21347032.8464   21347029.3504
      -397.3094
 04  9  2 17  3 45.0020000  0  6G20G 1G11G14G23G25
 -10673935.28149  -8312789.60247  22497528.1114   22497524.7054
      2220.9574
 -11308577.56249  -8807622.38348  21477634.6744   21477631.4634
       765.1074
  -1516538.79749  -1165956.96947  22265311.5574   22265307.6044
     -1600.4204
  17533501.83249  13638192.79747  23995648.6434   23995645.3074
     -3117.9084
  -4807059.94149  -3735992.23047  23796743.1504   23796737.9794
      2405.7324
  -8495501.10249  -6595871.99248  21348191.0574   21348187.3034
      -405.7374
 04  9  2 17  4  0.0020000  0  6G20G 1G11G14G23G25
 -10707203.45349  -8338712.84847  22491197.5334   22491193.6464
      2217.8784
 -11319986.68449  -8816512.60248  21475463.4554   21475460.3964
       760.6084
  -1492413.80149  -1147158.27747  22269902.2214   22269898.2324
     -1608.3334
  17580278.96549  13674642.48847  24004550.3074   24004546.9864
     -3118.4764
  -4843110.84849  -3764083.84047  23789882.8774   23789877.0454
      2403.3944
  -8489289.08249  -6591031.45748  21349373.5254   21349369.6624
      -414.1354
 04  9  2 17  4 15.0020000  0  6G20G 1G11G14G23G25
 -10740425.45349  -8364600.10947  22484875.9944   22484871.9754
      2214.8004
 -11331328.68749  -8825350.52048  21473305.1584   21473302.2254
       756.1344
  -1468170.48049  -1128267.39147  22274515.8934   22274511.5454
     -1616.2214
  17627064.14549  13711098.44947  24013453.1044   24013449.6434
     -3119.0124
  -4879127.08649  -3792148.43047  23783028.8934   23783024.0144
      2401.0834
  -8482951.33249  -6586092.95348  21350579.4004   21350575.3894
      -422.5174
 04  9  2 17  4 30.0020000  0  6G20G 1G11G14G23G25
 -10773602.19549  -8390452.12147  22478562.3074   22478558.6004
      2211.7834
 -11342604.73049  -8834137.04748  21471159.3614   21471156.4474
       751.7364
  -1443810.00849  -1109285.22347  22279151.2834   22279147.3424
     -1624.0324
  17673856.42649  13747559.95747  24022357.4944   24022354.0144
     -3119.4854
  -4915109.45749  -3820186.62547  23776182.0574   23776176.6894
      2398.8254
  -8476489.19949  -6581057.52348  21351809.0104   21351805.0614
      -430.8094
 04  9  2 17  4 45.0020000  0  6G20G 1G11G14G23G25
 -10806731.45349  -8416267.11747  22472258.2134   22472254.2954
      2208.6174
 -11353812.84849  -8842870.64148  21469026.5494   21469023.6314
       747.2084
  -1419330.71949  -1090210.46147  22283809.5414   22283805.5414
     -1631.9534
  17720657.49649  13784028.30547  24031263.0334   24031260.6004
     -3120.0714
  -4951056.11349  -3848196.98447  23769341.4004   23769336.0614
      2396.4444
  -8469900.78949  -6575923.70348  21353062.6584   21353058.9794
      -439.2274
 04  9  2 17  5  0.0020000  0  6G20G 1G11G14G23G25
 -10839813.07449  -8442045.00447  22465963.1664   22465959.3614
      2205.4414
 -11364953.10949  -8851551.35948  21466906.6504   21466903.5214
       742.6844
  -1394732.84449  -1071043.30547  22288490.4864   22288486.3224
     -1639.8584
  17767467.21149  13820503.38347  24040171.3544   24040167.8504
     -3120.6484
  -4986966.97749  -3876179.46147  23762508.2214   23762502.9594
      2394.0584
  -8463186.09449  -6570691.47748  21354340.3694   21354336.7214
      -447.6464
 04  9  2 17  5 15.0020000  0  6G20G 1G11G14G23G25
 -10872846.30549  -8467785.17647  22459676.6274   22459672.9124
      2202.2154
 -11376025.05549  -8860178.84448  21464799.5334   21464796.7484
       738.1304
  -1370016.03549  -1051783.46147  22293193.8384   22293189.7524
     -1647.7874
  17814285.99249  13856985.51646  24049080.5414   24049077.0254
     -3121.2524
  -5022841.43049  -3904133.55947  23755680.9714   23755676.2714
      2391.6304
  -8456344.77749  -6565360.57848  21355642.4004   21355638.8934
      -456.0884
 04  9  2 17  5 30.0020000  0  6G20G 1G11G14G23G25
 -10905832.85949  -8493488.97347  22453399.8774   22453395.7794
      2199.1044
 -11387030.64149  -8868754.62548  21462705.5024   21462702.1194
       733.7064
  -1345182.39549  -1032432.58247  22297919.5104   22297915.5964
     -1655.5764
  17861111.71949  13893473.08246  24057990.7294   24057987.8114
     -3121.7154
  -5058681.40249  -3932060.80147  23748861.1354   23748856.1934
      2389.3324
  -8449378.80549  -6559932.55148  21356967.7444   21356964.3114
      -464.3984
 04  9  2 17  5 45.0020000  0  6G20G 1G11G14G23G25
 -10938772.37549  -8519156.12147  22447131.4244   22447127.5414
      2195.9684
 -11397969.91849  -8877278.73448  21460623.9394   21460620.6544
       729.2854
  -1320232.13749  -1012990.83647  22302667.4164   22302663.5184
     -1663.3514
  17907944.23449  13929965.92647  24066902.8774   24066899.3264
     -3122.1684
  -5094486.86349  -3959961.14147  23742047.3934   23742042.8504
      2387.0314
  -8442288.18049  -6554407.39548  21358317.3384   21358313.6434
      -472.7084
 04  9  2 17  6  0.0020000  0  6G20G 1G11G14G23G25
 -10971663.86749  -8544785.85247  22440872.5964   22440868.8344
      2192.7664
 -11408842.07449  -8885750.53948  21458554.6974   21458551.9434
       724.8104
  -1295164.66449   -993457.75447  22307437.7604   22307433.5884
     -1671.1654
  17954784.45749  13966464.78946  24075816.0254   24075812.6004
     -3122.6824
  -5130256.82049  -3987833.81647  23735240.6974   23735235.4394
      2384.6644
  -8435072.34049  -6548784.66448  21359690.5254   21359686.6354
      -481.0564
 04  9  2 17  6 15.0020000  0  6G20G 1G11G14G23G25
 -11004506.47749  -8570377.49647  22434622.7134   22434618.8464
      2189.5074
 -11419646.52349  -8894169.58248  21456498.6354   21456496.0684
       720.2974
  -1269979.53949   -973833.00047  22312229.6744   22312226.3464
     -1679.0084
  18001632.72749  14002969.90647  24084731.5884   24084728.2644
     -3123.2184
  -5165990.68049  -4015678.36347  23728440.6824   23728435.3614
      2382.2574
  -8427730.70749  -6543063.91048  21361087.3934   21361083.7054
      -489.4424
 04  9  2 17  6 30.0020000  0  6G20G 1G11G14G23G25
 -11037300.54749  -8595931.30547  22428382.2524   22428378.3114
      2186.2714
 -11430383.75849  -8902536.25448  21454455.7364   21454452.7914
       715.8164
  -1244677.51649   -954117.14547  22317044.9554   22317040.9864
     -1686.8024
  18048488.54749  14039480.91447  24093647.2364   24093644.5644
     -3123.7214
  -5201688.77049  -4043495.03547  23721647.2754   23721642.3614
      2379.8734
  -8420263.80149  -6537245.54748  21362508.3144   21362504.5924
      -497.7944
 04  9  2 17  6 45.0020000  0  6G20G 1G11G14G23G25
 -11070045.20749  -8621446.61347  22422151.1044   22422147.2094
      2182.9774
 -11441053.30949  -8910850.18748  21452425.2834   21452422.4164
       711.3034
  -1219258.17249   -934309.87147  22321882.0104   22321877.9324
     -1694.6234
  18095352.39849  14075998.18046  24102565.4554   24102562.3304
     -3124.2574
  -5237350.60949  -4071283.48847  23714861.8464   23714856.0184
      2377.4564
  -8412671.10249  -6531329.16048  21363953.1354   21363949.6234
      -506.1804
 04  9  2 17  7  0.0020000  0  6G20G 1G11G14G23G25
 -11102739.97349  -8646923.05547  22415929.6354   22415925.5964
      2179.6514
 -11451654.87549  -8919111.14548  21450408.0884   21450404.9594
       706.7714
  -1193721.48049   -914411.16847  22326741.2754   22326737.2134
     -1702.4464
  18142224.39149  14112521.79346  24111484.7364   24111481.4594
     -3124.7994
  -5272975.77749  -4099043.34447  23708082.0804   23708076.6394
      2375.0114
  -8404952.52049  -6525314.68048  21365421.7834   21365418.3814
      -514.5724
 04  9  2 17  7 15.0020000  0  6G20G 1G11G14G23G25
 -11135384.03949  -8672359.98047  22409717.5724   22409713.7684
      2176.2714
 -11462188.07849  -8927318.84048  21448403.6354   21448400.3774
       702.2144
  -1168067.20349   -894420.83247  22331623.2444   22331619.5184
     -1710.2854
  18189104.97749  14149052.09847  24120406.3224   24120402.5024
     -3125.3724
  -5308563.64149  -4126774.12147  23701309.8074   23701304.5614
      2372.5244
  -8397107.73049  -6519201.85948  21366914.6974   21366911.1074
      -522.9864
 04  9  2 17  7 30.0020000  0  6G20G 1G11G14G23G25
 -11167978.99249  -8697758.63347  22403515.0644   22403510.9084
      2172.9974
 -11472654.69949  -8935474.64548  21446412.0964   21446408.6314
       697.7754
  -1142297.28549   -874340.39847  22336527.1894   22336523.4754
     -1717.9954
  18235992.22349  14185587.59446  24129328.3614   24129324.8544
     -3125.8164
  -5344116.10549  -4154477.33247  23694544.6664   23694539.5374
      2370.1644
  -8389138.56649  -6512992.12548  21368431.1274   21368427.4634
      -531.2784
 04  9  2 17  7 45.0020000  0  6G20G 1G11G14G23G25
 -11200523.07849  -8723117.66047  22397321.6744   22397317.9554
      2169.6064
 -11483053.21949  -8943577.39148  21444432.8544   21444429.8264
       693.2354
  -1116410.31249   -854168.74247  22341453.3774   22341449.8814
     -1725.7984
  18282887.55149  14222129.39546  24138252.5184   24138248.8304
     -3126.3554
  -5379631.66849  -4182151.77747  23687786.0804   23687780.7954
      2367.7044
  -8381043.62149  -6506684.37548  21369971.3384   21369967.9674
      -539.6634
 04  9  2 17  8  0.0020000  0  6G20G 1G11G14G23G25
 -11233018.57049  -8748438.82047  22391138.0804   22391134.5684
      2166.3664
 -11493386.20749  -8951629.06248  21442466.7994   21442463.9324
       688.8664
  -1090409.18749   -833908.13747  22346401.4324   22346397.4634
     -1733.4084
  18329788.32449  14258675.42646  24147177.5724   24147173.8424
     -3126.7184
  -5415112.62549  -4209799.26647  23681034.2134   23681029.0924
      2365.3974
  -8372825.38349  -6500280.55948  21371535.4394   21371531.6434
      -547.8834
 04  9  2 17  8 15.0020000  0  6G20G 1G11G14G23G25
 -11265463.68449  -8773720.71147  22384964.3074   22384960.3574
      2163.0084
 -11503652.12149  -8959628.47748  21440513.2754   21440510.2794
       684.3944
  -1064292.44549   -813557.44147  22351371.5964   22351367.0644
     -1741.1164
  18376695.95749  14295226.80546  24156103.1434   24156100.0024
     -3127.1764
  -5450557.34449  -4237418.52047  23674289.8384   23674283.9794
      2362.9814
  -8364482.38749  -6493779.52748  21373123.0254   21373119.8464
      -556.2004
 04  9  2 17  8 30.0020000  0  6G20G 1G11G14G23G25
 -11297858.36749  -8798963.31647  22378799.6044   22378795.6934
      2159.6464
 -11513851.28949  -8967575.87148  21438572.4474   21438569.6354
       679.9454
  -1038060.55549   -793117.02747  22356363.1114   22356359.3114
     -1748.7934
  18423610.25449  14331783.37946  24165030.9244   24165027.6934
     -3127.6204
  -5485966.04349  -4265009.69947  23667551.7914   23667546.3224
      2360.5804
  -8356015.04749  -6487181.60548  21374734.3384   21374730.6704
      -564.4894
 04  9  2 17  8 45.0020000  0  6G20G 1G11G14G23G25
 -11330203.61349  -8824167.39847  22372644.4084   22372640.8304
      2156.3504
 -11523984.84449  -8975472.14848  21436643.9864   21436640.8694
       675.5704
  -1011714.85549   -772587.92647  22361376.3934   22361372.4594
     -1756.3804
  18470529.88349  14368344.09446  24173959.2994   24173955.8184
     -3127.9754
  -5521339.66449  -4292573.55147  23660820.0024   23660814.4824
      2358.2414
  -8347424.55949  -6480487.71548  21376369.2444   21376365.4794
      -572.6994
 04  9  2 17  9  0.0020000  0  6G20G 1G11G14G23G25
 -11362499.23449  -8849332.81647  22366499.1824   22366494.9004
      2153.0414
 -11534052.84449  -8983317.34448  21434728.0574   21434724.9394
       671.2004
   -985255.60549   -751970.34447  22366411.6114   22366407.3774
     -1763.9504
  18517454.82449  14404908.96146  24182888.6744   24182885.8384
     -3128.3294
  -5556678.33649  -4320110.16047  23654095.7684   23654090.1664
      2355.9114
  -8338711.14849  -6473698.04348  21378027.2754   21378023.8934
      -580.8944
 04  9  2 17  9 15.0020000  0  6G20G 1G11G14G23G25
 -11394744.41449  -8874458.92647  22360362.4084   22360358.7954
      2149.6794
 -11544054.86749  -8991111.12148  21432824.9794   21432821.6624
       666.8024
   -958682.43449   -731263.98447  22371468.4164   22371464.0804
     -1771.5454
  18564385.28949  14441478.13346  24191819.6194   24191815.9364
     -3128.6984
  -5591981.57849  -4347619.16047  23647377.7754   23647372.2054
      2353.5494
  -8329874.23049  -6466812.13748  21379709.0184   21379705.3694
      -589.1284
 04  9  2 17  9 30.0020000  0  6G20G 1G11G14G23G25
 -11426940.66849  -8899546.91847  22354236.1504   22354231.9824
      2146.4174
 -11553992.70349  -8998854.89148  21430933.8384   21430930.2484
       662.5224
   -931997.51249   -710470.56247  22376545.8934   22376542.0414
     -1778.9954
  18611319.50849  14478050.24246  24200750.6194   24200747.9794
     -3128.9484
  -5627251.01249  -4375101.83647  23640666.2524   23640660.7444
      2351.2964
  -8320915.66449  -6459831.44148  21381413.6274   21381410.1544
      -597.2384
 04  9  2 17  9 45.0020000  0  6G20G 1G11G14G23G25
 -11459084.09049  -8924593.73047  22348119.4324   22348115.8464
      2142.8954
 -11563862.70349  -9006545.80948  21429055.4004   21429052.2254
       658.0004
   -905197.28549   -689587.28547  22381646.0104   22381642.4164
     -1786.6824
  18658261.02749  14514628.02746  24209683.6274   24209680.4044
     -3129.4354
  -5662482.91049  -4402555.25447  23633961.0644   23633956.0144
      2348.7934
  -8311832.03549  -6452753.28948  21383142.1664   21383138.6234
      -605.5754
 04  9  2 17 10  0.0020000  0  6G20G 1G11G14G23G25
 -11491176.59049  -8949600.86747  22342012.3074   22342008.3574
      2139.5004
 -11573667.07849  -9014185.57448  21427189.8544   21427186.6074
       653.6254
   -878284.14849   -668616.02347  22386767.5964   22386763.5374
     -1794.2094
  18705207.54349  14551209.69146  24218616.7914   24218614.1824
     -3129.7684
  -5697679.48449  -4429981.13747  23627263.4164   23627258.5214
      2346.4384
  -8302625.63749  -6445579.47748  21384894.2994   21384890.8264
      -613.7604
 04  9  2 17 10 15.0020000  0  6G20G 1G11G14G23G25
 -11523218.19949  -8974568.34047  22335915.0494   22335911.3224
      2136.1074
 -11583406.08249  -9021774.40248  21425336.3614   21425333.4714
       649.2674
   -851258.57849   -647557.15647  22391910.3074   22391906.4944
     -1801.7054
  18752158.78949  14587795.06346  24227551.7294   24227549.1274
     -3130.0834
  -5732840.75449  -4457379.51647  23620572.1274   23620567.5964
      2344.0854
  -8293296.63749  -6438310.12548  21386669.2914   21386666.0534
      -621.9334
 04  9  2 17 10 30.0020000  0  6G20G 1G11G14G23G25
 -11555208.68449  -8999495.98847  22329827.7604   22329823.7134
      2132.6994
 -11593079.69149  -9029312.28148  21423495.5884   21423492.5374
       644.9074
   -824120.66049   -626410.73847  22397074.3384   22397070.3814
     -1809.1954
  18799114.71949  14624384.06646  24236486.7364   24236483.7014
     -3130.3954
  -5767966.69149  -4484750.34847  23613888.6044   23613883.4204
      2341.7294
  -8283845.21949  -6430945.38748  21388467.9634   21388464.5214
      -630.0954
 04  9  2 17 10 45.0020000  0  6G20G 1G11G14G23G25
 -11587144.17249  -9024380.78147  22323750.4244   22323746.4754
      2129.0334
 -11602684.40249  -9036796.46948  21421667.9554   21421664.6354
       640.3144
   -796867.16449   -605174.26247  22402260.5414   22402256.5144
     -1816.9004
  18846078.72749  14660979.36746  24245423.8464   24245421.3894
     -3130.9344
  -5803053.60549  -4512090.80147  23607212.1744   23607206.6154
      2339.1284
  -8274267.98849  -6423482.60948  21390290.4634   21390286.9634
      -638.4824
 04  9  2 17 11  0.0020000  0  6G20G 1G11G14G23G25
 -11619026.24249  -9049223.95347  22317683.0024   22317679.7794
      2125.4714
 -11612222.15249  -9044228.48448  21419852.8774   21419849.8614
       635.8504
   -769500.13749   -583849.32047  22407468.6894   22407464.5804
     -1824.4684
  18893048.93049  14697579.48046  24254362.7364   24254359.3964
     -3131.3474
  -5838103.34049  -4539402.26647  23600542.0804   23600536.8614
      2336.6494
  -8264566.82049  -6415923.26248  21392136.4794   21392132.8184
      -646.7454
 04  9  2 17 11 15.0020000  0  6G20G 1G11G14G23G25
 -11650856.80949  -9074026.98847  22311626.3304   22311622.7484
      2122.0384
 -11621695.01249  -9051609.93048  21418050.4164   21418047.3114
       631.5244
   -742021.90249   -562437.71547  22412697.1664   22412693.3184
     -1831.8824
  18940023.15249  14734182.76646  24263301.4324   24263297.9864
     -3131.6154
  -5873117.95749  -4566686.35947  23593878.7754   23593873.1624
      2334.3084
  -8254743.84049  -6408268.99248  21394005.5494   21394002.2324
      -654.8654
 04  9  2 17 11 30.0020000  0  6G20G 1G11G14G23G25
 -11682631.93049  -9098786.81247  22305579.6744   22305576.0614
      2118.3414
 -11631099.35949  -9058937.99648  21416260.6194   21416257.6234
       626.9574
   -714428.96149   -540936.73847  22417947.8774   22417944.3614
     -1839.5294
  18987004.96949  14770791.93446  24272241.6974   24272238.4824
     -3132.1214
  -5908093.75449  -4593940.20747  23587222.5964   23587217.5334
      2331.7204
  -8244795.47349  -6400517.02348  21395898.6744   21395895.2054
      -663.2244
 04  9  2 17 11 45.0020000  0  6G20G 1G11G14G23G25
 -11714350.97349  -9123502.95347  22299543.7834   22299540.3384
      2114.6034
 -11640434.79349  -9066212.35548  21414484.1744   21414481.2644
       622.3624
   -686721.09049   -519346.20347  22423221.1114   22423216.8654
     -1847.1914
  19033994.66049  14807407.23446  24281183.7754   24281180.5104
     -3132.6464
  -5943030.11749  -4621163.32847  23580574.6744   23580569.0454
      2329.0914
  -8234721.36749  -6392667.07048  21397815.9394   21397812.1194
      -671.6074
 04  9  2 17 12  0.0020000  0  6G20G 1G11G14G23G25
 -11746016.27749  -9148177.21147  22293518.1354   22293514.6624
      2111.0204
 -11649703.99249  -9073435.10548  21412720.4634   21412717.4984
       617.9474
   -658901.25449   -497668.42247  22428514.9164   22428510.9044
     -1854.6564
  19080989.49249  14844026.57846  24290126.9714   24290123.1704
     -3132.9894
  -5977929.78149  -4648357.87147  23573933.8224   23573928.1894
      2326.6444
  -8224524.46549  -6384721.43448  21399756.2054   21399752.3814
      -679.7934
 04  9  2 17 12 15.0020000  0  6G20G 1G11G14G23G25
 -11777625.77749  -9172807.98847  22287502.8774   22287499.2874
      2107.3004
 -11658905.18449  -9080604.86348  21410969.2834   21410966.5534
       613.4134
   -630967.87549   -475902.16447  22433830.3694   22433826.3114
     -1862.2254
  19127991.13749  14880651.20746  24299070.3304   24299067.4004
     -3133.4434
  -6012790.76649  -4675522.27047  23567299.9794   23567294.4514
      2324.0664
  -8214203.04749  -6376678.77048  21401720.6894   21401716.7404
      -688.0954
 04  9  2 17 12 30.0020000  0  6G20G 1G11G14G23G25
 -11809178.93049  -9197394.85547  22281498.7214   22281495.1154
      2103.5434
 -11668038.06649  -9087721.39848  21409231.6744   21409228.2404
       608.8594
   -602920.67649   -454047.21947  22439167.5334   22439163.8304
     -1869.8134
  19174999.95749  14917281.43046  24308015.5964   24308013.0724
     -3133.9214
  -6047612.64549  -4702656.19147  23560673.4864   23560667.8694
      2321.4594
  -8203756.78949  -6368538.83648  21403708.1584   21403704.4124
      -696.4174
 04  9  2 17 12 45.0020000  0  6G20G 1G11G14G23G25
 -11840675.21149  -9221937.40647  22275504.9634   22275501.3934
      2099.7524
 -11677102.36749  -9094784.48048  21407506.8544   21407503.4714
       604.2874
   -574759.80149   -432103.69547  22444526.4394   22444522.4324
     -1877.3924
  19222016.13349  14953917.39146  24316963.5724   24316959.7214
     -3134.4124
  -6082395.27349  -4729759.52747  23554054.5184   23554049.3574
      2318.8424
  -8193185.54349  -6360301.50048  21405720.0184   21405716.2754
      -704.7504
 04  9  2 17 13  0.0020000  0  6G20G 1G11G14G23G25
 -11872116.50449  -9246437.11347  22269521.8224   22269517.8964
      2096.0864
 -11686100.26249  -9101795.83248  21405794.6194   21405791.2714
       599.8604
   -546487.48049   -410073.32847  22449906.2444   22449902.5144
     -1884.8214
  19269037.40249  14990557.31347  24325910.5804   24325907.8504
     -3134.7514
  -6117140.59049  -4756833.79747  23547442.8544   23547437.6584
      2316.3544
  -8182491.42649  -6351968.42248  21407754.9714   21407751.3264
      -712.9414
 04  9  2 17 13 15.0020000  0  6G20G 1G11G14G23G25
 -11903502.16049  -9270893.46147  22263549.3384   22263545.8074
      2092.3774
 -11695031.41049  -9108755.16448  21404094.7364   21404091.9004
       595.4104
   -518103.61349   -387956.04747  22455308.1354   22455303.9554
     -1892.2584
  19316064.08649  15027201.44546  24334859.6434   24334856.9124
     -3135.1124
  -6151848.15649  -4783878.64147  23540838.1744   23540833.0534
      2313.8384
  -8171674.34449  -6343539.53148  21409813.3544   21409809.5804
      -721.1394
 04  9  2 17 13 30.0020000  0  6G20G 1G11G14G23G25
 -11934832.55949  -9295306.75447  22257587.3934   22257583.8144
      2088.6934
 -11703896.47749  -9115663.01248  21402407.7294   21402404.8224
       591.0044
   -489609.01249   -365752.47747  22460729.9004   22460726.5214
     -1899.6404
  19363095.50849  15063849.27746  24343809.2054   24343806.1434
     -3135.4284
  -6186518.52749  -4810894.50047  23534241.2294   23534235.4634
      2311.3584
  -8160734.99249  -6335015.35948  21411895.0964   21411891.1074
      -729.2904
 04  9  2 17 13 45.0020000  0  6G20G 1G11G14G23G25
 -11966106.83649  -9319676.32047  22251636.0644   22251632.5964
      2084.9524
 -11712694.87149  -9122518.91048  21400733.5644   21400730.8654
       586.5604
   -461003.30949   -343462.32847  22466173.4864   22466169.7684
     -1907.0474
  19410132.02049  15100501.07446  24352760.3224   24352757.4754
     -3135.7674
  -6221151.05149  -4837880.86747  23527650.3074   23527644.7714
      2308.8354
  -8149672.85549  -6326395.52048  21414000.3614   21413996.5534
      -737.4764
 04  9  2 17 14  0.0020000  0  6G20G 1G11G14G23G25
 -11997326.90249  -9344003.63747  22245694.8144   22245691.2174
      2081.3384
 -11721428.82849  -9129324.59048  21399071.6274   21399068.5294
       582.2644
   -432289.00449   -321087.56247  22471637.5644   22471634.2404
     -1914.2874
  19457171.47749  15137155.18446  24361711.8854   24361708.6894
     -3135.9644
  -6255747.82849  -4864839.37547  23521067.1044   23521061.1544
      2306.4524
  -8138490.23449  -6317681.78548  21416128.2294   21416124.6154
      -745.5084
 04  9  2 17 14 15.0020000  0  6G20G 1G11G14G23G25
 -12028490.77349  -9368287.16447  22239765.1504   22239761.1194
      2077.5914
 -11730096.58249  -9136078.68448  21397422.4324   21397419.2644
       577.8504
   -403464.42649   -298626.86347  22477122.5334   22477119.0614
     -1921.6394
  19504215.59049  15173812.90246  24370663.3774   24370660.9324
     -3136.2744
  -6290307.01249  -4891768.59047  23514489.7054   23514484.8614
      2303.9464
  -8127185.52349  -6308872.92248  21418279.3774   21418275.8934
      -753.6474
 04  9  2 17 14 30.0020000  0  6G20G 1G11G14G23G25
 -12059598.75049  -9392527.14547  22233845.1744   22233841.3144
      2073.8654
 -11738698.76649  -9142781.68448  21395785.4164   21395782.1704
       573.4794
   -374530.52349   -276080.98447  22482628.8384   22482625.4674
     -1928.9274
  19551263.60949  15210473.68846  24379616.5104   24379613.4364
     -3136.5354
  -6324829.14149  -4918668.92247  23507920.2444   23507915.4674
      2301.4754
  -8115759.28949  -6299969.36748  21420453.5334   21420450.0064
      -761.7494
 04  9  2 17 14 45.0020000  0  6G20G 1G11G14G23G25
 -12090652.09449  -9416724.55547  22227935.8144   22227932.1864
      2070.2234
 -11747236.95749  -9149434.82048  21394160.1744   21394157.4594
       569.2134
   -345488.98049   -253451.23047  22488155.2684   22488151.4164
     -1936.1034
  19598313.98049  15247136.27346  24388569.7364   24388566.9394
     -3136.6914
  -6359315.68049  -4945541.53547  23501358.1434   23501352.8344
      2299.1034
  -8104213.31249  -6290972.50448  21422650.9084   21422647.4514
      -769.7324
 04  9  2 17 15  0.0020000  0  6G20G 1G11G14G23G25
 -12121650.90249  -9440879.46947  22222037.0884   22222033.1274
      2066.5874
 -11755711.49249  -9156038.35548  21392547.8544   21392544.4754
       564.9694
   -316340.33249   -230738.00447  22493702.1744   22493698.3814
     -1943.2434
  19645366.33649  15283800.42646  24397524.6044   24397520.6624
     -3136.8244
  -6393766.90249  -4972386.61347  23494802.6744   23494796.9594
      2296.7484
  -8092548.05149  -6281882.69548  21424870.3464   21424866.6894
      -777.6844
 04  9  2 17 15 15.0020000  0  6G20G 1G11G14G23G25
 -12152593.18049  -9464990.32847  22216149.0254   22216145.1314
      2062.8184
 -11764120.62949  -9162590.92648  21390947.4324   21390944.6784
       560.6094
   -287082.97349   -207940.07447  22499269.2364   22499265.7404
     -1950.4914
  19692422.31649  15320467.39146  24406478.5804   24406475.3224
     -3137.0654
  -6428181.02349  -4999202.80147  23488253.8614   23488248.2254
      2294.2754
  -8080761.79349  -6272698.59048  21427113.3304   21427109.8854
      -785.7514
 04  9  2 17 15 30.0020000  0  6G20G 1G11G14G23G25
 -12183480.67249  -9489058.50047  22210271.3144   22210267.1824
      2059.1664
 -11772466.34849  -9169094.08248  21389359.3934   21389356.4824
       556.3814
   -257719.17249   -185059.20747  22504857.0494   22504853.6394
     -1957.5874
  19739479.91849  15357135.62546  24415432.7444   24415430.2914
     -3137.1734
  -6462559.92649  -5025991.55147  23481711.4474   23481705.2484
      2291.9274
  -8068856.55549  -6263421.79348  21429378.9394   21429375.1504
      -793.6834
 04  9  2 17 15 45.0020000  0  6G20G 1G11G14G23G25
 -12214311.76249  -9513082.72747  22204404.2684   22204400.5254
      2055.4064
 -11780747.46149  -9175546.89848  21387783.5104   21387780.6004
       552.0744
   -228247.93749   -162094.61747  22510465.2214   22510461.9244
     -1964.7494
  19786540.14849  15393805.91446  24424388.6894   24424385.6314
     -3137.3494
  -6496902.25449  -5052751.80547  23475176.4324   23475170.6974
      2289.4894
  -8056831.28949  -6254051.45348  21431667.3144   21431663.6154
      -801.6844
 04  9  2 17 16  0.0020000  0  6G20G 1G11G14G23G25
 -12245085.74649  -9537062.45347  22198548.0024   22198544.7404
      2051.5994
 -11788963.47349  -9181948.98448  21386220.1504   21386217.4164
       547.7344
   -198668.99249   -139046.11747  22516094.4394   22516090.5644
     -1971.9304
  19833603.63349  15430478.71946  24433344.4084   24433341.2754
     -3137.5664
  -6531207.45349  -5079483.13747  23468648.8694   23468642.7684
      2287.0134
  -8044685.57049  -6244587.26248  21433978.4554   21433975.0024
      -809.7154
 04  9  2 17 16 15.0020000  0  6G20G 1G11G14G23G25
 -12275802.85249  -9560997.85247  22192702.9084   22192699.3574
      2047.8074
 -11797114.97349  -9188300.80548  21384668.7684   21384665.8654
       543.4334
   -168983.03949   -115914.22347  22521743.2754   22521739.4124
     -1979.0644
  19880669.70749  15467153.55146  24442301.0574   24442297.4364
     -3137.7384
  -6565475.98049  -5106185.89147  23462127.2364   23462121.8264
      2284.5684
  -8032420.04749  -6235029.71148  21436312.5494   21436308.8114
      -817.7024
 04  9  2 17 16 30.0020000  0  6G20G 1G11G14G23G25
 -12306462.85949  -9584888.76247  22186868.4084   22186864.6434
      2044.0014
 -11805201.96549  -9194602.35948  21383130.0574   21383127.2684
       539.1334
   -139190.47349    -92699.25047  22527412.8544   22527408.7794
     -1986.1714
  19927738.30549  15503830.36346  24451257.8614   24451254.5574
     -3137.9074
  -6599707.89849  -5132860.10547  23455613.6354   23455607.2954
      2282.1284
  -8020034.88749  -6225378.94148  21438669.3224   21438665.7754
      -825.6774
 04  9  2 17 16 45.0020000  0  6G20G 1G11G14G23G25
 -12337064.68749  -9608734.34047  22181045.2134   22181041.1354
      2040.1224
 -11813223.65649  -9200853.02348  21381603.1824   21381600.5924
       534.7794
   -109290.79349    -69400.80947  22533102.0104   22533098.5374
     -1993.3124
  19974810.12149  15540509.67246  24460215.1894   24460212.6234
     -3138.1214
  -6633902.26249  -5159505.05947  23449106.3074   23449100.7524
      2279.6244
  -8007529.46149  -6215634.45748  21441048.9794   21441045.5454
      -833.6954
 04  9  2 17 17  0.0020000  0  6G20G 1G11G14G23G25
 -12367606.75049  -9632533.35247  22175233.2444   22175229.2644
      2036.1384
 -11821178.84849  -9207051.87148  21380089.6664   21380086.7954
       530.3464
    -79282.71949    -46017.91047  22538812.9004   22538808.8144
     -2000.5384
  20021886.31349  15577192.37546  24469173.5024   24469170.1234
     -3138.4134
  -6668057.64149  -5186119.61747  23442606.3774   23442601.3654
      2277.0254
  -7994902.52349  -6205795.28948  21443451.8934   21443448.2754
      -841.7964
 04  9  2 17 17 15.0020000  0  6G20G 1G11G14G23G25
 -12398091.69549  -9656287.85947  22169432.3694   22169428.4284
      2032.3304
 -11829070.31249  -9213201.07448  21378588.2994   21378584.9514
       526.0984
    -49169.24649    -22552.88347  22544542.8934   22544539.0374
     -2007.5654
  20068964.01249  15613876.28146  24478132.1274   24478129.4514
     -3138.5134
  -6702176.73849  -5212705.89847  23436113.7524   23436108.7684
      2274.6074
  -7982156.93049  -6195863.65248  21445877.3224   21445873.9754
      -849.7064
 04  9  2 17 17 30.0020000  0  6G20G 1G11G14G23G25
 -12428517.79749  -9679996.50447  22163642.1354   22163638.2444
      2028.4074
 -11836896.64149  -9219299.50848  21377098.7834   21377095.6314
       521.7554
    -18949.22349       995.17247  22550293.8304   22550290.0884
     -2014.6684
  20116044.71149  15650562.52046  24487090.8934   24487088.7644
     -3138.7134
  -6736258.16449  -5239262.83247  23429627.8224   23429623.7324
      2272.0954
  -7969291.35549  -6185838.53548  21448325.5724   21448321.8114
      -857.7054
 04  9  2 17 17 45.0020000  0  6G20G 1G11G14G23G25
 -12458881.80549  -9703656.76647  22157864.1664   22157860.5844
      2024.2674
 -11844654.99649  -9225344.98048  21375622.5574   21375619.4984
       517.2244
     11379.77749     24628.14147  22556064.9004   22556061.9864
     -2021.9334
  20163131.02049  15687253.10546  24496051.3544   24496048.3544
     -3139.0874
  -6770298.96149  -5265788.10947  23423150.4004   23423145.5334
      2269.3864
  -7956303.07449  -6175717.80548  21450797.1894   21450793.5454
      -865.8854
 04  9  2 17 18  0.0020000  0  6G20G 1G11G14G23G25
 -12489187.33249  -9727271.46147  22152097.1504   22152093.4944
      2020.3684
 -11852349.20749  -9231340.46948  21374158.4244   21374155.4204
       512.9474
     41813.84449     48342.97747  22561856.5414   22561852.8034
     -2028.9384
  20210219.19549  15723945.16846  24505012.2754   24505009.1314
     -3139.2124
  -6804302.77749  -5292284.57047  23416679.9474   23416674.6934
      2266.9214
  -7943195.93049  -6165504.44948  21453291.3144   21453287.8264
      -873.8104
 04  9  2 17 18 15.0020000  0  6G20G 1G11G14G23G25
 -12519433.54749  -9750839.92647  22146341.3694   22146337.6974
      2016.4144
 -11859978.71949  -9237285.55148  21372706.4634   21372703.6504
       508.6344
     72353.44149     72140.04747  22567668.3144   22567664.6074
     -2035.9734
  20257309.77049  15760639.08246  24513972.7604   24513970.1824
     -3139.3724
  -6838269.02049  -5318751.75447  23410216.4944   23410211.5294
      2264.4164
  -7929969.63349  -6155198.24248  21455808.4324   21455804.3464
      -881.7534
 04  9  2 17 18 30.0020000  0  6G20G 1G11G14G23G25
 -12549620.93749  -9774362.56647  22140597.0574   22140593.4634
      2012.4934
 -11867544.33649  -9243180.82848  21371266.8384   21371263.5884
       504.3744
    102997.53549     96018.54747  22573499.5414   22573495.6864
     -2042.9404
  20304401.91449  15797334.24646  24522934.2684   24522932.1114
     -3139.4764
  -6872198.50449  -5345190.30147  23403760.0644   23403754.5804
      2261.9664
  -7916625.12149  -6144799.93448  21458347.4794   21458344.1154
      -889.6344
 04  9  2 17 18 45.0020000  0  6G20G 1G11G14G23G25
 -12579747.54749  -9797837.84447  22134864.1434   22134860.5104
      2008.4414
 -11875044.33649  -9249024.98448  21369839.6194   21369836.6154
       500.0004
    133747.56649    119979.58247  22579351.0334   22579347.1544
     -2050.0024
  20351497.22749  15834031.85246  24531896.5644   24531894.2014
     -3139.6874
  -6906089.26649  -5371598.67247  23397310.9324   23397304.8074
      2259.3844
  -7903160.61349  -6134308.10948  21460909.7364   21460906.3894
      -897.6344
 04  9  2 17 19  0.0020000  0  6G20G 1G11G14G23G25
 -12609812.72749  -9821265.25447  22129142.9244   22129138.7604
      2004.3454
 -11882478.39549  -9254817.76648  21368424.6044   21368421.7564
       495.6044
    164603.68849    144023.30147  22585222.9714   22585219.1044
     -2057.0754
  20398596.08649  15870732.16846  24540859.1744   24540856.2174
     -3139.9244
  -6939940.93449  -5397976.59847  23390869.1894   23390863.1744
      2256.7784
  -7889575.98049  -6123722.68748  21463494.6584   21463491.2604
      -905.6424
 04  9  2 17 19 15.0020000  0  6G20G 1G11G14G23G25
 -12639819.12549  -9844646.85547  22123432.9004   22123429.2954
      2000.4274
 -11889849.52749  -9260561.51248  21367021.9394   21367019.0414
       491.4094
    195562.56649    168147.08647  22591114.1974   22591110.0574
     -2063.9254
  20445695.33249  15907432.88746  24549821.9714   24549818.9794
     -3139.9504
  -6973756.31249  -5424326.23847  23384433.8854   23384428.3224
      2254.3594
  -7875874.32049  -6113046.07448  21466101.9714   21466098.6784
      -913.4444
 04  9  2 17 19 30.0020000  0  6G20G 1G11G14G23G25
 -12669763.64149  -9867980.24247  22117734.6584   22117730.8654
      1996.3014
 -11897154.83649  -9266253.94948  21365631.8774   21365628.9124
       487.0214
    226626.88349    192353.03547  22597025.5414   22597022.1664
     -2070.9544
  20492797.82849  15944136.12946  24558785.3304   24558782.7874
     -3140.1664
  -7007532.55149  -5450645.38347  23378006.7054   23378000.8074
      2251.7494
  -7862052.82449  -6102276.07848  21468732.4394   21468728.9594
      -921.4334
 04  9  2 17 19 45.0020000  0  6G20G 1G11G14G23G25
 -12699648.49649  -9891267.14547  22112047.6044   22112043.8894
      1992.3244
 -11904396.88749  -9271897.11748  21364253.9244   21364250.9474
       482.8034
    257793.90649    216639.00847  22602956.6894   22602952.7214
     -2077.8024
  20539901.01249  15980839.86346  24567748.5414   24567746.0764
     -3140.2124
  -7041272.05949  -5476935.88747  23371586.1504   23371580.1784
      2249.3014
  -7848114.16049  -6091414.78948  21471384.8544   21471381.4824
      -929.2444
 04  9  2 17 20  0.0020000  0  6G20G 1G11G14G23G25
 -12729474.50849  -9914508.18747  22106371.8694   22106368.4394
      1988.4014
 -11911576.79349  -9277491.84848  21362887.4004   21362884.4944
       478.6604
    289062.35549    241004.01647  22608906.5254   22608902.8734
     -2084.5634
  20587003.72749  16017543.25046  24576711.9714   24576709.1934
     -3140.1814
  -7074975.85549  -5503198.57047  23365172.5574   23365166.8934
      2246.9204
  -7834059.63349  -6080463.21548  21474058.9394   21474055.5294
      -936.9684
 04  9  2 17 20 15.0020000  0  6G20G 1G11G14G23G25
 -12759239.10249  -9937701.37947  22100707.9634   22100704.3734
      1984.3064
 -11918692.21549  -9283036.33248  21361533.4164   21361530.7054
       474.3614
    320434.34449    265449.69947  22614876.7444   22614872.9904
     -2091.4664
  20634108.20349  16054248.02046  24585675.5254   24585673.0104
     -3140.2984
  -7108641.62949  -5529431.62547  23358765.6974   23358760.6824
      2244.3854
  -7819886.82049  -6069419.46948  21476756.5414   21476752.8264
      -944.8544
 04  9  2 17 20 30.0020000  0  6G20G 1G11G14G23G25
 -12788942.61749  -9960846.97347  22095055.4944   22095051.8344
      1980.2344
 -11925743.80149  -9288531.07448  21360191.7214   21360188.5184
       470.1064
    351908.94149    289975.34447  22620866.1664   22620861.9084
     -2098.3074
  20681213.79349  16090953.64146  24594639.9864   24594636.6974
     -3140.3734
  -7142269.77749  -5555635.36747  23352366.2994   23352361.5294
      2241.8774
  -7805596.64549  -6058284.27348  21479475.6434   21479472.1744
      -952.6784
 04  9  2 17 20 45.0020000  0  6G20G 1G11G14G23G25
 -12818585.79749  -9983945.54747  22089414.8544   22089411.3074
      1976.2124
 -11932732.51249  -9293976.82448  21358861.7524   21358858.8264
       465.9144
    383484.97349    314580.03547  22626874.8544   22626871.3224
     -2105.0694
  20728319.42249  16127659.27746  24603603.5964   24603600.7604
     -3140.3754
  -7175861.36349  -5581810.60547  23345974.7134   23345969.3424
      2239.4394
  -7791190.16049  -6047058.44548  21482216.9324   21482213.4324
      -960.4324
 04  9  2 17 21  0.0020000  0  6G20G 1G11G14G23G25
 -12848168.21549 -10006996.78147  22083785.2754   22083781.5254
      1972.1614
 -11939658.27049  -9299373.52048  21357543.7214   21357540.9084
       461.7174
    415162.27049    339263.62147  22632902.6114   22632898.8814
     -2111.8204
  20775425.17249  16164365.02746  24612567.1664   24612565.4434
     -3140.3834
  -7209416.16849  -5607957.18047  23339589.4714   23339584.0844
      2236.9874
  -7776667.38749  -6035742.00048  21484980.7364   21484977.3304
      -968.1854
 04  9  2 17 21 15.0020000  0  6G20G 1G11G14G23G25
 -12877689.15249 -10030000.10547  22078167.7914   22078163.7444
      1968.0634
 -11946520.59049  -9304720.78148  21356237.9794   21356235.1154
       457.4884
    446941.09049    364026.32447  22638949.9084   22638946.5924
     -2118.5884
  20822531.54349  16201071.25846  24621531.7604   24621528.9714
     -3140.4254
  -7242933.66049  -5634074.69947  23333211.6354   23333205.7054
      2234.4994
  -7762027.92249  -6024334.62948  21487766.5254   21487762.9164
      -975.9644
 04  9  2 17 21 30.0020000  0  6G20G 1G11G14G23G25
 -12907146.89149 -10052954.19147  22072562.2364   22072558.1974
      1963.8494
 -11953318.14149  -9310017.57848  21354944.6274   21354941.5804
       453.1704
    478822.55549    388868.99647  22645017.1194   22645013.3734
     -2125.4314
  20869639.79749  16237778.93846  24630496.2054   24630493.5764
     -3140.5504
  -7276412.31649  -5660161.94947  23326840.5724   23326835.0144
      2231.9104
  -7747270.58249  -6012835.41448  21490574.5964   21490570.9634
      -983.8234
 04  9  2 17 21 45.0020000  0  6G20G 1G11G14G23G25
 -12936541.26649 -10075858.89547  22066968.6584   22066964.6074
      1959.6254
 -11960050.95349  -9315263.92648  21353663.3934   21353660.3384
       448.8544
    510806.42249    413791.47747  22651103.0184   22651099.6664
     -2132.2584
  20916749.86349  16274488.06646  24639460.6664   24639458.0534
     -3140.6714
  -7309852.09849  -5686218.90647  23320477.1274   23320472.1114
      2229.3194
  -7732395.54349  -6001244.48448  21493405.3144   21493401.6194
      -991.6694
 04  9  2 17 22  0.0020000  0  6G20G 1G11G14G23G25
 -12965872.53949 -10098714.43047  22061386.9794   22061383.2364
      1955.4184
 -11966719.71949  -9320460.35548  21352393.9714   21352390.9514
       444.5844
    542891.85249    438793.09047  22657208.6504   22657205.4904
     -2139.0294
  20963861.02749  16311198.03146  24648425.6664   24648423.3964
     -3140.7444
  -7343253.56649  -5712246.02047  23314121.1434   23314116.1394
      2226.7654
  -7717403.48049  -5989562.35548  21496258.2134   21496254.7134
      -999.4714
 04  9  2 17 22 15.0020000  0  6G20G 1G11G14G23G25
 -12995143.25849 -10121522.77347  22055817.1744   22055813.4394
      1951.3814
 -11973327.22749  -9325609.06648  21351136.7994   21351133.6584
       440.5014
    575075.73849    463871.41847  22663333.2054   22663329.5724
     -2145.5924
  21010970.43849  16347906.64546  24657390.1274   24657387.6074
     -3140.6274
  -7376619.45749  -5738245.39547  23307770.9634   23307766.3654
      2224.3934
  -7702297.30549  -5977791.31648  21499133.0334   21499129.4984
     -1007.0784
 04  9  2 17 22 30.0020000  0  6G20G 1G11G14G23G25
 -13024350.63749 -10144281.77347  22050258.8774   22050255.1864
      1947.1594
 -11979871.04749  -9330708.15648  21349891.5104   21349888.2834
       436.2554
    607360.39549    489028.27747  22669476.8934   22669472.9824
     -2152.3104
  21058080.50449  16384615.74246  24666355.1894   24666352.3544
     -3140.6714
  -7409947.05149  -5764214.93747  23301429.2914   23301424.2954
      2221.8404
  -7687074.71949  -5965929.56248  21502029.5024   21502026.2754
     -1014.8394
 04  9  2 17 22 45.0020000  0  6G20G 1G11G14G23G25
 -13053493.84449 -10166990.75847  22044713.3544   22044709.7834
      1942.8804
 -11986350.58249  -9335757.14848  21348658.5884   21348655.8034
       431.9694
    639746.06649    514263.84047  22675639.8544   22675635.8934
     -2159.0454
  21105191.86749  16421325.86746  24675320.5024   24675317.5574
     -3140.7584
  -7443235.84049  -5790154.23847  23295094.6274   23295089.1824
      2219.2534
  -7671735.34049  -5953976.80948  21504948.4944   21504945.0024
     -1022.6254
 04  9  2 17 23  0.0020000  0  6G20G 1G11G14G23G25
 -13082573.46549 -10189650.20747  22039179.3614   22039175.8034
      1938.6414
 -11992766.72349  -9340756.73448  21347437.5884   21347434.5374
       427.7434
    672231.78149    539577.37147  22681821.4474   22681818.0494
     -2165.7144
  21152303.54349  16458036.25046  24684284.6194   24684282.5684
     -3140.7784
  -7476486.52749  -5816063.85547  23288766.8854   23288761.5374
      2216.7134
  -7656280.03949  -5941933.71948  21507889.6974   21507885.9244
     -1030.3534
 04  9  2 17 23 15.0020000  0  6G20G 1G11G14G23G25
 -13111589.15249 -10212259.82447  22033657.9714   22033654.2324
      1934.3794
 -11999119.41449  -9345706.88348  21346228.7684   21346226.2644
       423.5134
    704817.17249    564968.56647  22688022.5964   22688018.5534
     -2172.3594
  21199415.56349  16494746.88346  24693249.8464   24693247.9944
     -3140.8014
  -7509698.97749  -5841943.67647  23282447.1824   23282441.3264
      2214.1634
  -7640708.91049  -5929800.37148  21510852.9634   21510849.3144
     -1038.0754
 04  9  2 17 23 30.0020000  0  6G20G 1G11G14G23G25
 -13140541.41849 -10234820.03147  22028148.7834   22028144.7604
      1930.1514
 -12005409.46949  -9350608.22748  21345031.9944   21345028.8614
       419.3374
    737501.37149    590436.75447  22694241.9714   22694238.3034
     -2178.9474
  21246527.09449  16531457.10546  24702215.9084   24702212.9794
     -3140.7694
  -7542874.01249  -5867794.34447  23276134.2754   23276128.5884
      2211.6694
  -7625022.88349  -5917577.50448  21513837.5724   21513834.4044
     -1045.7354
 04  9  2 17 23 45.0020000  0  6G20G 1G11G14G23G25
 -13169428.43749 -10257329.39847  22022651.5104   22022647.7054
      1925.8014
 -12011635.37149  -9355459.57848  21343846.9004   21343843.9554
       415.0604
    770285.66049    615982.93047  22700480.6894   22700477.0534
     -2185.6194
  21293639.47349  16568168.03946  24711180.9794   24711177.9004
     -3140.8254
  -7576010.07049  -5893614.63747  23269828.1744   23269822.9204
      2209.0714
  -7609220.57049  -5905264.01648  21516844.6584   21516841.4594
     -1053.4874
 04  9  2 17 24  0.0020000  0  6G20G 1G11G14G23G25
 -13198249.82449 -10279787.61747  22017167.1194   22017163.1894
      1921.4264
 -12017796.93449  -9360260.79748  21342674.5104   21342671.4004
       410.7714
    803169.88349    641606.98047  22706738.8224   22706734.5374
     -2192.2824
  21340753.00449  16604879.83246  24720146.0884   24720143.4864
     -3140.9024
  -7609106.80149  -5919404.28147  23263530.9394   23263525.4984
      2206.4494
  -7593301.97749  -5892859.92248  21519873.7914   21519870.4324
     -1061.2404
 04  9  2 17 24 15.0020000  0  6G20G 1G11G14G23G25
 -13227005.44549 -10302194.59447  22011694.9944   22011691.3544
      1917.0414
 -12023894.37549  -9365012.05148  21341514.1274   21341511.0764
       406.4964
    836153.54749    667308.52047  22713015.1504   22713011.0724
     -2198.9114
  21387867.35549  16641592.28946  24729111.7914   24729109.4204
     -3140.9574
  -7642164.32849  -5945163.38347  23257239.9394   23257235.0964
      2203.8354
  -7577267.30149  -5880365.37548  21522925.4164   21522921.8114
     -1068.9784
 04  9  2 17 24 30.0020000  0  6G20G 1G11G14G23G25
 -13255694.11749 -10324549.39847  22006235.6434   22006232.0104
      1912.5784
 -12029926.80149  -9369712.64548  21340366.1974   21340363.2094
       402.1624
    869237.37549    693088.10947  22719310.5414   22719306.7754
     -2205.5894
  21434983.37949  16678306.03946  24738077.8224   24738075.0184
     -3141.0684
  -7675181.65649  -5970891.16047  23250957.2684   23250951.7754
      2201.1554
  -7561115.94949  -5867779.91448  21525999.0024   21525995.5064
     -1076.7574
 04  9  2 17 24 45.0020000  0  6G20G 1G11G14G23G25
 -13284317.01249 -10346852.94947  22000789.2524   22000785.3184
      1908.1934
 -12035895.66849  -9374363.71548  21339230.1354   21339227.5104
       397.9244
    902419.67249    718944.42647  22725624.8074   22725621.1784
     -2212.1534
  21482099.64149  16715019.98046  24747043.8144   24747041.1864
     -3141.0844
  -7708160.17249  -5996588.69147  23244681.6354   23244676.0724
      2198.5684
  -7544849.53949  -5855104.79748  21529094.3544   21529090.8424
     -1084.4274
 04  9  2 17 25  0.0020000  0  6G20G 1G11G14G23G25
 -13312872.03949 -10369103.60947  21995355.1974   21995351.4204
      1903.6684
 -12041799.17249  -9378963.84448  21338107.2914   21338104.1934
       393.5674
    935702.00449    744878.68447  22731958.2684   22731954.7874
     -2218.8224
  21529217.87949  16751735.45346  24756010.0574   24756007.4864
     -3141.2164
  -7741097.95749  -6022254.48447  23238413.7994   23238408.2484
      2195.8524
  -7528466.13349  -5842338.50848  21532211.7684   21532208.0294
     -1092.2274
 04  9  2 17 25 15.0020000  0  6G20G 1G11G14G23G25
 -13341361.71149 -10391303.35247  21989933.5414   21989930.1074
      1899.3114
 -12047640.10249  -9383515.21948  21336995.4324   21336992.8304
       389.3954
    969081.32849    770888.53147  22738309.7684   22738306.5534
     -2225.2884
  21576335.29349  16788450.30946  24764976.1354   24764972.8424
     -3141.1614
  -7773997.68449  -6047890.60947  23232152.5414   23232147.7294
      2193.3154
  -7511968.69149  -5829483.36348  21535350.8224   21535347.8304
     -1099.8294
 04  9  2 17 25 30.0020000  0  6G20G 1G11G14G23G25
 -13369784.02349 -10413450.59847  21984525.5024   21984521.2874
      1894.8214
 -12053416.85549  -9388016.59048  21335896.1114   21335893.2754
       385.1174
   1002559.16849    796975.12947  22744681.0184   22744677.3814
     -2231.8564
  21623453.45749  16825165.73446  24773942.2524   24773939.3114
     -3141.2114
  -7806857.68749  -6073495.79347  23225899.6664   23225894.2714
      2190.6674
  -7495355.93449  -5816538.36348  21538512.5254   21538508.9394
     -1107.5174
 04  9  2 17 25 45.0020000  0  6G20G 1G11G14G23G25
 -13398139.52349 -10435545.79747  21979129.2604   21979125.1314
      1890.3674
 -12059130.23449  -9392468.57448  21334809.0254   21334805.9474
       380.8924
   1036134.32449    823137.57047  22751069.9004   22751066.4984
     -2238.3444
  21670571.51649  16861881.06346  24782909.0964   24782905.7174
     -3141.2044
  -7839678.68449  -6099070.57447  23219653.7214   23219648.3934
      2188.0664
  -7478628.71949  -5803504.18048  21541695.2444   21541692.1044
     -1115.1484
 04  9  2 17 26  0.0020000  0  6G20G 1G11G14G23G25
 -13426427.34449 -10457588.25847  21973746.2444   21973742.5494
      1885.8554
 -12064779.68049  -9396870.74248  21333733.7914   21333731.1074
       376.6304
   1069807.27749    849376.21947  22757477.7604   22757474.1784
     -2244.8644
  21717690.00849  16898596.74646  24791874.8464   24791872.2364
     -3141.2334
  -7872459.99249  -6124614.44547  23213415.9714   23213410.1504
      2185.4214
  -7461786.50849  -5790380.38348  21544900.6044   21544896.8304
     -1122.8144
 04  9  2 17 26 15.0020000  0  6G20G 1G11G14G23G25
 -13454647.27749 -10479577.80547  21968376.2054   21968372.5064
      1881.3294
 -12070365.24649  -9401223.12548  21332670.9164   21332668.3034
       372.3714
   1103577.68849    875690.80147  22763904.0494   22763900.3934
     -2251.3614
  21764808.81649  16935312.66846  24800840.8464   24800838.5964
     -3141.2544
  -7905201.52349  -6150127.32047  23207185.4004   23207179.6974
      2182.7694
  -7444829.39849  -5777167.05948  21548127.8614   21548123.9944
     -1130.4744
 04  9  2 17 26 30.0020000  0  6G20G 1G11G14G23G25
 -13482796.92649 -10501512.59047  21963019.2604   21963015.5144
      1876.6434
 -12075884.84049  -9405524.11748  21331620.8614   21331618.3504
       367.9734
   1137447.31349    902082.70347  22770349.1584   22770345.7444
     -2257.9754
  21811930.10249  16972030.52346  24809808.6974   24809805.6504
     -3141.4194
  -7937901.22349  -6175607.60247  23200962.8694   23200957.5924
      2179.9804
  -7427755.63749  -5763862.83248  21551376.3144   21551373.1744
     -1138.2514
 04  9  2 17 26 45.0020000  0  6G20G 1G11G14G23G25
 -13510879.71149 -10523395.28947  21957675.0964   21957671.8344
      1872.1864
 -12081342.18749  -9409776.59448  21330582.2134   21330579.0494
       363.8234
   1171412.15649    928548.79347  22776812.2994   22776809.1434
     -2264.3234
  21859050.05949  17008747.34446  24818774.6824   24818771.8424
     -3141.3304
  -7970562.54749  -6201057.98047  23194747.9244   23194741.7444
      2177.4224
  -7410568.95349  -5750470.61748  21554646.9714   21554643.1624
     -1145.7794
 04  9  2 17 27  0.0020000  0  6G20G 1G11G14G23G25
 -13538893.44149 -10545224.16447  21952344.8074   21952340.7174
      1867.5824
 -12086735.44549  -9413979.14148  21329556.1664   21329552.9944
       359.5514
   1205473.86349    955090.36747  22783294.3224   22783290.7014
     -2270.7804
  21906170.48049  17045464.50046  24827741.2684   24827739.4674
     -3141.3614
  -8003183.62949  -6226477.00447  23188540.2214   23188534.3304
      2174.7394
  -7393267.60249  -5736989.04748  21557939.3224   21557935.7214
     -1153.4234
 04  9  2 17 27 15.0020000  0  6G20G 1G11G14G23G25
 -13566838.00049 -10566999.13747  21947027.2834   21947023.2524
      1862.9714
 -12092064.68049  -9418131.78948  21328542.0724   21328538.8184
       355.2824
   1239632.17649    981707.21947  22789794.0964   22789791.1544
     -2277.2214
  21953291.23448  17082181.94546  24836708.5574   24836706.4634
     -3141.3844
  -8035764.50449  -6251864.69947  23182340.3384   23182334.6354
      2172.0584
  -7375851.93049  -5723418.39848  21561253.8074   21561250.1864
     -1161.0454
 04  9  2 17 27 30.0020000  0  6G20G 1G11G14G23G25
 -13594712.64549 -10588719.64147  21941722.5574   21941718.7564
      1858.3104
 -12097329.51649  -9422234.25848  21327539.9714   21327537.0294
       350.9894
   1273887.01249   1008399.27347  22796312.5724   22796309.5724
     -2283.6564
  22000412.75449  17118899.95746  24845675.3934   24845672.5724
     -3141.4354
  -8068304.83249  -6277220.78547  23176148.0024   23176142.4364
      2169.3554
  -7358321.66849  -5709758.45748  21564589.5184   21564586.0764
     -1168.6844
 04  9  2 17 27 45.0020000  0  6G20G 1G11G14G23G25
 -13622517.19949 -10610385.52347  21936431.5494   21936427.8934
      1853.6374
 -12102530.05949  -9426286.62948  21326550.4634   21326547.5334
       346.7034
   1308238.18049   1035166.39547  22802849.8464   22802846.6504
     -2290.0784
  22047534.87549  17155618.47346  24854642.7684   24854639.4284
     -3141.4754
  -8100804.45749  -6302545.15647  23169963.3224   23169958.0254
      2166.6424
  -7340677.06249  -5696009.42248  21567946.8934   21567943.4944
     -1176.3074
 04  9  2 17 28  0.0020000  0  6G20G 1G11G14G23G25
 -13650251.74649 -10631996.85547  21931153.7754   21931150.1744
      1848.9704
 -12107666.63349  -9430289.16448  21325572.7294   21325570.0574
       342.4384
   1342685.22749   1062008.22747  22809404.3614   22809401.5184
     -2296.4704
  22094657.19549  17192337.14146  24863609.7754   24863606.7404
     -3141.4884
  -8133263.65249  -6327838.02747  23163786.9084   23163781.4984
      2163.9464
  -7322918.35549  -5682171.47348  21571326.3854   21571322.9714
     -1183.9144
 04  9  2 17 28 15.0020000  0  6G20G 1G11G14G23G25
 -13677917.02049 -10653554.20747  21925889.1664   21925885.6314
      1844.3524
 -12112740.36349  -9434242.72748  21324607.4474   21324604.8264
       338.2494
   1377226.62549   1088923.58247  22815978.0184   22815974.2324
     -2302.7604
  22141778.52749  17229055.03546  24872576.8224   24872573.6464
     -3141.4224
  -8165683.39549  -6353100.14147  23157617.4164   23157612.1234
      2161.3164
  -7305046.99649  -5668245.73848  21574727.1744   21574723.6354
     -1191.4244
 04  9  2 17 28 30.0020000  0  6G20G 1G11G14G23G25
 -13705510.54749 -10675055.65247  21920638.4474   21920634.5644
      1839.5684
 -12117749.03949  -9438145.58648  21323654.3224   21323651.4944
       333.9124
   1411864.50049   1115914.12147  22822569.3384   22822565.5374
     -2309.1924
  22188901.16849  17265773.94946  24881544.1504   24881540.6664
     -3141.5094
  -8198061.32849  -6378329.68047  23151456.1664   23151450.7874
      2158.5294
  -7287060.90249  -5654230.61348  21578149.8304   21578146.3504
     -1199.0734
 04  9  2 17 28 45.0020000  0  6G20G 1G11G14G23G25
 -13733035.38749 -10696503.58248  21915400.8464   21915397.0844
      1834.9894
 -12122696.02049  -9442000.38348  21322712.8694   21322710.0334
       329.7994
   1446595.13749   1142976.92647  22829178.4794   22829174.8654
     -2315.3764
  22236021.69949  17302491.22746  24890510.2684   24890507.2134
     -3141.3694
  -8230400.91049  -6403529.33247  23145301.8854   23145296.7714
      2155.9724
  -7268963.59049  -5640128.80948  21581593.4794   21581590.2214
     -1206.4874
 04  9  2 17 29  0.0030000  0  6G20G 1G11G14G23G25
 -13760493.99649 -10717899.89147  21910175.1474   21910171.7414
      1830.5744
 -12127582.56649  -9445808.08248  21321782.6944   21321779.8544
       325.7704
   1481419.74249   1170112.95747  22835805.0154   22835801.8044
     -2321.6404
  22283142.28149  17339208.52746  24899477.8664   24899474.0934
     -3141.3724
  -8262705.00449  -6428701.34047  23139154.7264   23139149.1324
      2153.6064
  -7250754.73449  -5625940.09848  21585058.4374   21585054.9994
     -1213.9244
 04  9  2 17 29 15.0030000  0  6G20G 1G11G14G23G25
 -13787881.05949 -10739240.46547  21904963.7024   21904959.9684
      1825.8044
 -12132406.63349  -9449567.09448  21320865.1554   21320862.0654
       321.6044
   1516334.68849   1197319.39147  22842449.3664   22842445.8394
     -2327.6634
  22330258.05949  17375922.07446  24908443.1244   24908439.6944
     -3141.0524
  -8294967.91049  -6453841.25447  23133015.5544   23133009.7104
      2150.8604
  -7232435.64849  -5611665.49248  21588544.7104   21588540.9014
     -1221.2724
 04  9  2 17 29 30.0030000  0  6G20G 1G11G14G23G25
 -13815196.56649 -10760525.27347  21899765.7024   21899762.0774
      1821.0344
 -12137167.09049  -9453276.54748  21319959.2964   21319956.3354
       317.3644
   1551343.78149   1224599.18847  22849110.9524   22849107.9994
     -2333.9404
  22377373.57849  17412635.43046  24917408.4294   24917406.0654
     -3141.0354
  -8327190.18449  -6478949.52347  23126884.0074   23126877.8124
      2148.1524
  -7214003.76649  -5597302.98848  21592051.8044   21592048.6164
     -1228.7924
 04  9  2 17 29 45.0030000  0  6G20G 1G11G14G23G25
 -13842441.59049 -10781755.15647  21894581.2884   21894577.5504
      1816.3354
 -12141865.19149  -9456937.41048  21319065.2884   21319062.3124
       313.2074
   1586445.33649   1251951.02347  22855791.3044   22855787.6014
     -2340.1044
  22424487.46949  17449347.52046  24926374.2024   24926371.4794
     -3140.9264
  -8359372.96949  -6504027.02047  23120760.0154   23120753.7964
      2145.5194
  -7195460.62549  -5582853.79348  21595580.5304   21595577.2694
     -1236.2094
 04  9  2 17 30  0.0030000  0  6G20G 1G11G14G23G25
 -13869616.08649 -10802930.09047  21889410.2184   21889406.4334
      1811.6334
 -12146501.26249  -9460549.93448  21318183.2334   21318180.0814
       309.0714
   1621638.59049   1279374.31647  22862487.5934   22862484.6324
     -2346.2174
  22471599.36749  17486058.07046  24935340.0224   24935337.1904
     -3140.7934
  -8391516.52049  -6529073.93747  23114642.6794   23114636.9564
      2142.9034
  -7176806.57849  -5568318.18048  21599130.4764   21599127.0584
     -1243.6034
 04  9  2 17 30 15.0030000  0  6G20G 1G11G14G23G25
 -13896719.78549 -10824049.85247  21884252.1554   21884248.8194
      1806.9134
 -12151075.31649  -9464114.12948  21317312.3514   21317309.6124
       304.9374
   1656923.58649   1306869.10547  22869202.7184   22869198.9374
     -2352.3334
  22518709.43449  17522767.16846  24944303.9054   24944301.6164
     -3140.6714
  -8423620.70749  -6554090.17647  23108533.5694   23108527.9404
      2140.2794
  -7158041.73849  -5553696.23848  21602701.4134   21602697.9254
     -1250.9894
 04  9  2 17 30 30.0030000  0  6G20G 1G11G14G23G25
 -13923752.18749 -10845114.05547  21879108.3124   21879104.8004
      1802.1604
 -12155587.12149  -9467629.83248  21316454.0384   21316450.7264
       300.7874
   1692300.07849   1334435.17247  22875934.2184   22875931.1984
     -2358.4334
  22565817.64149  17559474.86746  24953268.7964   24953266.3474
     -3140.5474
  -8455685.30149  -6579075.57447  23102431.8664   23102426.6474
      2137.6404
  -7139166.03949  -5538987.90648  21606292.9444   21606289.8314
     -1258.3804
 04  9  2 17 30 45.0030000  0  6G20G 1G11G14G23G25
 -13950710.88749 -10866120.82847  21873978.1874   21873974.4254
      1797.2474
 -12160034.71549  -9471095.48848  21315607.5934   21315604.5544
       296.5064
   1727769.91849   1362073.99647  22882684.4684   22882680.6324
     -2364.6564
  22612926.16449  17596182.73446  24962232.7184   24962231.0974
     -3140.5684
  -8487708.07849  -6604028.36747  23096338.1714   23096333.0224
      2134.8524
  -7120177.61349  -5524191.73848  21609906.6244   21609903.0584
     -1265.8954
 04  9  2 17 31  0.0030000  0  6G20G 1G11G14G23G25
 -13977595.98049 -10887070.25447  21868862.2574   21868858.3474
      1792.3404
 -12164418.36349  -9474511.31648  21314773.3044   21314770.3864
       292.2434
   1763332.58249   1389785.13747  22889451.3514   22889447.7144
     -2370.8444
  22660034.70749  17632890.66046  24971197.4134   24971195.0934
     -3140.5704
  -8519689.33249  -6628948.79747  23090252.2964   23090247.0654
      2132.0844
  -7101076.92649  -5509308.09448  21613541.3824   21613538.1474
     -1273.3794
 04  9  2 17 31 15.0030000  0  6G20G 1G11G14G23G25
 -14004407.96149 -10907962.70747  21863760.0774   21863756.4874
      1787.4654
 -12168738.85549  -9477877.94948  21313951.1084   21313948.2724
       288.0334
   1798986.95349   1417567.74647  22896236.3434   22896232.7454
     -2376.9584
  22707142.38749  17669597.90246  24980162.1794   24980159.0854
     -3140.5124
  -8551629.63349  -6653837.31647  23084174.3514   23084169.1404
      2129.3534
  -7081864.90649  -5494337.69548  21617197.2264   21617193.9644
     -1280.8014
 04  9  2 17 31 30.0030000  0  6G20G 1G11G14G23G25
 -14031146.16049 -10928797.66447  21858672.0854   21858668.0934
      1782.5474
 -12172995.94949  -9481195.16048  21313141.1084   21313138.1754
       283.8064
   1834733.15649   1445421.91847  22903038.9294   22903034.8514
     -2383.0804
  22754249.41049  17706304.65246  24989125.8434   24989122.1674
     -3140.4684
  -8583528.86749  -6678693.84447  23078104.1404   23078098.9014
      2126.6164
  -7062541.41449  -5479280.43048  21620874.4764   21620870.8944
     -1288.2334
 04  9  2 17 31 45.0030000  0  5G20G 1G11G23G25
 -14057809.11349 -10949573.99247  21853597.9684   21853594.4874
      1777.5304
 -12177188.35249  -9484461.96948  21312343.5544   21312340.5814
       279.4934
   1870572.15249   1473348.38747  22909858.5934   22909855.0894
     -2389.2664
  -8615385.55549  -6703517.21147  23072041.8354   23072036.9684
      2123.7794
  -7043105.32849  -5464135.43448  21624572.9134   21624569.7294
     -1295.7394
 04  9  2 17 32  0.0030000  0  5G20G 1G11G23G25
 -14084399.52349 -10970293.79347  21848537.8904   21848534.3354
      1772.6944
 -12181319.12149  -9487680.75048  21311557.5074   21311554.2534
       275.3854
   1906500.69549   1501344.64547  22916695.8434   22916692.3154
     -2395.2364
  -8647202.63749  -6728309.73847  23065987.6084   23065981.9294
      2121.1394
  -7023559.86749  -5448905.21148  21628292.5544   21628289.1984
     -1303.0314
 04  9  2 17 32 15.0030000  0  5G20G 1G11G23G25
 -14110915.02349 -10990955.21547  21843492.1714   21843488.6474
      1767.7004
 -12185386.19149  -9490849.90248  21310783.4914   21310780.4724
       271.1384
   1942520.55549   1529412.03947  22923549.7724   22923546.4834
     -2401.3244
  -8678977.95749  -6753069.71947  23059941.0774   23059935.3624
      2118.3554
  -7003903.01649  -5433588.18748  21632033.0224   21632029.5304
     -1310.4574
 04  9  2 17 32 30.0030000  0  5G20G 1G11G23G25
 -14137353.26649 -11011556.44547  21838461.2884   21838457.6474
      1762.5494
 -12189387.45749  -9493967.77048  21310021.8124   21310019.0154
       266.7514
   1978633.43849   1557551.93047  22930422.3124   22930419.0114
     -2407.5264
  -8710709.35249  -6777795.47347  23053902.3744   23053896.8474
      2115.4264
  -6984133.00849  -5418182.99648  21635795.1474   21635791.5074
     -1318.0014
